GFSWCAN_sfc_30mbdewp_042.txt.gz
Dewpoint
43 43 41 43 42 41 41 43 43 43 43 42 42 42 45 44 43 39 39 42 37 33 34 37 38 32 30 28 29 31 31 35 35 32 29 28 31 31 22 28 32 30 29 29 30 29 25 28 26 24 27 33 30 31
43 43 41 42 42 43 43 42 41 42 42 42 41 44 44 44 44 39 37 41 41 37 38 40 41 42 42 30 30 35 28 30 33 30 32 30 34 35 30 27 34 31 31 30 29 28 31 30 27 29 33 29 32 32
42 43 42 42 42 42 42 42 42 42 42 42 44 44 44 45 43 39 40 40 37 35 35 35 34 40 45 43 42 31 31 28 33 34 37 37 34 37 32 31 29 34 35 32 32 28 32 33 31 32 31 31 31 33
44 43 42 43 43 43 43 43 43 42 43 44 44 44 44 45 41 39 38 39 34 32 28 28 39 41 43 43 43 42 38 37 41 38 36 36 34 35 33 29 32 30 33 33 32 32 34 35 34 32 33 34 34 33
43 44 43 43 43 43 43 44 43 44 45 44 44 44 45 42 39 41 40 37 33 27 30 27 31 35 36 36 38 44 40 39 36 39 39 34 33 35 38 37 35 33 32 32 31 32 32 30 34 35 34 35 35 35
42 43 43 44 44 45 45 45 44 43 43 43 45 45 43 41 40 38 34 37 37 34 32 31 39 39 40 40 44 43 41 38 37 36 37 37 41 38 36 28 28 31 34 34 31 36 36 37 36 36 36 35 36 35
41 42 42 43 44 44 44 44 44 44 44 44 43 42 41 40 39 34 31 36 39 38 29 28 32 38 41 42 45 44 43 40 37 38 38 36 41 39 39 34 29 32 34 35 38 36 34 35 34 37 37 37 37 36
41 41 41 41 42 42 42 43 43 43 43 43 43 42 41 40 37 37 43 43 43 33 33 31 31 36 43 42 41 45 43 43 40 38 40 38 40 40 36 35 36 35 36 38 38 37 37 37 36 36 35 35 34 34
41 41 41 40 40 41 41 41 41 41 40 41 42 40 38 36 35 38 43 42 41 40 33 33 30 32 43 40 41 41 43 39 43 41 39 38 38 34 35 36 36 38 38 38 37 36 36 35 34 33 34 34 33 32
41 41 41 42 41 41 41 41 41 42 42 41 37 36 33 38 42 45 41 36 38 37 37 33 35 31 37 38 38 38 38 37 35 39 42 39 36 38 37 38 38 38 37 37 36 35 35 33 33 33 33 33 33 32
41 41 41 42 42 42 42 42 42 41 39 35 35 34 38 41 38 36 32 32 33 31 35 36 35 32 40 36 37 39 35 34 33 36 38 36 35 35 37 38 37 37 37 37 37 36 36 35 34 33 32 33 32 32
42 41 42 42 42 42 41 41 40 40 38 41 40 40 41 37 34 31 30 31 31 29 36 34 35 35 37 41 38 37 35 34 32 37 37 32 31 34 36 37 37 37 36 35 35 35 35 34 33 33 32 31 30 29
43 43 42 42 42 42 41 42 43 43 45 42 37 35 35 33 29 27 27 29 30 32 34 36 35 38 39 38 35 34 32 31 35 32 26 25 30 32 32 33 33 34 34 33 32 32 32 32 31 30 28 28 28 28
43 43 43 43 43 42 41 42 41 40 38 34 32 27 29 26 27 28 27 29 31 31 33 35 34 35 35 33 32 31 31 32 28 24 22 26 29 30 30 31 30 29 29 29 28 28 27 27 27 28 28 28 27 26
42 42 43 44 44 42 41 39 39 38 34 29 28 24 25 27 26 27 28 30 31 31 32 34 33 33 31 30 29 30 27 21 21 19 22 24 29 29 29 29 28 27 27 27 27 26 26 26 26 26 27 27 26 25
37 37 41 43 42 41 41 40 38 37 33 25 20 20 22 23 21 22 23 24 28 29 32 32 30 27 24 24 21 18 19 14 16 19 22 27 28 28 28 28 27 27 27 26 26 26 25 24 24 23 24 24 24 23
40 39 43 40 39 38 39 37 35 31 27 24 21 22 20 21 19 21 23 24 28 30 27 23 19 19 23 17 15 16 14 16 19 20 22 26 26 27 27 27 27 27 26 26 25 25 24 25 25 23 20 22 22 22
41 43 42 39 37 37 35 34 28 25 21 21 19 20 20 20 19 20 22 24 28 24 20 18 16 13 13 13 12 15 17 20 21 20 19 22 23 23 24 23 24 25 24 25 25 25 24 23 21 21 21 22 21 20
42 42 41 41 39 36 33 32 25 19 20 21 18 18 17 18 18 19 20 19 19 19 17 13 11 10 11 14 14 16 18 20 18 18 19 20 21 21 22 21 21 20 20 20 20 19 20 21 21 21 21 21 19 20
42 40 39 39 38 34 31 30 27 20 17 17 17 14 15 14 16 17 17 16 13 12 11 9 11 13 13 15 17 16 17 21 21 17 15 16 18 18 18 18 18 19 18 17 16 17 16 15 17 17 17 18 17 16
38 37 35 34 31 32 30 30 28 23 23 22 24 16 14 15 15 14 13 12 12 10 10 14 14 16 17 17 18 17 16 16 15 16 15 13 15 16 15 16 16 15 14 14 13 12 12 12 12 13 14 14 14 14
34 29 28 28 26 26 25 26 27 27 23 23 22 18 16 14 13 12 10 9 9 13 15 15 15 15 13 14 15 15 15 14 14 13 13 12 11 11 11 12 11 10 9 8 8 7 6 5 7 7 8 9 9 8
27 25 23 23 20 20 19 25 22 21 19 21 21 15 13 13 12 10 9 9 11 14 17 15 14 14 13 14 12 11 10 9 7 7 6 6 5 6 5 5 6 5 4 3 3 4 4 3 4 5 5 5 5 5
23 20 17 18 19 17 21 20 20 19 20 19 17 15 14 13 11 8 6 7 11 13 13 13 14 12 11 10 8 8 6 5 6 7 5 4 4 4 4 4 4 4 4 3 4 4 4 4 3 3 3 2 2 2
17 19 20 17 20 17 18 18 18 18 18 18 16 15 13 12 8 7 6 8 10 11 12 12 10 9 9 8 7 7 5 4 3 3 4 4 5 4 3 3 3 2 3 4 3 3 3 3 2 2 1 1 -0 -0
15 18 18 19 18 18 18 16 16 16 16 15 14 11 11 8 5 5 6 10 10 10 11 11 11 9 8 8 7 6 6 5 3 3 2 2 2 3 2 1 1 1 2 3 2 1 1 1 1 0 0 -0 -1 -1
15 16 17 16 17 16 16 15 15 13 13 13 12 8 7 4 4 6 10 11 9 9 9 10 10 9 7 6 6 5 4 4 3 2 2 2 2 2 2 0 -0 1 2 1 1 0 -0 -0 -1 -1 -1 -1 -1 -2
16 15 11 13 13 13 11 11 11 11 11 11 7 4 3 3 4 7 9 10 8 8 8 8 8 8 8 7 7 7 6 5 4 3 3 2 2 2 2 2 1 2 1 1 1 1 0 -1 -1 -2 -3 -3 -4 -3
14 14 12 7 9 9 8 9 9 8 8 8 5 3 3 4 6 8 10 10 10 9 7 5 5 5 5 4 4 4 4 3 -0 -4 -4 -2 -1 0 1 1 1 0 0 0 -1 -0 1 0 -1 -2 -3 -3 -3 -3
13 14 10 7 6 7 7 7 7 6 6 7 5 3 3 4 7 9 10 10 9 8 7 7 5 5 4 4 4 3 2 1 1 -0 -1 -1 -0 1 1 0 -0 -1 -1 -2 -2 -2 -2 -2 -2 -3 -4 -4 -5 -6
12 15 11 9 7 6 6 7 7 6 6 5 5 4 3 4 6 7 7 6 5 5 5 5 4 4 4 3 2 0 -0 1 -0 -0 0 1 1 1 1 -0 -0 -1 -1 -3 -3 -3 -4 -4 -4 -4 -5 -6 -7 -7
11 11 9 8 7 8 9 10 10 8 7 6 4 4 4 4 3 5 6 6 6 6 4 4 5 5 3 2 0 1 -2 0 1 1 0 1 1 1 1 0 -0 -1 -2 -3 -4 -4 -5 -5 -5 -6 -6 -7 -8 -9
10 11 11 9 8 7 9 10 8 7 7 6 5 4 4 4 2 5 4 3 5 4 4 4 4 4 2 1 1 1 -1 0 -1 -3 -2 -1 -3 -1 -1 -1 -1 -2 -3 -4 -4 -5 -6 -6 -6 -7 -7 -8 -9 -9

GFSWCAN_sfc_30mbdewp_045.txt.gz
Dewpoint
43 44 43 42 42 42 42 42 42 42 43 43 43 43 43 42 44 42 41 40 37 32 32 31 32 33 26 25 25 25 27 29 33 31 30 22 20 18 13 12 26 32 30 32 32 29 27 28 26 23 26 27 29 29
44 43 42 42 43 43 42 44 44 45 44 42 43 43 43 43 44 43 40 40 41 38 39 41 40 42 36 27 27 30 31 33 30 29 27 23 23 27 21 22 17 27 32 30 29 29 31 31 28 29 26 26 31 29
43 42 42 42 42 43 43 43 43 43 43 43 43 43 42 44 43 43 41 41 39 38 38 34 33 38 41 42 43 33 33 29 28 29 27 29 29 33 28 28 19 22 33 34 31 31 31 34 32 30 32 32 32 32
43 43 43 42 42 42 42 42 43 43 42 42 42 42 43 44 43 43 39 40 38 35 34 30 34 35 39 39 41 43 42 34 31 31 32 32 32 23 29 29 28 28 33 32 30 27 29 29 33 34 33 33 32 32
44 43 43 43 43 43 43 42 42 42 42 42 42 44 44 43 43 41 41 40 39 32 29 27 30 36 42 43 42 42 42 39 34 33 34 33 30 26 30 34 31 26 29 32 30 27 32 35 34 33 35 33 35 33
44 44 43 43 44 43 43 42 43 42 43 44 44 44 43 43 42 39 34 41 40 36 28 31 34 30 34 39 40 40 39 39 35 30 35 32 27 26 26 28 25 22 30 32 31 34 37 37 36 35 33 34 34 35
44 44 45 45 44 44 45 44 44 45 45 44 43 42 42 40 38 37 35 35 36 34 27 26 29 33 33 34 38 40 40 38 39 35 34 34 31 37 35 32 26 21 21 21 28 33 36 35 34 36 36 36 36 35
43 43 44 44 44 44 44 44 44 44 43 42 41 41 42 40 39 38 42 38 36 29 28 24 28 34 39 36 36 40 39 39 37 37 34 34 34 37 34 30 29 30 32 35 37 39 38 38 36 36 36 37 36 35
41 42 43 43 43 43 43 42 42 42 42 42 41 41 39 39 37 40 42 39 36 30 25 30 28 30 39 39 38 40 40 35 36 35 35 34 35 35 34 30 29 38 39 39 39 38 37 36 35 35 35 35 35 35
41 41 41 41 41 41 41 42 42 42 41 40 37 33 31 37 42 40 39 36 33 33 36 32 32 31 34 37 35 38 40 37 34 38 37 34 33 36 37 38 39 39 39 38 37 37 37 36 36 34 34 35 35 34
41 41 41 41 41 41 41 41 41 40 39 34 36 34 40 41 40 39 32 30 32 31 32 32 34 31 38 33 35 39 36 37 33 37 39 35 32 30 34 37 38 38 38 38 38 37 37 37 36 35 35 35 35 35
42 42 42 42 42 42 41 40 39 37 39 40 38 37 38 36 33 30 29 32 31 28 35 34 34 34 36 38 37 38 33 35 31 39 37 27 26 30 31 33 34 35 36 36 36 36 36 35 35 35 35 33 31 30
42 42 42 42 41 41 41 42 42 42 44 41 35 34 33 34 28 26 26 29 30 32 35 37 34 36 37 38 37 36 33 32 33 29 24 25 27 29 30 31 31 31 31 32 31 31 31 30 31 30 29 29 28 27
43 42 41 41 41 40 40 40 41 42 38 35 33 28 28 27 27 26 26 28 31 31 32 35 33 33 35 34 32 31 30 32 27 24 21 24 27 29 30 29 28 27 27 27 27 27 27 27 27 28 28 28 27 26
41 41 42 41 40 39 39 39 39 36 31 28 25 22 23 26 26 26 28 29 31 31 31 33 33 33 30 30 29 31 26 21 20 19 21 24 28 28 28 28 27 27 27 26 27 27 26 26 26 26 26 26 25 24
41 41 42 42 42 40 39 37 36 36 30 24 20 19 20 23 21 22 24 24 29 28 31 33 30 27 24 24 21 20 18 15 18 20 22 26 27 27 27 27 27 27 27 26 26 26 25 24 24 24 25 25 25 25
39 39 40 39 37 37 37 36 30 27 25 23 21 22 20 20 19 21 23 24 30 29 27 27 20 20 25 19 15 17 14 17 19 20 23 23 23 24 26 26 26 26 26 26 25 25 25 25 25 23 21 22 23 22
39 40 39 39 38 35 31 30 27 25 20 21 19 20 21 22 20 23 25 26 30 27 25 20 20 16 16 15 14 18 20 21 21 20 20 22 23 22 23 22 23 23 22 22 23 24 25 24 22 23 23 23 22 22
40 41 40 39 38 35 32 31 24 20 20 23 22 23 23 22 23 23 23 21 20 20 17 14 13 12 13 15 17 19 22 21 19 19 20 20 21 22 22 21 21 20 21 21 20 20 19 19 21 21 22 21 20 21
40 40 39 37 37 33 30 29 23 19 19 20 21 18 18 18 19 20 19 17 14 13 12 11 12 14 15 17 18 19 21 24 20 17 17 19 20 19 19 19 19 19 17 16 16 16 15 15 16 16 16 16 16 15
38 37 35 35 33 32 31 29 24 22 22 23 24 18 18 18 17 16 15 12 14 12 12 15 15 17 18 19 19 18 18 18 18 18 16 15 18 17 16 16 15 14 14 13 11 9 9 9 9 11 12 12 11 11
36 32 32 30 27 27 26 27 25 25 20 20 19 18 17 16 15 13 11 11 13 14 16 15 16 15 14 15 16 16 16 15 15 14 13 13 12 11 11 11 9 8 8 8 8 8 7 6 8 9 9 10 9 8
28 27 27 27 25 24 21 25 23 21 20 19 18 15 15 15 13 12 11 11 13 18 17 15 16 15 14 12 11 11 10 10 9 9 9 9 9 9 8 8 8 8 7 6 6 6 6 5 5 6 7 6 6 6
25 26 23 24 22 22 25 22 20 19 20 17 15 14 14 14 13 10 9 10 13 14 14 16 16 13 10 9 8 8 7 8 9 10 8 7 6 5 5 5 6 6 6 5 6 6 5 6 5 5 4 3 3 3
19 20 23 21 23 21 20 20 19 18 17 17 14 14 14 14 11 9 8 11 13 14 15 14 13 13 12 11 9 8 7 6 6 5 6 8 9 7 5 5 3 2 4 5 5 4 3 4 3 2 2 2 0 1
17 19 19 20 19 19 19 17 18 17 17 15 15 14 15 12 8 8 9 12 13 13 14 15 14 11 10 9 8 7 6 6 5 5 3 3 3 5 4 3 3 2 4 4 4 3 2 1 1 0 1 1 -0 -0
16 17 17 18 19 18 18 18 18 16 15 14 15 13 11 8 7 8 11 13 12 12 12 14 12 10 8 7 6 6 5 5 4 3 3 2 2 3 3 3 1 2 3 2 3 2 2 1 0 -0 -0 -0 -0 -1
16 16 14 16 15 15 14 14 13 13 13 13 11 9 8 7 7 11 11 12 12 11 11 11 10 10 9 8 8 8 8 7 6 5 4 4 3 3 2 3 2 1 2 2 2 2 1 1 1 0 -1 -1 -1 -1
16 16 11 9 11 10 10 11 11 10 10 12 10 7 6 6 10 11 12 11 12 11 10 9 9 9 8 7 8 7 6 5 3 -2 -2 0 1 3 2 2 2 2 2 2 0 0 1 1 0 -0 -1 -1 -0 -0
15 17 10 8 8 8 9 11 9 9 9 9 6 5 6 7 9 13 12 11 11 11 10 10 9 9 8 8 7 5 4 4 3 3 2 1 2 2 2 2 2 2 1 1 1 0 -0 -0 -0 -0 -1 -2 -2 -3
17 15 10 9 8 9 10 11 11 10 9 9 9 7 6 7 8 9 9 10 9 9 8 7 7 8 7 5 5 2 3 3 1 1 1 2 2 2 2 1 2 1 1 1 -0 -1 -2 -2 -1 -2 -2 -4 -4 -5
14 13 10 8 9 11 13 13 11 10 10 9 8 8 8 8 6 8 9 9 9 8 7 8 7 7 6 5 4 3 1 2 2 2 1 1 2 2 1 1 1 1 0 -1 -1 -1 -2 -3 -3 -3 -3 -4 -5 -6
13 13 12 11 10 11 12 11 10 9 9 8 8 8 8 8 6 9 8 9 11 9 7 7 7 6 4 3 3 3 1 2 2 1 1 1 -0 -1 -1 1 1 -0 -1 -2 -2 -2 -2 -3 -4 -4 -5 -5 -5 -6

GFSWCAN_sfc_30mbdewp_048.txt.gz
Dewpoint
41 42 44 44 43 43 43 43 43 43 43 43 43 43 42 43 43 43 40 44 41 38 31 36 36 36 32 28 26 24 25 29 33 33 31 28 25 22 14 17 33 34 33 33 33 31 28 29 25 22 26 28 29 28
43 44 43 43 43 42 43 43 43 43 44 44 44 43 43 43 43 42 37 44 42 40 40 43 42 43 40 36 29 27 27 28 33 34 29 29 24 22 19 16 22 30 31 34 31 30 35 32 30 30 30 31 32 33
44 43 43 42 42 43 43 43 44 44 43 44 44 43 43 43 44 41 39 43 44 39 37 39 37 43 43 41 41 31 29 31 36 39 33 30 26 26 25 25 21 21 33 33 29 33 36 34 35 33 33 34 34 34
43 43 43 43 42 42 43 44 44 44 43 44 43 43 43 44 43 41 41 43 43 37 34 35 41 37 37 40 40 43 40 40 39 36 33 31 29 26 27 28 27 26 23 30 30 31 29 28 34 37 36 36 35 34
44 43 43 43 43 43 43 44 44 43 44 43 43 43 44 43 42 43 43 43 44 36 32 36 37 33 38 38 37 39 41 41 42 37 37 32 35 31 28 29 29 27 25 26 31 31 32 34 37 37 34 32 33 35
44 43 44 43 43 43 42 43 43 43 43 43 44 44 43 44 44 42 35 43 43 39 34 31 32 35 39 38 36 33 37 41 43 38 38 34 33 32 28 28 26 26 28 27 29 33 36 37 37 36 36 36 36 36
44 44 44 44 43 43 43 43 43 43 43 43 43 43 44 44 41 37 35 39 42 39 33 26 27 30 32 37 38 39 37 40 44 39 39 34 33 31 31 30 23 24 25 24 24 28 30 28 36 38 38 38 37 36
44 44 44 44 44 44 43 43 44 43 43 44 43 44 43 42 41 40 40 41 41 35 30 26 28 33 33 33 34 39 38 39 40 39 40 35 34 35 31 28 28 29 29 30 40 39 39 39 38 37 37 37 38 37
44 43 44 44 43 43 43 44 43 43 43 43 42 42 40 40 38 40 40 37 41 35 28 27 28 29 38 36 36 39 38 34 36 35 37 35 34 33 34 37 39 39 39 39 39 39 38 38 37 36 36 36 36 37
42 42 43 43 43 42 42 42 42 41 41 40 39 37 34 40 42 37 37 36 37 35 33 31 27 32 34 34 36 37 37 36 31 32 36 36 34 32 31 33 35 36 38 38 38 38 38 38 38 37 35 36 36 36
42 42 42 42 41 41 41 41 40 41 41 39 37 36 40 43 39 37 31 28 29 29 28 28 32 33 36 31 32 37 35 35 32 33 32 31 27 27 31 32 34 34 36 36 37 37 37 37 37 37 36 36 35 33
42 42 42 42 42 42 41 41 42 41 40 40 38 39 39 36 35 30 29 31 30 26 32 33 35 34 36 37 32 34 33 34 31 38 34 24 25 29 29 30 29 31 32 32 32 32 33 33 33 32 31 30 29 28
42 42 42 41 41 41 41 41 41 42 43 41 37 35 34 33 27 26 23 27 30 30 32 36 34 36 37 36 31 32 31 30 33 28 22 23 25 27 28 28 27 28 28 28 28 28 28 27 28 28 27 27 26 25
41 41 40 39 39 39 39 39 40 41 37 34 33 26 28 24 24 24 24 27 29 30 29 32 33 32 32 31 31 30 30 31 26 21 17 22 26 27 28 28 26 26 27 26 26 26 25 25 25 26 26 26 24 23
42 42 41 40 39 39 39 39 37 32 28 25 23 20 21 25 26 25 28 29 30 31 30 33 32 32 30 29 29 29 26 18 18 16 19 24 26 27 26 27 26 26 25 25 25 25 24 25 24 24 24 24 23 23
41 41 41 42 41 39 38 34 32 31 27 21 19 19 19 20 19 22 23 25 29 29 31 33 30 26 24 23 18 19 16 14 16 20 22 24 24 25 25 26 26 26 26 25 25 25 24 23 22 22 23 23 23 23
40 38 39 35 33 32 35 32 27 24 24 23 20 22 22 20 20 23 25 25 29 29 27 26 20 21 23 16 13 16 14 17 19 21 22 22 22 22 23 23 23 24 24 25 24 24 24 24 23 21 20 22 22 22
38 38 40 39 40 37 30 28 24 22 19 22 20 21 23 24 22 24 25 27 29 26 24 21 22 15 14 13 13 19 18 19 20 19 20 22 22 21 22 21 22 22 21 21 21 22 23 23 22 22 23 23 22 22
41 39 38 38 37 33 30 28 23 20 22 24 23 24 24 24 24 26 27 27 25 26 24 20 15 13 13 17 19 21 21 20 18 19 19 21 22 22 22 21 20 20 20 21 20 19 19 19 19 20 21 19 17 20
39 37 36 36 36 31 29 27 24 22 19 22 26 21 20 20 21 20 19 19 17 16 13 12 13 16 16 19 21 22 23 23 20 18 18 20 20 19 20 20 20 19 17 14 14 15 14 14 15 15 14 15 15 14
38 37 35 34 32 31 30 27 24 25 25 24 24 21 21 19 16 15 15 13 15 13 13 16 16 18 20 21 20 19 19 19 19 18 17 16 19 16 15 14 13 13 12 12 11 10 11 11 11 13 14 13 11 13
36 33 33 31 27 26 26 28 24 23 22 21 19 19 18 17 16 13 13 13 13 16 18 17 18 17 17 18 18 18 18 17 16 16 15 14 13 13 13 13 11 11 10 10 10 9 8 7 10 10 10 11 11 8
30 29 30 31 26 25 24 25 23 20 20 19 18 16 17 16 14 13 11 12 16 19 18 17 18 16 15 14 14 14 13 12 12 11 12 11 11 12 11 10 11 10 9 7 7 7 8 7 7 8 8 7 8 7
28 29 27 27 25 23 26 23 19 19 19 16 14 14 15 15 14 10 10 13 16 16 18 21 16 13 12 11 10 10 10 11 12 13 11 9 8 6 5 4 5 7 8 7 7 7 7 7 6 6 5 3 4 4
20 20 25 22 24 21 20 19 19 17 16 16 14 14 15 15 11 10 10 13 14 16 18 18 16 14 12 11 9 8 9 8 7 6 7 9 10 8 7 6 4 4 6 6 6 5 4 5 4 3 3 2 1 2
17 19 20 20 20 20 19 18 17 17 16 15 15 15 17 13 10 10 12 15 14 14 16 18 15 11 10 9 8 7 8 8 7 5 3 4 5 7 5 4 4 4 5 6 5 4 3 2 2 1 2 2 1 1
17 17 18 20 20 19 19 19 18 16 15 15 15 15 13 9 8 10 14 15 13 15 15 17 13 10 9 8 8 8 7 7 5 4 3 3 4 4 4 3 2 2 4 4 4 4 3 2 2 1 1 1 1 1
17 18 16 17 16 17 15 14 14 13 13 14 13 10 9 9 9 14 12 15 14 13 12 12 13 12 12 12 12 12 11 10 8 7 8 6 4 4 4 6 4 2 4 4 2 3 2 2 2 2 1 -0 1 1
16 14 11 10 10 10 11 12 11 10 11 16 11 8 6 10 12 12 14 14 13 13 12 11 11 11 10 10 9 8 7 7 4 -0 0 2 4 5 3 3 3 4 3 4 3 2 1 1 1 1 -0 1 1 2
16 16 10 9 8 7 10 11 11 14 11 9 7 7 7 9 15 13 14 15 15 13 12 12 12 13 11 12 8 6 6 5 5 5 4 4 4 3 4 4 3 3 3 3 2 1 2 1 2 3 2 1 -0 -1
17 14 9 8 8 10 11 13 13 12 13 13 11 8 6 8 9 12 12 12 11 11 10 9 10 10 9 7 7 5 7 5 2 2 2 3 3 4 4 2 3 3 2 3 1 1 1 -1 -1 -0 -0 -1 -2 -2
16 12 9 7 9 12 16 18 13 13 13 10 9 9 11 11 7 10 11 11 10 12 9 10 10 9 8 6 5 4 3 3 4 3 2 2 3 3 2 2 3 3 2 1 0 1 1 -0 -1 -1 -1 -2 -2 -3
15 14 12 12 12 12 14 14 10 11 10 9 9 10 10 11 8 10 9 12 14 12 10 11 9 8 5 5 5 3 2 4 1 1 1 0 -1 -1 -1 1 2 1 -1 -1 -1 -1 -0 -1 -1 -2 -3 -3 -3 -2

GFSWCAN_sfc_30mbdewp_054.txt.gz
Dewpoint
41 41 41 42 43 43 43 44 43 43 43 43 43 43 42 42 43 41 41 42 37 32 34 35 33 31 30 29 26 28 28 29 28 24 24 22 21 26 26 29 29 29 31 31 32 30 27 36 33 24 32 36 32 33
42 42 44 44 44 44 44 44 44 44 44 44 44 44 43 43 43 42 38 42 42 37 35 39 41 42 32 31 30 31 28 28 28 27 26 26 23 25 22 21 31 25 26 28 32 33 33 37 36 40 38 37 36 37
44 44 44 43 43 43 43 43 43 42 43 43 44 44 43 43 43 42 39 40 40 34 34 34 34 41 44 42 41 31 35 33 35 35 32 30 25 28 23 24 24 30 31 30 32 32 35 33 36 37 36 36 36 39
44 43 43 43 43 43 43 43 43 43 43 43 43 44 44 43 43 42 39 41 38 35 29 33 37 37 44 42 42 42 40 41 41 40 33 32 27 34 27 28 27 27 36 33 32 32 31 31 30 31 31 37 35 39
43 43 43 43 43 43 44 44 44 43 42 43 44 44 44 44 44 43 42 41 40 33 29 33 40 41 42 39 39 41 41 39 36 34 34 31 34 32 31 31 30 33 32 30 28 30 30 28 28 31 30 32 34 38
44 42 43 43 44 44 44 44 44 43 44 44 44 44 45 44 43 41 36 41 41 43 37 30 38 37 40 39 36 36 40 40 37 35 35 37 40 35 30 25 31 36 38 39 37 39 36 39 41 41 38 38 37 38
44 43 44 43 44 44 44 44 44 44 44 44 44 45 44 44 42 36 34 39 43 41 35 32 32 38 41 40 39 38 39 39 37 36 34 35 36 35 31 29 33 35 35 38 39 39 38 39 37 37 37 37 38 39
44 44 44 43 43 44 44 44 44 43 43 44 44 44 44 43 39 39 43 41 42 37 38 28 31 34 38 35 34 39 35 38 38 35 37 33 36 36 32 29 31 34 34 36 37 38 38 39 37 37 38 38 35 32
43 43 43 43 44 44 43 43 43 44 44 44 43 43 42 38 37 41 42 42 41 40 28 28 28 28 37 35 35 37 37 32 36 33 33 33 30 23 25 27 29 30 31 33 36 35 36 36 34 33 33 32 30 28
43 43 43 43 43 43 43 43 43 43 42 42 41 37 32 40 44 43 41 37 36 34 34 30 32 31 34 33 34 33 35 31 30 32 36 27 23 28 27 27 27 29 32 33 33 33 33 33 32 30 29 28 27 26
43 43 43 43 43 42 42 42 42 42 42 38 36 35 41 43 38 34 31 29 29 27 30 30 30 31 35 30 31 34 32 33 28 32 30 22 19 23 26 25 27 29 30 31 32 31 31 30 29 28 26 25 24 23
42 42 42 42 41 40 41 42 42 41 40 39 39 39 37 35 32 26 26 28 27 28 32 32 33 33 34 35 30 33 31 31 27 31 21 15 20 24 24 25 26 27 26 26 26 25 26 25 25 24 23 22 22 22
41 41 41 41 41 41 40 40 40 41 42 41 36 33 28 25 18 20 22 23 24 28 28 31 33 34 34 33 30 30 28 28 30 20 14 17 21 23 24 24 23 24 25 24 23 23 22 22 22 22 21 21 21 20
41 41 38 39 38 36 34 33 37 33 30 25 23 18 18 17 19 19 20 22 26 28 27 29 31 32 32 30 30 28 25 24 16 10 11 17 21 23 23 23 21 21 21 21 22 22 21 21 21 21 21 22 20 19
36 37 38 38 38 38 31 33 28 26 22 19 18 15 16 20 20 23 25 25 28 29 28 30 31 30 27 25 23 24 17 12 13 11 15 18 20 21 21 21 21 21 21 20 21 20 20 20 19 19 20 21 21 20
41 36 37 40 34 36 32 28 28 28 24 18 19 15 18 15 16 20 22 22 26 27 29 30 28 23 19 18 13 14 10 9 12 15 19 19 19 19 19 20 21 22 21 21 21 21 21 20 19 19 19 19 19 19
36 37 40 41 34 29 32 27 24 22 21 19 18 20 19 18 18 19 23 22 27 27 22 20 15 16 19 14 11 13 10 13 15 16 18 19 18 19 19 19 19 19 18 18 19 19 19 21 20 17 16 18 18 18
37 39 40 39 39 33 29 25 22 20 18 20 17 19 20 19 18 18 23 23 25 24 20 17 17 13 12 11 10 13 14 16 18 18 18 17 17 16 17 16 17 17 17 17 17 16 16 16 15 16 17 16 15 15
38 38 38 39 35 30 25 25 23 19 20 20 19 19 20 18 20 21 23 23 20 21 20 16 11 10 11 14 13 15 16 15 14 16 16 18 18 17 16 16 15 14 14 15 15 14 13 13 13 13 13 14 13 13
38 35 35 36 36 28 23 25 27 22 20 19 19 17 16 17 17 16 17 17 15 14 12 11 11 13 14 18 18 18 19 18 15 13 13 15 16 15 15 14 13 13 12 11 11 11 11 10 9 9 10 10 9 10
36 34 35 33 32 30 28 27 27 24 23 22 20 17 14 12 11 11 11 11 10 13 12 14 15 17 19 19 19 19 19 18 16 14 13 12 15 14 13 11 10 9 8 8 8 9 9 8 10 8 7 7 7 7
31 33 32 30 26 25 24 27 26 27 21 22 22 19 16 12 10 11 10 10 11 13 15 15 17 17 17 17 18 18 17 16 15 14 13 12 10 10 10 9 9 8 7 7 7 6 5 5 5 6 6 5 5 5
30 31 28 24 22 20 21 26 22 23 18 18 18 16 14 11 13 13 11 14 15 18 17 16 16 17 17 17 16 15 14 12 11 10 9 8 8 8 8 9 9 7 7 8 7 6 5 2 0 1 2 2 3 3
28 26 25 23 21 20 21 20 21 18 16 15 15 14 16 10 11 9 9 13 16 16 15 13 12 11 11 12 12 12 11 11 11 11 9 6 6 6 6 7 7 8 7 6 3 1 3 -0 -2 -2 -1 -1 -1 1
14 18 20 20 21 18 17 16 16 15 15 14 13 14 14 12 10 9 8 12 13 15 14 12 11 11 10 10 9 10 9 8 7 7 9 8 7 5 4 5 5 6 5 3 2 -0 -0 1 -2 -3 -2 -2 -2 -2
15 19 20 19 19 18 18 16 15 15 14 13 15 16 10 8 6 7 10 11 12 12 13 10 10 9 9 9 8 8 8 7 5 4 6 7 6 3 3 1 -0 2 3 2 2 2 2 0 -0 1 -0 -2 -2 -2
14 17 20 17 19 18 15 14 14 13 14 14 14 12 7 4 3 9 13 14 12 13 14 11 10 9 8 7 7 7 6 6 5 6 6 4 2 1 -1 -2 0 3 2 -0 0 -0 0 1 1 -1 -2 -1 -2 -1
16 12 11 10 10 12 10 9 9 9 10 12 7 5 5 4 5 11 12 12 12 12 12 12 12 11 10 10 9 8 7 5 6 6 6 5 4 2 2 3 3 5 5 2 -0 -2 -3 -2 -2 -2 -3 -3 -2 -0
12 12 8 6 6 8 9 8 8 11 11 10 5 4 6 11 12 12 12 12 11 9 8 8 7 5 4 3 2 1 3 7 5 2 1 -1 1 3 2 3 2 1 1 2 4 3 2 1 -0 1 2 1 -0 0
12 10 6 5 5 6 10 10 7 7 9 9 11 9 8 9 13 15 15 12 8 7 7 7 7 5 3 2 -0 -2 -1 -1 1 0 0 -0 0 2 -0 2 2 -1 -1 2 -1 -2 2 -0 -2 -3 -3 -2 -1 -2
12 8 7 7 7 10 9 8 8 6 5 4 4 4 5 8 10 12 12 10 9 9 9 8 7 5 6 4 3 1 1 -1 -3 -0 1 0 1 0 -1 -2 -1 1 1 -1 -2 -2 -1 -1 -1 -2 -2 -2 -3 -4
10 6 6 6 8 12 12 12 8 8 7 5 6 5 7 5 4 8 10 11 11 9 8 5 5 4 -0 0 -0 -1 0 0 0 -0 -0 -2 -5 -6 -4 -2 -3 -4 -5 -5 -6 -4 -3 -4 -4 -4 -5 -5 -6 -7
9 8 8 9 9 9 11 12 11 10 7 7 8 8 7 5 3 6 10 9 9 8 7 5 3 2 2 1 2 2 1 -1 -1 -1 -3 -3 -3 -5 -7 -6 -7 -7 -6 -5 -5 -5 -6 -7 -8 -8 -9 -9 -10 -11

GFSWCAN_sfc_30mbdewp_060.txt.gz
Dewpoint
41 41 42 42 42 42 42 42 42 42 42 42 42 42 43 44 44 43 40 43 39 32 36 36 34 33 33 30 27 30 30 29 29 26 25 24 23 22 21 24 30 27 26 28 30 27 22 33 35 31 34 38 38 37
41 41 41 42 43 44 44 43 43 42 43 42 42 42 40 40 44 45 36 43 42 37 37 39 39 37 33 32 29 32 29 28 29 26 26 25 23 23 25 19 30 19 28 24 28 27 31 35 32 33 38 37 37 37
42 41 43 44 44 44 43 43 43 43 43 44 43 42 42 41 41 42 39 40 38 33 36 36 36 38 39 35 33 28 31 30 31 31 27 26 22 24 20 21 22 27 31 28 26 25 29 31 32 35 36 37 35 33
42 44 45 43 42 42 43 43 43 44 43 43 43 43 43 42 41 42 39 40 38 36 31 33 38 38 40 43 41 39 35 39 37 36 30 28 25 29 23 23 22 23 30 28 28 32 35 35 38 40 39 40 37 33
44 44 44 43 43 43 43 43 43 43 43 44 44 43 44 43 42 42 41 40 40 35 29 31 37 36 36 40 38 41 41 38 37 34 31 29 31 32 31 31 28 36 34 31 27 37 37 37 39 37 38 38 36 35
44 44 43 43 43 44 44 44 44 44 44 44 44 44 44 44 43 40 34 40 42 41 35 28 35 39 35 35 35 37 39 39 37 33 31 34 37 31 29 28 33 34 34 35 35 36 36 37 39 35 34 35 33 31
44 44 43 43 44 44 44 45 44 44 44 44 44 44 44 44 41 36 33 38 42 42 34 29 32 38 38 39 39 40 41 40 39 35 34 32 35 34 33 29 30 30 30 31 35 35 36 37 35 33 32 32 29 27
44 43 43 44 43 44 43 43 43 43 43 43 43 44 44 41 41 39 41 41 40 37 35 29 31 35 39 36 33 39 37 38 38 36 36 33 36 35 30 26 28 29 29 31 32 33 35 35 32 30 29 28 26 24
43 42 43 43 43 43 44 42 42 43 43 44 44 42 41 37 35 39 41 40 40 34 27 30 29 28 39 35 37 36 37 31 35 33 33 33 31 27 22 23 24 25 26 28 30 32 34 34 30 27 26 26 24 23
41 41 42 42 41 42 43 44 44 44 43 41 38 34 31 39 41 38 36 33 33 33 36 31 32 30 34 33 32 33 32 29 26 30 28 25 20 23 23 23 24 25 26 28 28 28 27 28 27 25 24 23 23 22
40 39 40 42 41 43 41 41 41 40 40 38 35 34 40 40 36 34 30 29 30 29 31 32 32 31 35 29 30 31 30 31 26 29 28 21 17 20 22 20 23 24 24 24 26 25 25 25 24 23 21 21 20 20
39 39 38 41 42 41 41 41 42 40 40 40 39 39 35 31 28 26 26 28 28 27 30 31 32 33 34 31 30 31 28 30 23 25 20 13 18 20 21 21 21 23 23 22 23 22 22 22 22 21 20 19 18 18
39 39 37 37 37 36 39 43 43 41 38 28 25 21 21 20 17 18 20 21 22 25 27 31 30 31 31 31 30 29 26 21 24 16 12 14 18 18 20 20 20 21 21 21 21 21 20 19 19 19 17 18 18 17
37 36 39 34 36 34 32 31 32 26 23 20 16 13 13 12 16 17 17 19 24 26 27 31 30 29 30 27 27 21 20 16 11 9 9 14 18 18 19 20 18 18 19 18 18 18 18 17 17 18 18 18 16 15
40 40 34 35 32 30 30 29 25 24 21 17 15 13 14 17 19 19 21 22 24 26 28 29 25 22 18 17 18 17 13 9 10 8 12 15 16 17 17 18 19 18 18 17 18 17 16 16 16 15 16 16 16 15
38 38 40 33 34 31 27 26 25 25 21 16 15 13 14 14 14 16 18 19 23 24 27 25 21 16 14 14 10 10 8 6 8 13 15 16 16 16 16 17 17 18 18 18 18 17 17 16 15 15 15 15 14 14
38 37 40 40 30 28 29 22 22 20 18 16 14 17 14 14 14 15 17 19 24 23 19 18 14 15 18 9 7 10 7 10 11 13 15 16 15 15 16 16 16 16 15 16 16 17 16 17 16 14 12 13 14 14
37 38 38 38 33 28 25 23 19 16 13 15 12 15 16 17 16 16 20 21 23 22 20 16 17 11 8 7 6 10 13 14 15 14 14 14 14 15 15 14 15 15 14 14 14 14 14 14 13 13 12 11 10 10
38 39 37 35 29 25 21 21 17 13 15 16 15 16 16 17 19 20 21 22 22 21 19 16 11 9 9 12 11 13 14 14 12 13 14 14 15 14 14 13 13 12 12 12 11 11 11 11 11 11 9 8 7 8
38 35 37 35 29 25 24 23 21 16 14 16 17 15 16 16 18 18 16 18 16 13 11 9 9 12 13 14 15 15 15 15 13 10 10 11 12 12 11 11 11 11 9 8 7 7 7 7 6 6 6 5 4 3
30 32 33 31 27 28 26 22 21 18 19 15 16 15 15 15 12 11 12 13 11 11 9 12 12 14 16 16 16 16 15 14 12 11 10 9 10 9 8 7 6 5 4 3 4 4 4 4 4 2 1 1 1 1
28 33 26 26 24 24 21 25 22 23 20 19 20 16 11 9 9 10 11 9 10 12 14 14 15 15 14 14 15 15 14 13 12 11 10 9 6 5 4 4 3 2 2 2 3 2 3 3 2 0 -2 -2 -1 -0
29 28 23 22 19 21 24 27 23 23 17 17 16 10 6 6 10 11 9 12 12 15 16 15 15 14 13 13 13 12 12 10 8 7 6 6 5 5 5 4 3 2 2 2 2 1 1 1 0 -0 -2 -4 -5 -5
24 22 21 19 19 18 18 18 18 15 15 15 14 12 9 6 8 7 7 10 13 15 14 14 13 11 9 9 9 9 9 8 7 6 6 5 4 4 5 4 4 3 3 3 -2 -3 -3 -3 -3 -1 -2 -1 -3 -3
15 18 17 17 17 16 15 14 13 13 12 12 13 12 9 8 5 6 6 9 10 9 10 10 9 7 6 6 8 9 9 7 5 4 5 5 4 3 3 3 2 3 1 1 -0 -3 -4 -5 -5 -4 -4 -3 -1 -2
14 16 16 17 16 16 15 14 12 12 12 12 12 7 4 4 3 4 7 9 10 9 7 6 7 7 6 6 6 6 7 7 6 4 5 6 2 -1 -0 -0 -0 1 -0 -2 -1 -0 -0 -2 -3 -3 -3 -4 -5 -4
12 13 13 11 14 13 11 10 10 10 11 12 9 4 0 -0 1 5 9 10 10 9 9 8 7 7 7 7 6 6 5 4 2 2 2 2 2 1 -2 -2 -2 1 -1 -2 -2 -1 -1 -1 -2 -2 -3 -5 -5 -5
10 8 9 5 6 5 5 4 5 6 7 8 3 2 1 0 2 8 9 9 10 9 8 7 6 6 4 3 3 2 2 2 2 2 2 2 1 1 -0 -1 -0 2 -1 -3 -3 -3 -2 -3 -3 -3 -4 -3 -3 -6
5 4 3 2 3 3 2 2 3 6 7 2 1 1 4 7 6 8 9 9 8 6 4 4 1 -0 0 -0 -1 -1 1 1 1 1 0 -1 -2 0 -3 -2 -3 -3 -3 -0 0 -1 -1 -2 -2 -2 -3 -4 -5 -9
6 4 3 1 0 -0 3 3 3 3 5 6 9 7 6 6 8 8 8 8 8 6 3 1 -3 -4 -3 -2 -0 0 -3 -4 1 3 1 0 -2 -3 -2 -1 -1 -3 -6 -3 -3 -3 -2 -3 -4 -5 -5 -5 -7 -7
6 4 4 3 2 4 4 3 4 3 1 2 1 2 2 4 8 8 6 2 1 1 2 1 1 -3 -2 -3 -2 -2 -1 -2 -6 -5 -5 -5 -5 -3 -3 -5 -8 -9 -7 -5 -5 -5 -5 -6 -8 -7 -7 -7 -8 -10
4 3 2 2 4 6 6 4 4 3 2 3 3 1 1 1 2 5 5 5 5 6 4 3 5 5 1 -3 -5 -6 -4 -2 -3 -4 -3 -4 -6 -6 -8 -9 -10 -10 -9 -8 -9 -8 -8 -8 -9 -10 -11 -11 -12 -13
5 5 5 6 6 6 7 5 4 5 3 4 4 0 -1 -0 2 4 3 0 6 7 5 3 -2 -3 -2 -2 -2 -3 -2 -3 -5 -2 -6 -5 -7 -7 -10 -10 -10 -9 -8 -8 -9 -9 -9 -10 -11 -12 -13 -14 -14 -16

GFSWCAN_sfc_30mbdewp_063.txt.gz
Dewpoint
40 41 41 41 42 41 41 41 42 42 41 41 42 43 43 42 43 42 40 42 38 32 34 34 33 32 32 31 29 31 31 31 31 27 26 25 23 24 21 22 27 27 25 26 27 27 22 30 34 27 31 35 36 37
41 41 42 42 42 42 43 43 43 44 42 42 42 41 40 40 44 43 38 43 41 36 35 40 39 36 33 32 31 32 29 29 30 27 27 26 24 24 24 18 30 23 29 28 29 27 31 35 34 36 39 38 39 38
41 40 42 43 43 44 44 44 44 45 44 42 42 42 41 40 43 43 38 42 40 35 34 35 36 38 39 36 35 32 32 31 31 31 28 27 23 25 22 23 23 27 31 28 28 26 31 34 37 40 38 39 39 36
41 41 43 44 43 44 43 41 42 42 43 44 43 43 42 41 42 40 39 41 39 36 30 33 37 37 39 40 38 35 34 36 35 35 29 28 23 28 24 24 23 23 30 28 28 30 34 37 39 37 37 37 35 34
43 44 44 44 44 43 43 43 42 43 43 44 43 43 43 41 41 42 41 40 40 36 30 32 36 37 39 40 39 38 36 35 34 32 31 28 31 31 31 31 28 34 33 30 27 35 34 36 38 35 35 34 32 31
44 43 43 43 44 44 43 43 43 43 43 44 43 44 43 41 41 39 33 41 41 40 34 29 35 36 38 41 39 38 37 36 34 32 34 34 35 32 30 28 33 34 33 32 33 34 35 37 37 34 33 33 30 27
43 43 43 42 43 43 43 44 44 43 43 43 44 43 44 42 41 36 33 38 41 41 34 30 31 38 36 36 37 37 39 37 36 36 33 32 33 36 31 27 30 30 30 30 32 33 35 36 34 31 30 30 29 27
42 43 43 43 44 42 44 44 44 44 43 44 44 43 45 42 40 37 41 41 41 38 36 29 30 34 37 35 34 38 37 38 38 36 35 33 35 35 30 26 26 26 26 30 28 30 31 33 31 28 27 27 26 26
42 42 43 43 43 42 44 44 44 43 44 44 44 44 39 36 35 39 41 41 41 36 28 29 28 27 38 34 36 36 36 31 36 33 32 35 32 29 22 23 23 24 25 26 27 28 29 30 27 25 25 25 24 23
42 42 43 42 42 42 43 43 43 44 44 41 39 35 32 35 42 41 38 33 34 34 35 29 33 30 34 34 32 33 34 31 28 31 31 27 19 21 22 22 22 22 24 25 25 24 23 24 24 23 22 23 23 21
42 43 43 42 41 42 42 41 41 41 40 38 35 34 40 42 38 35 30 27 29 27 31 32 32 30 33 30 30 33 30 30 26 27 29 22 17 19 21 19 20 21 22 22 24 24 23 23 22 21 20 20 19 19
39 42 42 41 42 42 41 41 40 40 40 39 37 37 33 29 30 26 26 28 28 26 30 30 31 33 32 33 32 32 29 29 23 25 22 14 17 18 19 18 19 20 20 20 21 20 20 20 20 19 18 17 17 17
37 37 39 41 43 41 42 39 34 36 30 25 22 22 21 17 16 17 19 21 22 24 27 31 29 32 32 31 31 29 25 21 21 16 11 13 16 17 18 17 18 19 18 18 18 18 18 17 18 17 16 17 16 15
36 36 33 35 34 33 34 33 29 24 22 18 15 12 12 12 15 16 16 18 23 25 25 31 28 27 26 25 24 20 19 18 12 10 8 13 16 17 18 19 16 17 17 17 17 17 16 15 15 16 16 16 14 13
39 34 32 35 31 31 29 26 25 22 20 16 14 12 13 16 17 18 19 21 23 25 28 26 20 21 17 17 18 16 13 9 9 8 11 15 16 17 17 17 17 17 17 16 17 16 15 15 14 14 15 15 14 14
38 37 39 32 32 28 26 25 24 23 20 14 13 13 14 14 14 15 16 19 23 24 24 21 17 14 13 11 9 9 9 7 8 12 14 16 15 16 16 16 16 17 17 17 16 16 15 14 14 14 14 13 13 12
38 37 39 39 28 27 28 22 19 17 16 14 13 15 13 13 13 15 17 18 23 22 18 16 13 14 13 7 6 9 7 9 11 13 15 15 15 15 16 15 16 15 15 16 16 16 15 15 15 13 11 12 12 12
36 37 38 37 30 27 23 21 17 14 12 14 12 14 16 16 15 16 20 22 23 21 17 15 14 9 9 7 7 10 12 13 14 13 14 14 14 14 15 14 14 15 14 14 14 14 14 14 12 11 11 10 9 8
38 37 37 31 28 24 20 20 16 12 14 15 16 17 17 16 19 19 20 21 20 20 17 14 9 9 9 12 11 12 13 13 11 11 12 14 14 14 14 14 13 12 12 12 11 10 10 10 10 9 8 7 7 7
35 35 34 33 28 24 21 20 19 14 13 15 17 15 16 16 16 15 15 15 13 13 10 8 8 11 12 13 15 14 14 13 12 10 10 11 12 11 11 11 10 10 9 8 7 7 6 5 5 5 5 5 5 4
29 32 31 28 27 26 24 21 18 16 17 14 16 16 16 16 12 12 11 11 11 10 8 11 12 14 16 16 16 16 15 14 13 12 9 8 10 9 8 7 6 5 4 4 4 4 4 4 3 2 3 2 2 4
29 30 24 26 22 22 21 23 20 21 18 16 18 14 11 8 9 10 11 8 9 11 13 13 14 14 13 13 14 14 13 12 11 10 10 9 6 4 4 4 3 3 3 3 3 3 3 2 1 1 1 1 2 2
28 26 23 21 20 22 24 28 22 22 16 17 14 7 5 5 10 10 8 10 11 15 15 14 13 13 12 12 12 12 11 9 8 6 6 5 5 4 4 3 2 1 1 2 3 3 2 1 -1 -2 -2 -2 -2 -2
23 20 18 18 19 18 17 17 17 15 15 14 12 8 7 6 8 6 6 9 12 14 13 13 11 10 9 8 8 8 7 6 6 5 6 5 4 4 4 3 3 3 3 -0 -1 -1 -1 -2 -2 -0 -2 -1 -2 -1
14 15 15 15 16 14 14 13 12 12 12 12 11 9 8 7 4 5 5 9 10 9 9 11 9 7 5 6 7 8 9 7 5 4 5 4 4 3 3 3 3 3 1 1 -1 -2 -2 -4 -3 -2 -2 -1 -1 -1
12 13 14 15 15 14 13 11 11 11 11 11 9 5 3 2 2 3 7 8 10 8 7 6 7 7 7 7 7 7 7 7 5 4 5 5 2 1 0 -0 -0 1 0 -0 1 1 0 -2 -2 -2 -2 -3 -5 -3
11 11 11 9 12 10 9 8 8 9 10 10 6 2 -1 -0 1 5 8 8 9 8 7 7 7 6 5 5 5 4 4 3 3 3 3 2 2 1 -0 -1 -2 1 -1 -1 -1 -0 -0 -1 -1 -2 -2 -4 -4 -4
8 6 7 3 3 3 4 3 4 5 6 6 2 0 -0 -1 2 7 7 8 8 6 5 5 5 5 4 2 2 1 1 1 2 2 2 2 1 -0 -1 -0 -0 1 -1 -2 -1 -3 -1 -1 -2 -2 -3 -3 -3 -5
4 2 1 -1 -0 0 0 0 2 5 6 1 -0 1 3 5 4 6 7 8 6 4 2 2 0 -1 -0 -0 -2 -1 1 1 2 1 0 -0 -1 1 -3 -2 -2 -3 -4 -1 -2 -1 -0 -1 -2 -2 -3 -4 -5 -9
4 2 0 -1 -2 -2 1 1 2 2 3 5 7 5 4 5 6 8 8 7 5 4 1 1 -1 1 1 1 1 1 -3 -4 -1 2 0 0 -0 -3 -4 -2 -2 -4 -6 -3 -2 -2 -2 -3 -4 -6 -6 -6 -7 -7
4 2 1 1 1 3 4 2 3 2 1 1 1 1 1 3 6 5 3 -1 0 -0 1 -1 -4 -6 -4 -2 -1 -1 0 -2 -6 -6 -6 -5 -5 -4 -4 -6 -8 -9 -7 -6 -5 -5 -6 -6 -8 -7 -7 -8 -10 -11
3 1 0 0 2 4 3 3 2 2 2 3 3 -1 -0 0 2 4 2 3 3 4 3 2 5 6 0 -2 -5 -5 -6 -2 -3 -4 -4 -4 -6 -7 -8 -9 -11 -9 -8 -7 -8 -8 -8 -8 -9 -11 -12 -12 -13 -14
4 4 3 4 4 4 4 2 2 4 2 3 1 -3 -3 -1 1 3 1 -2 4 6 5 2 -1 -2 -3 -3 -2 -3 -4 -4 -6 -3 -6 -5 -7 -6 -8 -9 -9 -9 -7 -7 -8 -9 -9 -10 -11 -12 -13 -15 -16 -16

GFSWCAN_sfc_30mbdewp_066.txt.gz
Dewpoint
39 41 41 41 41 41 41 41 41 40 40 40 41 43 42 40 40 40 38 41 37 32 30 33 29 25 27 32 30 33 33 33 32 28 24 23 22 20 19 23 26 24 22 23 22 22 23 33 28 23 32 33 36 36
41 41 41 41 42 41 42 42 42 43 43 42 41 41 42 42 42 42 37 42 41 36 34 36 33 32 30 31 31 35 27 31 32 27 26 24 21 26 21 17 24 23 23 24 23 22 34 35 33 39 39 38 39 38
40 41 41 41 41 42 42 43 43 43 44 44 43 41 41 43 43 42 39 41 40 35 34 35 36 37 39 37 33 29 34 36 32 32 30 27 25 24 22 20 23 23 28 25 24 26 29 34 38 38 38 38 37 36
41 41 42 43 44 44 44 43 44 44 44 44 43 42 41 41 42 42 40 41 39 36 30 29 35 36 39 40 36 34 35 36 36 36 32 28 24 28 23 23 23 23 26 22 22 24 32 37 37 37 37 37 36 34
43 44 44 43 44 43 43 43 43 41 42 44 44 43 42 41 41 43 41 43 40 32 29 27 36 35 35 37 37 37 37 38 38 35 33 30 29 28 28 30 25 28 25 26 24 35 35 35 36 36 36 35 35 32
43 43 42 43 43 43 44 43 43 42 42 42 44 43 43 42 41 39 32 40 42 40 34 29 35 35 36 37 36 37 38 39 38 36 35 33 31 30 29 25 29 34 33 33 33 34 35 35 36 33 33 32 32 30
42 43 43 43 44 43 43 42 43 43 43 43 44 43 43 41 40 36 34 37 42 42 35 31 32 37 35 37 37 37 38 39 38 37 35 31 30 33 29 26 32 30 29 30 31 32 34 34 34 31 30 30 30 28
43 43 43 43 43 44 43 42 43 43 43 44 44 43 43 40 39 39 41 40 41 38 37 31 31 34 37 35 34 39 37 39 38 37 36 32 31 31 30 27 26 26 27 29 28 28 30 32 30 27 27 27 26 25
43 42 43 43 44 44 44 44 43 43 43 43 44 44 40 38 36 39 41 42 43 38 31 31 27 27 36 36 37 37 37 31 37 32 34 35 33 28 22 23 23 24 24 25 25 27 27 27 25 24 23 23 22 21
42 42 42 43 44 44 44 44 44 44 43 41 38 34 31 37 43 41 37 33 34 36 36 31 35 30 34 33 33 33 34 31 28 31 34 31 21 22 22 21 22 22 22 23 23 24 24 25 24 22 22 21 21 19
42 42 43 42 42 43 42 42 41 41 40 39 35 33 40 41 38 35 30 30 31 28 32 32 33 31 35 29 31 34 30 31 26 29 29 26 20 20 21 19 19 21 21 21 22 22 23 23 23 21 20 19 19 18
42 42 41 42 42 42 41 41 41 41 40 38 36 36 34 32 32 28 27 29 26 25 30 30 32 34 33 36 33 32 30 31 24 28 28 21 17 17 17 17 18 19 19 19 20 20 20 20 20 19 18 17 17 16
42 42 42 39 38 38 39 40 38 37 32 27 26 24 21 20 20 22 21 24 25 26 29 31 30 32 31 33 32 32 28 24 26 23 18 15 16 16 17 17 17 18 18 18 18 18 18 18 18 17 16 17 16 15
37 35 34 34 34 33 31 30 29 24 23 21 19 14 17 16 17 18 21 23 25 27 27 32 29 30 30 28 27 23 22 22 20 17 14 15 16 17 18 18 16 17 17 17 17 17 16 16 16 16 16 16 15 13
34 33 32 31 32 29 29 28 23 22 21 18 17 15 15 18 19 20 22 24 26 28 30 29 26 26 23 22 22 21 19 16 15 14 14 16 16 17 17 17 17 17 17 16 17 16 15 15 15 15 15 15 14 14
40 38 33 32 29 28 26 24 22 21 18 16 15 17 18 19 19 20 21 23 25 27 27 25 23 20 17 17 16 15 16 14 12 14 16 16 16 16 16 16 17 18 17 17 16 16 15 15 14 14 14 14 13 13
37 36 38 28 29 26 25 21 18 16 15 15 15 18 17 17 17 19 21 22 25 26 23 21 18 16 15 13 12 12 12 13 14 15 16 16 16 16 16 16 17 17 17 17 16 16 16 16 16 14 12 14 12 11
36 37 38 34 29 25 20 18 15 14 14 16 14 16 17 18 19 19 21 22 24 21 19 17 15 13 13 11 11 12 14 15 16 16 16 16 16 17 17 16 16 16 16 15 16 16 16 15 13 12 11 10 9 8
36 37 34 32 28 23 18 17 15 13 15 17 17 18 18 18 20 21 21 19 18 18 16 14 11 10 10 13 13 14 15 14 13 14 14 15 16 15 15 15 15 14 14 14 14 12 11 11 10 9 8 8 7 7
34 35 33 32 29 21 17 17 16 14 14 16 17 16 16 17 19 19 18 16 14 14 11 10 11 13 13 16 16 15 15 15 14 13 13 14 14 14 14 14 14 13 12 10 9 9 8 7 7 7 7 7 7 6
32 32 31 28 26 24 21 18 16 15 16 15 17 15 15 14 14 14 13 13 11 11 10 13 14 16 17 17 17 16 17 16 16 15 13 12 13 12 11 10 8 7 7 8 6 6 6 5 4 5 6 6 6 6
31 29 29 27 23 22 19 21 18 18 16 16 16 13 13 12 12 11 10 10 10 12 14 14 15 15 15 15 15 15 15 14 13 12 12 11 9 7 6 6 6 6 6 6 6 6 5 3 4 4 4 4 3 3
29 27 25 24 23 22 22 27 21 19 16 16 12 10 9 11 11 10 9 10 12 15 15 14 14 13 13 13 13 12 11 10 9 8 7 6 6 7 6 5 6 5 4 3 4 4 5 3 3 4 3 3 3 2
23 21 20 21 22 20 23 19 17 16 16 14 11 9 9 10 9 9 8 8 12 14 13 13 13 12 11 10 9 9 8 7 7 8 7 6 5 5 5 4 4 4 3 2 2 3 4 4 3 4 4 3 3 2
15 14 18 16 18 16 15 15 15 14 14 14 11 11 11 10 8 8 7 9 11 13 13 13 12 11 10 9 9 9 8 7 6 6 7 6 6 4 4 3 4 3 4 4 3 3 3 2 2 2 1 1 0 0
11 13 14 16 16 15 14 12 13 13 13 11 10 9 10 8 7 7 8 11 12 13 13 13 12 10 9 8 9 8 8 7 6 7 5 5 5 6 5 3 2 3 4 5 4 3 2 2 2 1 1 0 -2 -0
11 11 11 9 13 13 13 13 13 13 12 10 8 6 5 4 5 6 11 12 12 12 11 12 10 10 9 7 7 7 6 6 6 5 5 4 4 4 4 3 1 2 3 3 3 2 2 1 1 1 0 1 1 1
9 8 7 5 6 7 6 7 7 7 9 7 5 2 2 3 5 9 10 11 12 11 10 9 9 8 7 5 5 5 4 4 5 5 4 4 3 4 4 4 4 4 4 4 3 3 2 2 1 1 0 0 -0 0
6 6 3 -1 2 3 3 4 5 6 6 5 4 3 4 5 6 9 10 11 11 10 9 6 5 6 6 5 5 6 6 6 5 3 1 1 3 4 4 4 3 3 3 3 2 3 2 2 2 1 0 0 0 -0
6 6 2 0 -0 1 4 5 5 6 6 7 5 5 5 6 8 11 11 10 9 9 9 8 7 8 6 6 5 5 5 4 4 4 2 1 3 4 3 3 3 2 2 2 2 1 1 1 0 0 -1 -1 -1 -2
7 5 3 2 2 4 5 8 7 6 6 6 6 5 4 7 8 7 6 7 7 7 7 4 4 5 5 5 6 4 4 3 -0 0 1 2 3 3 2 0 -0 -0 0 -0 -1 -2 -2 -2 -3 -3 -4 -5 -6 -7
6 3 2 1 3 6 7 7 7 6 7 6 6 6 6 6 5 7 6 7 8 8 6 8 9 8 6 5 3 2 0 2 2 1 1 0 -0 -1 -2 -2 -3 -2 -2 -2 -2 -3 -4 -4 -5 -6 -6 -7 -9 -10
5 6 6 6 6 6 7 7 6 6 7 6 5 4 3 4 4 6 5 5 7 9 9 8 6 4 2 2 3 2 1 1 -1 -1 -3 -3 -4 -2 -1 -0 -1 -2 -2 -2 -3 -3 -4 -5 -6 -7 -8 -10 -10 -11

GFSWCAN_sfc_30mbdewp_069.txt.gz
Dewpoint
37 38 39 41 41 41 42 41 42 41 41 41 42 43 43 42 40 39 35 36 35 32 28 26 27 28 24 25 31 34 32 34 31 29 27 23 22 23 19 23 25 21 21 20 20 19 18 30 28 27 33 34 35 34
39 40 40 40 41 41 41 42 42 42 42 42 42 42 43 42 41 40 33 37 39 34 34 36 28 28 33 34 35 36 33 35 34 29 29 28 22 25 19 18 27 22 20 21 20 20 31 34 36 36 37 36 35 35
39 40 41 42 42 42 42 42 42 42 42 43 43 43 42 42 43 40 36 39 38 34 34 33 31 34 34 34 37 35 31 31 32 34 36 32 27 24 22 22 22 22 28 25 27 29 33 35 36 36 36 36 35 35
41 42 42 43 44 43 43 43 44 43 44 43 44 44 42 41 44 41 39 40 38 35 29 28 30 30 36 35 36 37 37 37 38 38 33 31 27 25 26 31 22 27 24 20 21 28 32 34 36 36 36 36 35 35
41 43 43 43 43 43 44 43 44 43 44 44 44 44 42 41 43 42 41 41 41 31 27 24 30 33 31 34 36 39 41 37 38 36 33 30 29 29 25 27 24 22 27 22 28 34 34 34 35 35 34 34 34 33
43 43 43 43 43 43 43 43 43 43 43 44 44 44 42 41 44 40 33 41 42 40 34 30 29 32 34 33 33 36 40 39 38 36 34 32 32 31 28 25 32 32 32 33 33 33 34 35 34 33 33 32 32 31
43 43 43 43 44 44 44 44 43 42 42 43 44 42 42 42 40 36 35 38 42 41 35 28 29 33 32 32 34 36 39 39 38 36 35 31 31 31 28 26 33 29 29 31 31 31 34 33 33 31 30 30 30 29
42 42 43 44 44 44 43 44 44 43 41 43 44 43 42 41 40 39 41 43 42 39 37 30 30 33 34 32 33 38 37 38 37 36 36 31 30 32 30 27 26 26 28 29 27 28 31 31 29 27 27 27 27 26
43 43 43 44 44 44 44 43 43 43 42 42 44 42 41 39 37 39 42 43 42 38 32 33 29 27 37 35 37 37 37 31 37 33 34 34 31 24 23 23 24 24 24 24 25 26 27 27 26 24 24 24 24 23
43 43 43 44 44 43 43 43 43 43 43 44 39 34 31 38 42 40 38 33 34 37 35 31 35 31 33 32 33 33 35 31 29 32 36 33 22 23 21 21 21 22 22 23 23 24 24 25 25 23 23 23 22 21
42 42 43 43 44 43 43 43 43 42 39 37 32 33 40 41 38 36 30 30 31 30 32 33 33 32 37 29 32 34 32 31 24 29 30 28 20 20 19 18 19 20 21 21 21 22 22 23 23 23 21 21 20 19
42 41 42 42 43 42 42 41 41 41 40 38 36 37 37 35 32 29 29 30 27 25 31 31 34 33 36 37 33 33 30 31 25 31 30 23 18 18 18 18 18 19 19 19 20 20 20 20 21 20 19 18 18 18
38 39 39 39 39 39 41 40 39 39 36 35 32 29 31 27 26 24 21 24 24 30 31 33 32 34 35 35 32 32 28 27 29 27 22 18 18 18 19 19 18 18 18 18 18 18 18 18 18 17 17 18 18 17
35 36 36 34 32 32 34 31 29 27 26 24 24 19 23 21 21 22 25 27 27 30 31 33 31 32 33 30 30 26 26 28 24 21 18 18 18 18 19 19 17 17 18 17 17 16 16 16 16 17 17 17 16 15
33 33 31 31 30 30 29 27 25 24 22 20 20 18 18 21 22 24 26 28 28 30 31 32 31 30 29 27 26 24 23 20 20 19 18 18 18 18 18 18 17 16 17 16 16 16 16 16 15 15 16 16 15 15
38 34 29 33 29 27 26 25 24 23 20 19 19 20 21 24 23 24 26 26 28 29 33 32 28 25 23 23 22 20 20 19 17 17 17 17 17 18 18 18 18 18 17 17 17 17 16 15 15 15 15 14 15 14
38 35 30 28 25 24 24 22 20 17 18 18 18 22 23 21 22 23 25 25 30 30 27 26 23 20 20 19 16 17 16 16 17 18 19 19 18 17 18 18 18 18 18 18 17 17 17 17 18 16 14 15 13 11
35 37 28 27 28 23 19 19 17 17 16 20 17 20 20 22 23 23 25 24 26 24 23 20 19 18 17 16 15 15 17 19 19 18 18 18 19 19 19 17 18 17 17 17 17 18 18 18 15 13 12 10 8 7
36 32 36 32 28 22 18 18 18 16 18 20 22 21 22 22 23 24 23 21 20 20 20 17 15 14 13 16 15 16 17 17 16 16 16 17 17 16 17 17 17 17 17 17 17 14 12 11 10 9 8 7 7 7
34 34 32 30 30 20 17 18 19 17 17 19 20 19 19 20 22 22 20 17 15 14 13 12 13 17 17 20 19 18 17 16 16 15 15 16 16 17 17 17 16 15 14 13 11 9 8 7 7 7 8 8 8 7
31 30 29 27 23 23 20 18 17 17 17 18 19 18 18 19 18 18 16 15 14 14 13 15 16 19 20 19 18 18 20 20 19 19 16 14 15 14 13 13 12 10 10 10 8 7 7 6 5 6 8 8 8 7
28 28 27 24 21 20 20 20 18 18 19 18 16 16 17 17 16 14 13 12 12 16 17 16 16 16 16 17 17 16 16 16 15 15 15 14 13 12 10 9 8 9 8 8 8 8 7 5 6 6 7 6 5 5
30 28 27 26 24 21 21 28 20 20 18 16 16 14 15 15 12 12 11 12 14 18 16 15 15 15 15 15 14 13 13 12 12 12 10 9 9 9 8 7 8 7 6 4 4 5 6 5 5 5 5 5 5 5
24 25 25 26 22 21 22 19 16 16 16 14 12 12 14 13 13 12 10 11 15 15 14 15 14 13 13 13 11 10 9 9 10 11 8 7 6 5 5 5 6 5 4 3 4 5 4 6 5 4 4 4 3 3
18 17 22 20 21 19 17 17 16 15 15 14 13 13 14 14 12 11 10 11 14 15 15 15 14 15 14 12 10 9 9 8 8 8 8 7 7 5 4 3 4 3 4 6 5 5 4 4 3 3 2 2 2 1
14 15 17 18 18 17 16 15 16 15 14 13 12 12 15 13 11 10 11 14 15 15 17 16 14 12 10 10 10 9 8 8 7 8 5 5 5 7 6 4 3 7 5 6 5 5 3 2 3 2 2 2 2 1
14 14 13 12 16 16 16 17 16 15 14 12 12 12 11 8 8 9 14 16 15 16 15 14 13 12 11 10 9 8 7 8 7 6 5 3 4 4 6 5 3 5 4 4 4 4 4 3 2 2 2 2 3 2
11 10 10 11 11 12 11 11 11 11 12 9 9 7 7 7 8 14 14 16 15 14 14 13 12 11 10 9 8 8 7 7 8 7 6 6 5 5 5 5 4 4 5 4 4 3 3 3 2 2 2 1 1 1
10 9 5 3 6 6 7 8 9 8 8 10 8 6 6 7 11 12 13 14 14 13 12 11 10 10 10 9 9 9 9 8 7 3 1 3 4 7 5 5 4 4 4 4 4 3 2 2 2 2 1 2 2 2
9 10 5 3 3 4 6 9 8 9 8 9 7 7 7 9 13 15 14 14 13 13 12 12 12 11 9 8 7 7 8 8 7 6 5 4 5 5 4 4 4 4 3 3 2 2 2 2 1 2 2 0 1 1
9 9 6 5 4 8 10 10 10 11 13 11 10 8 7 8 10 11 11 12 12 12 11 10 10 10 8 8 7 6 7 6 3 4 4 4 4 4 3 2 2 2 2 1 1 1 -0 -0 0 -1 -1 -2 -3 -4
9 7 5 3 5 8 12 11 10 11 10 10 9 10 11 9 8 9 10 12 12 11 11 11 10 10 9 7 6 6 5 4 3 3 2 2 3 2 1 1 1 1 1 0 0 -0 -1 -2 -2 -2 -3 -4 -5 -6
9 8 8 8 8 8 9 11 8 9 9 8 8 9 9 9 7 8 9 10 12 13 11 10 9 7 5 5 5 4 3 3 2 1 1 1 0 1 2 2 1 1 -0 -0 -1 -1 -2 -3 -4 -4 -5 -6 -6 -7

GFSWCAN_sfc_30mbdewp_072.txt.gz
Dewpoint
35 38 39 39 39 40 41 41 41 42 42 42 41 42 42 41 40 39 34 36 35 32 27 26 26 28 31 29 30 34 33 33 32 27 24 23 23 25 23 23 23 23 24 24 22 22 21 33 34 31 37 39 34 34
38 39 39 39 39 41 41 41 42 42 42 41 42 42 43 42 41 40 32 35 38 33 27 32 32 31 31 30 37 35 34 34 31 29 27 33 27 29 25 21 25 21 23 23 21 22 34 36 35 36 37 35 34 34
38 38 39 41 41 42 42 43 43 43 42 42 42 43 42 43 43 41 37 34 35 32 32 29 27 28 29 32 34 35 34 33 36 38 35 33 30 29 24 24 29 30 31 32 27 34 35 35 35 36 36 35 34 34
39 40 41 42 42 43 43 44 44 43 43 43 43 43 42 43 43 43 38 38 35 34 25 23 26 29 28 31 33 39 37 36 37 38 34 34 31 33 31 29 28 29 29 25 35 38 38 35 34 35 34 34 34 34
40 41 42 43 43 43 43 43 44 44 44 44 43 43 44 43 43 43 41 39 37 29 26 26 27 26 31 30 32 36 36 35 37 35 33 31 35 33 32 30 33 33 33 31 33 34 36 34 34 34 33 33 33 32
41 42 43 43 43 43 43 44 44 44 44 44 44 44 44 43 42 39 32 40 39 35 31 28 37 29 31 30 31 32 36 38 39 36 34 34 33 36 33 30 33 30 31 31 29 32 35 34 32 32 31 31 31 29
42 43 43 43 44 44 44 43 43 44 44 44 44 44 44 42 42 35 34 38 41 40 33 29 28 33 32 33 34 35 36 38 38 36 35 34 33 33 32 29 31 30 30 28 28 31 31 30 29 29 29 30 29 27
43 43 43 43 44 44 44 44 44 43 43 43 44 43 42 42 40 38 42 42 41 38 36 29 27 33 33 33 34 38 37 38 36 36 35 33 32 33 26 26 25 25 27 26 26 29 29 29 27 26 26 27 27 25
43 43 43 44 44 45 44 44 44 43 42 44 43 42 41 38 36 38 43 42 42 38 31 31 29 28 35 33 37 37 37 31 37 33 34 34 31 22 24 24 23 23 24 24 26 26 26 27 26 24 24 24 24 23
43 43 44 44 44 44 44 44 42 43 44 43 38 34 31 37 43 42 39 33 34 36 36 32 36 30 34 33 34 33 35 31 29 32 35 30 23 22 21 21 21 21 22 22 23 23 23 23 26 23 23 22 21 21
43 43 43 44 44 43 44 43 44 42 40 37 33 33 40 41 38 35 30 30 31 29 30 33 35 31 38 32 31 33 32 32 27 30 31 27 21 21 20 19 20 20 20 20 22 23 23 23 24 22 20 19 19 19
42 42 42 43 44 44 43 43 40 40 39 37 38 40 39 36 33 30 28 31 29 25 33 31 33 34 37 38 33 33 30 31 26 33 28 21 20 19 19 18 18 20 20 20 21 21 20 21 20 19 17 17 17 18
40 41 41 41 41 42 43 42 40 40 39 36 34 32 33 30 26 26 21 23 27 31 33 34 33 35 36 35 33 32 28 28 30 28 21 19 19 18 20 19 18 19 19 18 18 18 17 17 19 17 17 18 17 17
36 35 37 38 33 37 40 40 39 36 33 29 26 22 26 23 24 24 26 27 29 32 34 34 33 32 33 30 31 25 28 29 25 22 17 18 19 19 19 18 17 18 18 17 17 17 17 17 17 17 17 17 15 14
33 31 33 31 31 31 30 28 27 26 24 22 22 20 19 23 24 26 29 29 30 31 33 32 32 30 28 28 28 26 23 21 20 17 18 19 20 20 19 18 18 18 18 18 17 17 17 17 16 16 17 16 15 15
33 33 30 30 29 28 28 27 26 24 22 20 22 22 25 25 25 26 28 27 30 31 33 32 29 26 25 26 24 22 23 19 18 18 18 18 18 19 19 19 20 19 19 18 18 17 16 16 15 15 15 15 15 14
39 33 31 28 26 26 27 25 25 20 20 20 20 24 25 23 23 24 27 28 31 30 29 30 24 23 24 21 17 18 17 17 19 20 20 19 18 18 19 19 20 19 19 18 18 18 17 18 19 16 14 15 13 11
35 28 30 33 30 25 23 23 20 18 18 23 20 22 23 25 25 26 28 29 31 26 24 22 22 21 18 18 15 18 19 20 19 19 19 19 20 21 20 19 20 19 18 18 18 18 18 18 15 12 12 10 9 8
36 31 29 30 27 22 20 20 20 17 21 23 23 25 25 25 26 27 25 24 22 23 22 19 16 15 16 19 17 18 18 17 17 18 19 20 19 19 19 19 19 19 19 19 16 13 12 11 10 9 8 8 8 9
34 36 34 32 30 21 20 20 21 19 21 21 23 21 21 23 25 25 21 19 17 16 15 14 16 20 19 21 21 21 20 19 17 16 16 18 19 19 20 19 17 16 14 13 12 11 9 8 8 8 9 10 13 11
26 27 29 30 24 23 21 20 19 19 21 21 23 21 21 22 21 19 17 16 15 15 14 18 19 21 21 21 21 24 24 25 24 18 16 17 17 16 15 15 14 13 13 12 10 9 9 7 6 8 11 11 10 9
25 27 27 24 22 22 21 21 20 21 21 20 20 20 20 19 17 15 14 13 15 19 18 17 18 18 18 17 16 16 17 17 17 16 16 16 15 14 14 12 10 11 9 9 9 11 9 8 9 8 10 8 8 8
29 29 27 26 23 21 22 27 21 23 20 18 19 17 18 16 14 14 12 13 17 19 17 16 16 16 16 16 15 15 14 13 13 13 12 11 11 11 9 9 9 9 8 6 5 7 10 3 5 7 7 7 8 8
27 28 28 25 22 21 24 20 18 18 18 16 14 15 17 16 15 13 11 13 16 16 15 16 15 15 15 14 12 11 11 12 12 12 10 9 8 6 6 6 7 6 5 4 6 7 6 9 2 10 5 5 6 4
19 18 24 21 22 20 18 18 17 17 16 15 14 15 15 18 14 12 12 14 17 17 17 18 21 20 15 13 11 11 11 10 10 9 8 8 8 6 6 4 5 4 6 9 11 7 7 5 5 5 4 4 4 3
16 17 19 20 20 18 17 17 17 16 16 15 14 15 18 15 13 12 13 15 18 16 18 19 16 14 12 11 11 10 9 8 9 8 6 6 6 8 7 5 7 9 7 7 8 7 7 5 4 3 3 4 2 3
16 16 15 16 19 19 19 19 18 16 15 14 15 15 14 10 10 12 20 18 18 21 20 20 18 14 13 11 10 9 8 9 8 7 5 5 6 6 8 9 8 7 6 5 6 6 5 4 4 4 3 4 5 6
12 14 12 15 15 15 14 14 14 13 13 12 12 10 10 10 10 16 17 18 17 17 16 15 14 13 12 11 11 9 9 10 10 8 8 8 7 7 7 6 4 3 6 5 4 4 4 4 3 4 4 4 4 4
13 11 7 7 9 8 9 10 10 9 10 14 11 8 7 11 14 15 15 16 16 15 13 12 12 12 12 11 12 12 12 10 8 3 3 5 10 8 6 6 6 5 5 6 6 4 3 3 3 3 2 2 3 3
12 12 7 6 6 6 9 13 11 11 10 10 9 11 12 14 16 17 17 17 16 16 15 14 15 13 11 10 9 9 9 9 8 8 7 7 7 6 5 6 5 5 4 4 4 3 4 4 3 4 5 5 3 2
12 12 8 7 7 9 12 14 17 16 14 12 11 7 7 9 11 14 15 14 14 14 13 12 12 11 10 10 10 8 8 6 4 5 6 5 5 6 5 3 3 3 4 3 2 2 1 -0 1 1 1 -0 -1 -2
12 9 6 4 7 13 16 15 13 11 12 11 11 12 13 11 9 11 12 16 16 14 14 13 11 10 9 8 7 7 6 5 4 4 4 5 5 3 3 3 3 3 2 1 2 2 1 -0 -1 -1 -1 -2 -2 -3
12 10 8 8 8 8 11 13 9 12 11 10 10 12 12 12 8 9 12 13 16 14 12 11 9 8 7 7 6 5 5 4 2 2 2 1 0 0 2 4 3 3 1 1 0 0 -0 -1 -2 -3 -3 -3 -3 -3

GFSWCAN_sfc_30mbdewp_075.txt.gz
Dewpoint
33 34 36 37 38 39 39 39 40 41 42 42 42 42 41 42 41 38 35 37 34 31 29 29 29 27 29 30 29 34 32 34 30 26 25 22 23 23 25 31 24 23 26 25 25 23 18 38 39 35 39 40 37 36
34 36 38 39 39 39 39 40 41 42 41 42 42 42 42 42 42 40 34 36 38 34 30 32 32 32 33 31 33 33 33 33 32 28 28 31 28 28 26 26 33 25 26 25 24 25 37 39 40 37 36 35 35 34
36 38 38 39 39 40 41 42 42 43 43 43 42 42 42 43 42 41 36 35 35 32 29 29 28 27 29 30 39 33 35 37 35 38 35 33 30 33 25 26 33 31 28 27 26 35 35 35 35 35 35 34 34 33
37 38 38 39 40 41 43 44 43 43 44 44 43 43 42 43 43 42 38 36 34 32 24 24 28 29 31 30 32 37 35 39 38 37 33 32 30 36 32 34 32 33 34 35 31 33 35 36 34 34 33 33 32 32
38 38 39 41 41 42 43 44 44 43 43 44 43 44 43 43 43 43 41 38 36 28 27 30 33 33 32 32 31 31 37 37 36 32 34 32 35 35 35 35 29 33 30 32 29 34 33 33 33 33 32 31 29 29
38 40 41 41 42 43 44 44 44 44 44 44 44 44 43 43 43 40 32 39 39 36 29 22 34 34 32 32 32 32 35 37 35 36 34 35 36 34 31 28 30 32 29 29 34 34 32 31 30 31 30 28 27 25
39 41 42 43 43 43 43 43 44 44 44 44 44 44 44 44 41 35 33 37 40 39 31 26 27 33 32 33 33 34 36 37 36 35 34 34 34 37 32 25 28 29 29 26 30 31 28 28 27 28 29 28 26 24
41 42 43 43 43 44 44 44 44 44 44 44 44 44 44 43 40 38 42 41 40 37 35 27 27 33 35 33 33 37 36 36 36 36 36 34 35 32 22 25 26 26 25 24 27 28 28 26 25 25 26 26 24 23
43 43 43 43 44 44 44 44 44 44 43 43 44 44 40 38 35 37 43 40 40 37 29 30 26 26 36 35 37 37 37 30 37 33 33 35 27 20 24 24 23 22 22 22 24 24 25 27 25 23 23 23 23 22
43 43 42 44 44 45 44 44 44 43 44 41 38 34 31 38 43 42 37 35 34 36 36 30 34 30 35 34 33 33 34 31 28 31 35 25 21 23 22 22 21 21 22 24 22 21 22 24 22 21 22 22 21 19
42 43 44 44 44 44 44 43 44 41 39 37 34 34 40 41 37 34 29 30 30 28 32 32 33 31 37 32 31 34 31 32 27 30 30 24 20 22 20 19 21 22 21 22 22 22 23 23 20 19 19 18 17 16
42 43 44 44 44 44 43 41 40 39 39 37 39 40 38 35 33 29 28 30 28 26 31 31 33 35 36 38 32 33 30 31 26 33 29 18 19 22 20 19 21 21 20 19 19 19 19 18 19 18 17 16 17 17
41 40 42 43 42 42 42 42 42 40 40 37 35 32 32 30 25 23 22 24 27 32 33 34 32 35 36 36 33 31 27 27 31 26 17 17 20 21 21 18 18 19 18 18 17 17 17 17 17 16 15 15 15 14
39 38 40 39 41 41 41 41 37 33 34 29 26 21 25 23 23 24 25 27 30 33 34 33 32 31 33 29 31 24 27 28 25 20 14 17 18 19 19 18 17 17 17 16 15 15 15 15 15 15 15 14 13 13
38 33 33 36 38 36 35 31 29 28 26 23 23 20 20 23 26 27 29 29 29 32 34 32 30 29 28 26 26 24 22 21 18 14 16 19 20 19 18 18 18 18 17 16 16 15 14 14 14 14 14 13 13 12
33 31 32 36 34 32 34 30 28 26 23 21 23 23 26 25 24 27 28 27 30 31 34 31 27 25 24 24 23 19 21 16 15 16 18 18 18 19 19 19 18 18 17 17 16 16 15 14 13 13 14 12 11 10
38 31 31 31 30 30 32 27 24 21 21 21 21 24 26 24 24 26 28 28 32 31 30 27 22 22 24 19 16 18 15 16 18 19 19 17 17 18 18 19 19 19 19 19 18 16 14 14 14 14 13 11 10 9
29 32 33 35 33 28 26 26 21 19 21 23 20 22 23 25 25 25 28 27 30 26 24 22 22 17 16 16 14 16 18 19 19 19 19 18 19 20 21 20 20 19 19 18 17 17 18 16 14 12 11 11 10 10
29 33 36 35 31 25 22 22 21 19 22 23 25 25 25 25 27 27 27 27 22 21 21 18 15 16 16 18 17 18 18 17 17 18 19 19 18 19 19 20 18 18 18 18 15 12 11 10 11 12 13 14 14 13
30 31 34 33 31 23 21 21 24 22 22 23 25 24 24 24 26 24 21 20 17 17 16 16 17 19 19 21 20 20 20 19 17 16 16 18 20 20 20 19 17 16 14 13 11 11 11 10 10 8 11 12 12 9
28 32 33 32 26 26 23 21 21 22 24 23 26 24 23 23 21 18 16 17 16 17 16 19 20 21 23 23 23 22 22 20 17 16 18 17 16 16 15 15 15 17 16 15 10 10 9 9 10 11 10 8 7 4
27 29 30 27 24 23 22 23 23 22 23 23 24 22 21 19 17 15 16 15 17 18 19 20 20 19 17 17 18 19 19 18 18 17 17 18 17 16 12 13 12 9 7 8 10 10 7 5 9 10 9 8 6 4
31 32 30 26 22 22 23 27 24 24 20 19 21 20 19 16 16 16 13 16 17 19 18 17 17 18 17 17 17 17 16 15 15 14 13 12 12 11 10 10 10 9 7 6 9 8 3 7 6 5 8 7 10 5
29 28 26 24 20 22 24 20 19 20 21 18 16 17 18 16 15 13 12 15 17 16 16 15 16 16 16 14 13 13 14 14 12 12 13 10 7 7 8 8 6 6 7 7 8 7 8 6 3 10 6 4 9 4
17 17 22 21 22 19 18 18 19 18 16 15 15 15 15 19 15 13 11 14 17 17 18 17 17 18 14 12 11 10 13 14 11 7 7 9 7 6 6 6 5 6 8 10 9 9 4 2 5 3 1 2 2 0
13 16 19 20 20 18 18 17 17 17 16 15 14 16 19 16 13 12 13 17 18 18 20 20 16 15 14 13 11 10 10 12 9 7 7 8 9 10 9 9 8 8 7 6 5 5 8 8 4 3 2 3 4 1
16 15 16 18 21 21 19 19 18 17 15 15 16 16 13 10 9 14 19 18 19 22 22 22 18 14 12 11 10 10 9 8 9 7 8 8 9 9 7 7 6 6 7 6 6 3 4 4 3 4 4 4 6 6
14 16 13 16 13 14 14 14 14 14 13 14 12 11 10 9 11 17 19 19 18 15 15 15 15 14 13 11 10 9 8 7 7 8 9 8 8 6 3 2 3 5 5 2 0 3 3 2 3 4 3 2 2 5
13 11 8 7 8 8 10 11 11 11 14 15 10 7 8 15 17 16 17 16 16 14 13 12 13 13 14 14 13 12 10 11 9 4 5 7 6 6 5 6 7 5 3 5 7 4 4 2 1 1 1 -0 0 1
13 11 7 6 6 6 11 14 12 12 11 12 14 13 12 14 18 18 17 17 15 14 13 13 13 12 10 8 7 6 6 5 6 7 6 5 5 6 5 4 4 4 4 3 2 2 4 -1 -0 2 4 3 2 -2
14 11 8 8 8 12 14 15 13 11 10 9 8 7 8 11 12 16 16 16 15 16 13 12 12 12 10 10 8 6 4 3 2 3 4 6 5 2 1 2 1 1 4 1 1 2 0 -1 -1 -1 -2 -2 -3 -3
12 8 6 5 9 14 17 12 11 11 11 10 9 9 11 10 8 11 13 13 16 15 14 11 8 7 7 6 5 6 5 4 4 3 3 4 3 3 3 5 3 3 0 -0 1 1 1 -1 -2 -2 -3 -4 -5 -5
10 9 8 8 9 9 13 13 11 12 13 12 12 14 11 10 6 9 15 14 15 11 9 9 8 7 7 6 5 4 2 1 1 1 0 -0 -2 -2 -1 -2 -3 -3 -2 -2 -1 -0 -0 -0 -1 -2 -4 -4 -4 -5

GFSWCAN_sfc_30mbdewp_078.txt.gz
Dewpoint
34 34 33 35 36 36 37 38 39 39 40 40 41 42 42 41 40 39 34 37 33 29 29 28 29 27 27 28 26 29 30 33 29 26 24 22 22 23 22 25 25 24 24 23 25 23 19 37 38 34 37 40 39 39
34 33 35 37 37 39 39 39 39 40 41 41 42 42 42 42 41 40 33 37 38 31 28 34 33 31 30 29 30 33 30 31 32 26 27 29 27 28 28 24 34 27 26 25 24 24 38 40 40 41 40 37 35 36
33 34 36 37 39 39 39 40 41 42 42 42 43 42 42 42 42 41 35 35 36 32 28 28 27 29 32 31 34 30 35 35 35 37 34 32 29 32 26 29 32 33 35 28 26 34 35 35 36 36 35 32 31 31
34 36 37 38 38 39 40 41 42 43 44 44 44 44 43 42 42 42 37 36 32 30 23 22 28 28 29 29 30 34 32 38 38 37 33 31 29 35 31 30 27 29 32 33 31 32 34 34 35 33 32 31 29 27
36 38 38 38 39 40 41 42 43 43 43 43 43 43 42 42 42 42 41 36 34 25 24 27 32 31 31 31 30 35 36 36 36 33 31 31 35 34 33 31 25 29 27 29 28 31 31 31 32 30 28 26 26 25
36 37 38 39 40 41 42 43 43 43 43 43 42 43 43 42 42 41 33 39 37 36 29 22 28 32 33 33 32 33 35 36 36 32 32 35 37 33 30 25 27 30 31 33 30 33 31 29 30 28 26 24 24 23
37 38 39 40 41 42 43 43 43 44 44 44 43 44 43 43 41 36 32 36 39 38 32 26 25 32 37 33 34 34 38 36 34 33 33 33 34 35 27 21 25 29 30 31 32 34 27 26 26 28 26 24 22 21
38 40 40 42 42 43 43 44 44 43 44 44 43 44 44 43 41 38 42 41 39 36 34 26 24 30 37 32 32 36 34 35 35 34 35 34 32 27 20 23 25 27 27 26 27 28 25 25 25 26 25 23 21 21
40 42 43 43 43 43 43 43 44 44 44 44 43 44 40 37 34 37 42 40 40 35 28 27 25 24 38 35 36 35 37 30 36 32 32 30 23 18 21 21 22 22 23 25 25 26 26 23 22 23 22 22 21 20
42 43 42 43 43 44 44 44 44 44 44 42 39 34 31 38 43 41 38 34 33 34 35 29 29 29 35 33 32 32 34 31 27 30 32 22 19 22 21 22 22 22 23 22 21 21 24 21 19 19 19 19 18 18
42 43 43 44 44 44 45 44 44 43 40 37 33 33 40 41 38 34 29 29 29 27 30 30 32 31 37 31 30 34 30 31 26 29 28 22 18 19 21 21 20 20 20 20 20 20 20 20 18 16 16 16 16 16
42 43 44 44 44 44 44 43 41 39 38 37 38 40 39 34 32 28 27 29 25 24 29 31 32 34 34 37 32 33 28 31 25 32 23 15 18 19 19 19 19 19 18 18 18 17 17 17 17 16 15 15 15 14
43 44 44 43 43 42 42 42 41 41 39 37 35 32 31 30 25 23 20 23 24 32 34 34 31 34 33 35 32 31 27 26 30 20 15 16 19 19 18 17 17 17 17 16 16 16 15 15 15 14 14 13 13 13
41 41 43 43 42 42 42 42 42 36 33 28 24 22 22 22 23 23 25 27 30 32 33 33 32 32 33 29 31 25 27 28 24 18 14 15 17 18 18 17 15 14 14 13 13 13 13 12 12 12 12 11 11 11
40 40 39 38 38 38 34 32 30 28 26 22 21 19 18 22 25 28 30 29 30 32 33 31 29 28 27 26 25 24 23 19 17 15 14 17 17 16 16 16 16 15 14 13 12 12 12 12 12 12 11 11 10 10
35 36 38 37 38 35 31 28 27 27 24 21 21 22 25 22 24 26 27 28 31 31 33 29 26 24 24 23 20 18 20 17 13 13 16 17 17 17 17 16 15 14 14 14 13 12 12 11 11 12 11 10 8 8
31 30 35 34 34 33 31 25 24 24 22 20 20 22 22 21 22 24 27 27 32 31 28 24 21 20 23 16 14 15 13 13 15 16 16 16 16 16 17 17 17 16 15 14 14 13 12 12 11 10 8 9 9 6
29 37 37 33 31 28 28 25 21 21 20 22 19 21 22 22 22 23 26 26 28 25 23 21 19 15 15 13 12 14 15 16 16 16 16 17 18 19 19 18 18 17 17 17 17 16 15 14 14 14 13 11 10 10
34 37 36 36 36 26 22 23 22 20 22 23 24 24 24 24 24 23 22 20 21 22 18 16 14 14 14 15 15 15 15 16 16 17 18 19 19 18 18 18 18 18 18 19 16 13 13 12 12 13 15 14 13 13
38 38 36 34 36 23 22 23 25 22 20 23 24 23 24 23 24 23 20 18 18 17 15 14 15 17 17 17 16 17 17 17 16 15 15 18 18 17 16 15 15 15 14 12 12 12 11 11 11 11 11 12 9 9
33 36 36 36 26 26 23 22 22 24 25 22 25 23 21 22 19 17 16 18 15 16 15 17 17 19 21 21 21 19 17 15 13 13 16 16 16 17 17 18 19 17 16 10 9 8 9 9 11 9 7 5 2 2
28 33 30 26 24 24 22 24 22 23 24 24 24 24 20 18 15 14 16 15 16 17 18 17 18 18 19 19 20 20 20 19 18 17 16 16 15 13 12 11 8 7 10 11 9 6 5 8 8 7 7 7 5 6
33 33 29 24 20 21 22 29 24 23 18 20 22 20 17 15 14 16 13 16 16 18 17 18 18 17 18 18 17 18 18 17 16 14 14 12 10 9 9 9 6 5 7 10 7 3 4 7 3 5 3 6 7 6
28 27 25 20 20 22 23 19 21 22 22 19 17 16 16 14 16 12 11 14 16 16 16 16 16 15 14 14 14 14 14 13 12 11 11 9 8 8 7 6 7 8 8 9 8 8 7 3 6 7 3 5 3 1
16 17 20 20 21 18 18 18 18 16 15 15 14 14 15 18 13 11 10 12 14 13 14 16 17 13 10 9 11 13 14 10 9 9 10 8 7 8 7 7 7 8 7 7 8 7 4 1 2 1 -0 1 2 1
12 15 18 19 20 17 17 16 16 16 15 14 14 17 19 13 10 9 12 14 15 15 16 17 15 12 11 11 10 10 11 11 8 6 9 10 10 6 5 5 5 6 6 4 4 4 5 5 4 3 3 3 4 2
13 14 18 19 20 21 18 17 17 15 14 14 16 16 9 7 7 13 17 16 18 19 20 18 15 13 11 10 8 9 10 9 7 8 9 7 6 6 6 6 5 6 4 2 2 3 3 2 2 3 2 2 4 4
14 14 13 11 9 11 12 11 11 12 12 13 11 9 8 6 9 15 16 16 15 15 15 14 13 12 10 8 7 6 6 7 7 7 7 7 3 1 1 2 3 5 4 2 0 1 1 -0 1 0 -1 -1 -1 -1
10 9 6 5 5 7 10 9 9 11 12 12 6 6 8 13 15 14 14 14 13 13 11 11 10 11 10 8 7 7 7 7 6 6 5 4 4 5 4 5 3 2 2 3 5 6 5 4 4 3 3 3 1 -0
11 8 4 5 5 7 9 10 9 10 11 12 13 12 11 13 16 16 14 12 10 10 10 11 9 8 7 6 3 2 2 2 4 4 4 3 3 4 2 2 0 1 1 -0 0 1 -0 -2 -2 -2 -2 -2 -2 -4
10 7 6 7 8 10 10 9 9 8 6 6 6 6 7 10 13 13 13 12 12 12 12 10 8 6 5 2 -1 -5 -5 1 1 3 3 2 0 -0 0 -0 -1 0 -2 -2 -1 1 1 -1 -3 -3 -4 -4 -5 -6
7 5 4 5 8 12 12 8 7 7 6 5 6 6 9 5 5 8 12 12 11 10 8 7 8 7 5 4 3 1 1 1 2 2 1 0 -0 -1 2 1 0 -1 -2 -2 -3 -2 -1 -2 -2 -3 -4 -4 -5 -6
6 6 6 7 9 9 12 10 8 8 8 7 9 10 7 4 4 7 11 11 10 9 7 5 4 4 3 3 2 2 -0 -2 -1 -0 -2 -3 -4 -3 -5 -8 -7 -7 -6 -6 -5 -5 -4 -4 -4 -5 -6 -6 -7 -8

GFSWCAN_sfc_30mbdewp_084.txt.gz
Dewpoint
32 33 34 38 35 35 36 36 35 35 36 37 38 40 40 40 41 41 37 35 33 28 26 28 29 26 25 24 23 23 22 22 28 25 24 24 22 22 24 22 21 21 23 21 23 21 17 36 35 30 35 34 32 31
32 34 35 36 36 36 34 35 36 37 38 39 39 40 40 41 41 41 35 37 35 31 26 31 33 33 30 29 27 28 28 29 30 28 28 24 23 26 26 20 27 25 28 27 26 26 33 33 33 34 34 32 33 32
33 35 37 35 35 34 34 36 37 38 38 39 40 40 40 41 41 40 36 37 36 32 29 28 25 26 31 32 31 28 30 33 32 34 30 30 26 30 25 24 26 23 30 26 30 29 28 30 31 30 30 29 30 31
33 35 36 34 33 33 34 37 38 38 39 40 41 43 42 42 42 41 36 37 34 29 24 22 27 26 28 30 32 32 33 36 35 36 31 28 26 33 29 25 22 24 26 24 28 31 30 28 29 29 28 28 27 27
34 36 34 33 33 34 36 38 38 39 40 41 42 43 43 42 42 42 38 37 35 28 21 24 28 28 31 29 31 32 32 31 31 27 30 27 32 33 30 27 20 25 23 22 23 29 28 26 27 28 25 24 23 23
35 34 34 33 34 37 37 38 39 40 41 42 43 43 43 43 41 40 33 38 36 34 30 21 25 27 30 31 29 29 31 32 32 31 32 31 35 33 27 21 23 26 28 29 27 30 28 27 26 26 23 22 20 20
33 33 33 35 36 36 37 39 39 40 42 43 43 42 42 43 41 36 32 35 37 37 30 24 23 27 35 33 32 33 34 33 33 33 31 32 31 30 24 19 23 25 28 29 29 31 26 26 23 22 20 20 19 18
33 32 33 35 36 37 39 39 40 41 42 43 42 41 43 44 40 37 39 39 38 35 33 24 23 26 35 31 31 35 32 34 34 33 33 32 29 27 19 22 23 23 26 26 26 26 25 24 22 21 20 19 17 16
32 32 35 37 38 38 39 40 41 42 43 42 42 43 42 39 36 38 41 39 39 34 26 25 21 22 34 33 33 33 33 28 31 30 31 30 20 17 20 20 20 20 20 21 23 21 20 19 18 18 18 18 17 16
32 35 37 38 38 39 41 42 42 43 43 42 40 35 30 35 42 40 37 32 32 32 33 24 26 25 31 31 28 30 32 25 27 31 28 21 16 21 20 20 19 19 20 20 21 18 19 17 17 16 16 17 16 15
34 36 37 38 40 41 42 43 43 42 43 38 33 32 38 42 36 33 29 28 29 25 27 28 28 26 35 29 26 31 29 30 25 28 27 20 15 18 20 18 18 18 19 18 19 18 17 17 16 15 14 15 14 13
37 39 40 41 42 43 43 43 42 41 38 37 38 39 38 34 31 27 25 28 24 20 26 27 29 30 33 34 30 31 28 29 24 29 23 18 16 18 18 17 17 17 17 17 17 16 16 15 15 14 13 12 11 10
39 41 42 43 43 43 43 43 43 41 41 38 35 32 30 30 24 21 20 23 22 24 28 31 29 31 33 33 31 30 26 25 27 21 19 14 17 18 17 16 16 16 15 14 14 13 13 12 12 11 10 9 9 8
43 43 43 44 44 44 44 44 43 40 36 32 29 23 25 23 23 22 21 21 25 30 31 33 31 30 32 30 30 25 25 27 20 19 16 14 17 17 17 15 13 12 11 11 10 10 10 9 9 8 8 7 8 8
40 39 40 41 43 43 44 42 39 34 31 26 24 21 20 22 25 28 29 29 31 33 33 31 30 31 27 25 24 24 23 20 19 18 12 15 16 15 13 12 11 10 10 10 9 9 9 9 9 9 7 5 4 3
39 38 38 38 37 36 35 34 32 30 25 22 21 21 23 23 25 27 28 28 31 32 33 30 25 23 23 23 21 20 19 18 15 11 12 15 14 13 12 12 11 10 10 9 9 9 9 9 9 9 7 7 7 5
37 36 38 38 37 35 31 29 28 25 22 20 19 20 20 20 22 24 26 27 30 32 28 22 20 20 20 17 17 15 16 12 11 13 14 13 13 13 12 11 11 11 10 10 10 10 10 9 9 9 7 7 8 8
36 39 37 35 34 31 28 26 23 22 19 20 18 20 20 19 22 22 23 25 28 24 22 20 20 20 18 17 14 11 11 11 13 14 13 13 13 12 13 12 12 12 12 12 11 11 11 11 10 10 8 8 7 7
36 37 38 37 33 30 23 22 22 19 20 21 21 21 20 20 21 21 21 21 21 20 16 14 14 14 14 11 11 11 13 13 13 14 14 13 14 14 14 14 13 13 14 15 15 14 14 14 14 13 14 12 10 9
37 36 37 33 28 23 21 22 24 20 19 21 22 21 20 20 21 17 18 18 18 16 14 13 13 14 13 13 12 14 14 16 15 14 14 15 15 16 15 16 15 16 16 15 13 11 10 10 10 11 10 10 9 9
36 36 35 31 26 24 23 23 23 23 22 20 21 20 19 19 16 15 14 16 14 14 13 14 16 16 17 17 17 17 17 16 13 13 14 14 15 16 15 15 15 13 12 10 9 9 10 9 9 7 5 3 -0 1
35 37 29 27 23 23 22 24 23 24 22 22 23 19 17 16 13 13 15 13 13 14 15 16 17 17 17 17 17 16 15 15 14 14 15 15 15 15 15 14 14 11 10 9 9 8 8 8 7 6 6 5 3 4
36 32 26 23 21 20 22 28 21 21 17 20 19 15 15 13 11 14 11 13 13 16 18 18 19 19 18 18 17 17 17 15 15 14 14 13 11 10 9 8 9 9 9 8 6 4 4 4 2 4 2 3 3 4
25 25 24 22 23 20 25 21 23 22 22 18 15 14 14 13 13 9 9 11 14 17 17 18 17 17 17 16 15 15 15 13 12 10 10 10 9 7 6 6 7 7 7 7 5 3 3 0 2 4 2 3 1 2
19 18 18 19 19 18 19 18 16 15 15 14 14 14 15 14 9 7 8 11 13 14 15 16 15 14 13 11 12 13 13 14 12 10 9 8 7 7 6 6 6 6 5 6 6 6 5 0 0 1 -0 -1 1 2
15 16 17 18 18 16 17 17 15 14 13 13 14 16 14 10 8 7 8 10 12 12 13 13 12 12 12 12 11 11 11 11 9 8 9 9 7 4 4 4 4 5 2 2 2 3 3 1 2 3 3 2 1 -0
13 14 16 15 16 17 14 14 14 12 12 13 14 13 9 9 7 9 11 11 13 12 12 12 12 12 11 10 10 9 8 8 8 7 5 5 5 4 4 3 4 5 2 1 1 1 2 2 1 0 0 -2 -2 -1
12 10 13 9 8 8 9 7 8 10 10 12 9 9 8 5 7 9 11 14 14 13 11 10 11 10 10 8 7 5 3 3 3 4 4 4 2 1 1 2 3 2 -0 -1 -1 -2 -1 -1 0 -0 -1 -1 -0 -3
7 6 5 4 5 6 5 5 6 8 10 7 5 5 6 8 9 9 13 13 13 11 9 7 5 4 3 2 1 2 4 4 1 -0 1 1 2 3 0 -1 0 -1 -3 1 1 0 -1 -1 -0 -0 -1 -3 -4 -9
7 5 4 3 3 3 5 5 7 7 8 8 10 8 6 7 10 12 12 11 12 11 7 5 4 5 4 4 4 4 0 -0 3 3 3 3 2 1 1 1 1 -1 -4 -2 -1 -1 -0 -3 -4 -5 -5 -5 -7 -7
6 5 5 4 3 6 7 6 6 5 3 4 3 3 4 8 10 10 8 8 7 6 5 4 2 1 2 3 3 5 5 2 -2 -2 -2 -1 0 0 -2 -2 -4 -6 -6 -4 -3 -2 -2 -3 -4 -4 -4 -4 -5 -8
3 3 3 3 5 8 7 5 6 6 6 6 5 1 1 2 4 6 7 8 7 6 4 4 4 4 -0 -3 -5 -4 -1 1 -1 -1 0 -0 -1 -3 -5 -6 -8 -7 -5 -5 -6 -5 -5 -5 -6 -7 -9 -10 -11 -11
4 3 3 6 7 6 7 4 3 5 5 6 7 3 1 1 4 5 6 6 8 7 5 3 1 0 -0 0 0 0 -1 -2 -3 -1 -2 -2 -4 -6 -10 -11 -11 -11 -9 -8 -9 -10 -11 -11 -11 -12 -11 -12 -12 -12

GFSWCAN_sfc_30mbdewp_090.txt.gz
Dewpoint
35 34 34 35 34 35 36 38 38 38 36 37 37 38 38 39 40 40 39 39 35 30 27 27 26 24 21 20 21 23 25 26 25 23 22 20 20 22 22 25 24 23 23 21 20 19 17 29 30 27 28 31 30 29
35 35 35 34 35 36 37 38 37 37 37 37 37 38 38 40 40 40 37 39 39 32 29 32 30 29 28 26 25 26 27 28 30 25 24 27 22 25 24 22 27 25 25 25 25 23 28 29 28 30 31 28 29 28
36 35 34 34 35 38 37 37 37 35 35 36 38 38 40 40 40 40 37 39 35 31 30 28 23 26 30 30 29 23 25 30 30 31 28 29 25 28 26 25 25 26 25 27 27 26 25 26 27 27 28 27 28 28
33 33 33 35 36 38 38 37 36 36 37 38 39 39 39 40 40 40 37 38 35 30 25 22 27 27 28 30 30 30 26 27 28 29 27 28 27 32 28 25 23 23 26 24 25 27 27 25 26 26 26 27 24 25
31 32 32 34 36 38 37 35 35 36 37 38 38 38 40 41 41 40 39 38 36 29 24 24 27 28 32 31 30 30 30 29 28 26 26 26 30 32 29 24 21 23 23 23 23 27 25 23 25 25 23 22 24 22
32 32 33 35 37 37 36 35 34 36 38 38 38 40 41 41 41 39 33 39 38 34 30 24 28 28 32 32 30 30 31 31 30 28 28 30 35 31 28 22 24 26 28 29 26 27 25 25 24 24 22 21 21 21
33 32 33 35 36 36 34 35 35 37 38 38 39 40 42 44 41 35 33 36 38 37 31 25 23 27 33 32 30 30 32 32 31 30 30 30 32 31 27 22 23 26 27 28 29 27 23 25 22 23 22 20 20 17
32 32 33 35 36 35 35 36 37 38 38 39 40 42 43 43 40 37 41 39 38 36 32 24 23 25 34 31 30 33 32 31 32 31 32 31 30 29 20 22 23 25 26 25 26 26 24 23 19 18 17 17 16 16
33 34 35 35 35 35 36 37 37 37 38 39 41 44 41 38 35 38 39 39 40 36 27 25 23 22 34 31 33 33 33 28 32 29 29 31 26 22 22 21 21 21 21 23 22 19 18 18 17 17 16 16 15 15
34 35 35 36 35 35 36 37 37 38 39 40 42 36 31 36 41 40 37 33 32 33 33 26 26 25 31 31 29 29 32 27 23 28 32 28 21 20 19 19 18 18 19 22 19 18 17 16 16 16 15 14 14 13
36 35 35 34 34 34 34 36 38 39 40 38 33 32 38 40 36 33 29 28 28 26 29 28 27 26 33 29 27 30 28 27 22 28 28 25 21 19 18 17 17 17 17 18 18 17 17 16 16 15 14 14 13 13
34 34 33 33 33 33 35 37 38 39 38 36 38 39 39 34 31 28 24 27 25 21 26 25 25 27 32 33 30 29 26 29 24 31 27 24 20 18 17 16 16 16 17 16 16 16 15 15 15 14 13 13 12 11
33 32 32 32 32 33 35 38 38 41 41 40 36 32 31 30 25 22 20 22 23 26 29 28 27 29 33 33 30 30 27 27 30 27 24 22 19 18 16 16 16 15 15 14 14 14 14 14 14 13 12 11 10 8
32 32 32 33 35 37 38 39 40 42 38 32 30 25 25 24 25 25 23 26 30 31 30 28 29 29 31 29 30 27 29 28 23 22 24 20 18 18 17 16 15 15 15 15 14 13 12 11 10 10 11 10 9 8
34 35 35 35 36 37 39 41 42 38 34 31 31 24 24 28 28 29 30 30 31 33 32 30 31 31 30 29 29 27 24 21 22 23 22 20 19 18 16 15 14 13 13 13 13 12 11 11 10 9 9 10 8 7
35 35 37 38 39 39 41 41 37 33 31 27 24 25 25 26 26 28 29 28 33 33 34 32 29 28 27 27 24 23 22 21 25 22 21 19 17 16 15 14 14 13 13 13 12 12 12 12 11 11 10 10 9 8
38 36 37 41 41 40 40 34 32 29 28 24 23 24 27 28 28 28 30 30 32 33 29 30 26 26 26 23 23 23 24 23 19 20 20 18 15 15 14 13 13 13 14 14 13 12 12 12 12 12 11 11 11 11
35 39 42 42 41 35 31 31 28 25 21 23 23 24 24 25 28 28 28 30 32 31 28 26 25 24 23 22 22 21 18 18 19 19 18 17 15 14 14 14 14 14 14 13 13 13 13 14 13 12 12 11 9 9
37 38 39 38 36 32 28 28 25 20 21 22 23 24 24 24 25 25 27 27 24 25 26 22 23 23 24 21 20 19 18 17 17 16 16 16 15 15 15 15 15 15 14 15 15 14 14 14 12 11 10 10 9 8
38 37 35 35 32 28 26 25 24 21 21 22 23 23 23 23 24 25 25 25 22 21 23 21 21 21 20 19 18 19 19 18 16 15 15 15 15 16 16 15 15 16 15 16 15 14 13 11 11 10 9 8 8 8
36 35 33 32 28 25 23 22 22 21 21 21 23 22 21 22 23 24 23 19 24 21 20 19 20 19 18 17 19 19 18 17 17 16 15 15 16 16 16 16 16 16 15 14 14 12 12 11 10 9 10 9 9 9
36 33 28 28 23 24 23 24 21 22 21 22 21 20 21 22 22 22 19 22 19 18 19 19 18 17 17 18 18 18 18 17 17 17 17 17 16 16 16 17 16 16 15 15 14 14 13 10 10 9 9 9 8 8
34 32 27 25 21 21 21 27 21 19 18 19 19 18 18 19 17 16 19 17 17 17 18 18 18 17 18 18 17 16 15 15 15 16 16 17 17 18 17 16 17 16 15 13 12 12 11 7 7 8 8 8 8 8
29 27 24 23 21 21 25 22 21 19 20 18 17 16 16 17 15 15 17 16 17 18 18 18 18 17 17 17 16 16 16 17 17 18 17 16 15 15 15 13 13 13 12 11 10 9 9 10 6 8 8 8 7 6
23 21 22 20 22 20 19 19 19 17 17 17 16 16 16 15 15 15 15 15 16 18 18 18 17 16 17 17 17 16 16 16 15 15 16 15 13 11 11 10 9 9 10 11 10 10 10 10 9 8 7 7 6 5
17 17 19 20 20 18 18 16 16 16 16 15 16 16 17 16 14 15 12 16 17 18 18 19 18 17 15 15 15 15 15 15 15 15 12 12 11 12 10 9 9 10 9 11 10 9 7 6 6 5 5 4 3 3
15 16 16 15 18 18 17 17 16 16 15 15 16 16 16 15 15 13 13 14 16 19 20 19 18 17 15 15 15 14 14 14 14 12 11 10 9 9 11 11 9 10 9 8 7 6 5 4 4 3 3 3 3 3
13 14 15 12 11 11 12 12 13 13 13 14 16 14 14 13 12 12 13 15 17 18 17 17 18 17 16 15 13 12 11 10 10 9 9 8 8 9 9 9 8 6 7 7 6 5 5 4 4 4 3 2 2 2
10 9 9 6 7 7 8 8 9 9 10 12 12 9 8 8 9 10 12 14 17 16 15 13 12 12 11 11 11 12 11 10 7 4 3 5 6 6 6 7 7 6 6 6 5 5 5 4 4 3 2 2 1 1
8 9 6 4 4 6 7 8 9 9 9 10 9 7 7 8 10 12 13 15 16 17 15 13 12 12 11 10 8 7 8 8 9 7 6 6 8 8 6 6 6 5 5 4 4 3 3 3 3 2 1 0 0 -1
8 8 6 6 6 8 9 9 9 9 9 9 8 9 8 9 11 11 11 12 12 12 12 12 12 12 11 10 9 8 8 7 5 6 8 8 7 7 6 5 4 3 3 2 2 2 1 1 0 -1 -2 -4 -4 -5
7 6 5 5 6 9 9 9 9 9 9 9 8 8 8 10 9 9 8 11 12 13 12 12 10 10 10 10 9 8 8 7 5 6 6 6 5 4 3 2 1 2 1 -0 -1 -1 -3 -4 -4 -4 -4 -5 -5 -6
6 6 7 7 7 7 8 7 6 7 8 8 8 6 6 8 8 7 8 8 12 13 11 10 8 6 5 6 6 5 5 5 5 4 3 3 2 2 1 -1 -1 -1 -1 -0 -1 -2 -4 -5 -5 -6 -6 -7 -7 -7

GFSWCAN_sfc_30mbdewp_096.txt.gz
Dewpoint
40 41 41 39 38 38 38 37 37 39 38 37 37 38 39 39 39 39 38 37 34 31 27 27 28 24 23 21 20 23 26 27 26 24 21 22 23 23 24 23 24 22 25 23 24 23 19 26 25 22 27 31 30 27
40 40 39 39 38 37 37 37 37 38 39 38 38 39 39 39 39 40 37 39 38 33 29 33 33 31 29 27 26 25 27 28 29 24 24 26 25 26 29 24 26 23 25 25 23 23 28 27 28 30 29 27 28 27
40 39 39 39 38 37 37 37 38 38 38 38 38 38 39 39 39 39 39 40 37 33 30 29 27 29 26 25 28 27 30 26 27 27 27 28 29 27 25 25 29 28 27 27 26 25 24 26 27 28 27 26 27 28
39 38 38 38 37 37 38 39 39 39 38 38 38 37 38 39 40 40 39 38 35 30 25 27 24 26 27 28 27 29 28 29 29 28 26 28 29 29 28 29 24 24 27 26 25 26 25 24 26 27 27 27 26 27
38 38 38 37 37 38 38 38 38 38 38 37 37 37 38 40 40 39 39 39 37 33 27 25 26 26 27 30 29 28 28 27 28 26 27 28 34 30 31 28 23 25 23 23 22 28 24 23 26 26 24 25 26 24
37 37 37 37 38 38 38 38 38 37 37 37 38 38 39 39 40 39 35 38 38 35 29 25 27 27 27 30 29 27 27 27 27 25 27 28 35 29 28 24 25 27 30 31 26 27 25 26 25 24 23 24 24 23
37 37 37 38 38 38 38 38 37 36 37 37 38 38 38 40 40 37 34 39 38 36 31 26 24 27 26 27 27 26 27 26 28 26 27 28 33 31 29 24 25 28 30 31 31 27 26 27 23 23 22 22 22 21
37 36 36 36 38 38 38 38 36 36 36 38 38 39 40 41 39 37 40 39 38 33 31 24 23 26 28 28 28 28 28 29 28 27 28 28 33 31 22 25 27 28 28 29 28 27 24 22 19 19 19 18 18 17
36 35 35 36 36 38 39 37 36 36 37 38 38 40 40 38 35 37 39 38 40 37 29 27 23 28 30 28 30 31 30 28 31 29 29 28 29 23 25 25 26 28 28 27 23 20 20 18 18 18 18 17 17 17
36 35 35 35 36 37 37 37 36 38 38 38 39 35 31 35 40 39 38 34 34 33 31 27 26 25 28 29 29 29 29 24 23 27 29 28 23 23 26 27 26 22 24 21 19 19 18 17 17 17 17 17 16 15
35 35 35 36 36 36 36 37 37 37 37 37 33 31 39 41 38 36 29 29 28 26 26 26 26 26 28 27 27 28 28 27 21 28 27 28 24 21 20 20 19 20 22 21 20 20 19 18 17 17 17 16 15 12
33 33 34 35 35 36 36 37 38 36 36 37 37 39 38 34 32 29 25 26 25 20 29 27 27 26 31 31 29 28 24 27 22 30 28 25 23 21 19 18 19 19 19 19 19 19 18 18 17 17 16 14 12 11
34 34 34 35 35 35 36 36 37 36 40 39 35 32 30 31 25 23 20 21 23 25 31 29 27 28 31 29 29 28 24 24 30 28 25 25 21 20 19 18 18 18 18 18 18 18 18 17 17 15 13 13 12 12
34 35 36 36 36 36 36 36 36 37 36 31 30 26 26 25 25 24 24 26 30 33 31 29 28 29 31 27 28 24 28 28 24 23 25 23 22 21 20 18 18 20 20 20 18 17 16 15 14 13 13 12 11 10
34 35 36 36 36 35 35 36 37 38 32 30 30 25 26 31 33 32 34 33 33 33 31 30 32 30 28 28 29 28 26 22 23 26 27 24 23 22 21 21 20 19 18 17 16 15 14 14 13 13 13 13 11 11
34 34 33 35 35 34 35 36 37 36 32 31 31 29 32 29 29 29 31 30 34 32 33 32 29 28 27 28 26 23 24 21 26 26 26 24 23 22 21 19 18 18 18 17 16 15 15 14 14 14 14 13 12 12
34 30 32 34 35 35 36 35 33 31 30 30 29 30 31 32 32 30 32 31 34 33 29 28 26 23 30 24 25 26 27 27 26 25 25 23 22 21 19 18 19 19 18 18 17 16 15 16 15 14 14 14 13 14
27 28 33 35 34 35 33 33 31 30 27 30 27 28 31 31 31 31 33 34 33 32 29 28 30 27 26 26 26 28 26 27 26 25 23 23 21 20 19 18 19 19 18 17 16 16 16 15 16 18 13 13 11 12
28 32 35 35 37 34 31 30 31 27 27 28 29 29 30 30 31 33 33 34 33 32 32 28 27 25 28 30 28 27 26 24 22 22 22 21 20 20 19 19 19 18 17 16 16 15 16 17 15 11 9 8 10 10
34 35 36 36 33 32 29 29 33 25 24 26 28 27 28 28 28 30 31 30 29 31 29 26 28 30 29 27 29 28 27 24 21 19 19 20 20 20 19 18 18 18 17 17 19 18 14 12 10 10 12 9 11 13
35 35 37 36 34 33 30 26 25 24 24 26 28 26 25 26 26 27 27 29 28 29 26 31 29 26 26 26 27 27 25 22 21 19 18 19 20 19 19 19 18 17 18 18 17 16 13 13 13 11 13 13 14 13
33 37 33 36 31 31 27 25 24 24 24 24 25 25 24 25 24 27 28 27 28 30 29 29 27 23 23 24 24 24 23 23 24 22 21 20 20 19 20 20 19 20 21 20 17 18 15 14 13 12 12 14 12 11
38 37 33 32 28 28 25 27 23 23 22 23 24 23 24 24 27 26 24 26 29 28 26 25 23 22 23 23 23 22 22 21 21 21 20 21 21 22 21 21 22 21 19 16 14 15 16 11 10 11 12 12 12 12
35 31 29 28 28 23 27 25 22 21 22 21 21 20 22 23 23 23 22 24 27 25 23 22 22 21 21 20 20 20 21 22 22 22 24 23 23 21 21 20 20 18 16 16 13 13 14 14 12 11 12 11 10 10
28 25 28 24 25 23 21 20 21 20 20 21 21 20 22 22 21 21 21 26 24 24 23 22 22 21 21 21 20 20 22 22 22 23 22 20 20 19 17 15 14 13 15 16 14 14 14 14 12 11 9 9 8 8
22 23 24 22 23 22 21 20 20 20 20 20 21 22 23 22 21 20 22 25 23 24 24 24 23 22 22 21 20 20 21 22 21 21 20 19 18 18 16 13 13 12 12 16 15 13 12 11 9 7 7 6 6 6
20 20 20 21 23 23 23 23 22 22 20 20 21 21 22 20 20 21 20 23 25 25 25 27 25 24 22 20 20 21 21 21 21 18 17 17 18 19 17 15 15 16 15 14 13 11 10 9 8 6 6 6 7 7
19 21 18 20 21 22 22 21 20 20 21 22 22 20 20 21 19 18 19 20 27 25 28 28 26 24 23 22 21 20 19 18 17 16 16 15 16 16 16 15 13 13 13 12 11 9 9 8 7 7 6 6 6 6
18 20 17 17 18 18 18 18 19 17 15 21 23 20 16 14 17 18 18 23 26 25 23 23 23 23 21 20 20 19 19 17 15 13 13 12 12 12 13 12 11 11 10 8 7 8 7 7 7 7 5 5 6 6
16 20 16 14 14 15 15 16 16 16 15 17 14 12 13 14 14 17 18 19 21 22 22 21 21 19 18 18 19 20 21 19 17 14 13 13 13 13 13 11 10 10 10 9 8 7 4 7 6 7 7 6 4 4
16 18 16 16 14 15 14 15 15 16 17 17 21 17 12 12 15 17 19 22 26 23 20 19 20 20 19 18 15 14 13 14 15 17 16 14 13 13 12 11 10 9 8 7 6 6 3 3 4 4 3 2 1 1
18 16 14 12 11 13 15 17 17 16 15 15 14 14 14 16 12 14 16 19 21 20 21 21 20 20 21 19 18 16 14 13 13 13 13 13 12 10 9 8 8 7 5 5 4 4 2 1 1 1 1 1 0 -0
15 16 14 12 11 12 13 15 14 13 15 14 14 15 18 17 11 13 16 18 22 21 21 19 18 18 17 15 14 14 13 12 11 10 9 9 8 8 8 7 6 5 4 5 4 3 2 0 0 -0 0 0 -2 -3

GFSWCAN_sfc_30mbdewp_099.txt.gz
Dewpoint
42 42 42 42 39 39 38 39 38 37 39 39 39 39 39 39 40 39 39 38 34 28 30 29 31 28 27 26 24 25 27 28 26 24 23 23 27 28 28 25 26 22 23 21 22 18 15 25 23 19 26 28 27 26
42 41 42 41 39 39 39 38 38 39 39 38 39 39 39 39 39 40 37 39 39 34 30 33 32 33 32 29 27 28 33 28 28 25 25 27 27 28 28 23 26 21 27 22 23 20 26 26 25 27 27 26 26 26
41 40 40 39 39 38 38 38 39 39 39 39 40 39 39 39 40 39 39 38 35 32 30 31 31 33 35 31 29 27 33 28 28 29 29 28 28 29 24 24 24 24 27 24 23 24 24 26 25 26 26 26 26 26
40 40 39 39 39 38 38 38 39 38 39 39 39 39 39 39 39 39 37 39 37 33 25 29 28 26 28 28 28 30 29 29 31 31 28 27 29 31 29 25 22 24 25 25 24 24 24 24 25 26 26 26 25 26
39 39 39 38 38 38 38 38 39 39 38 38 38 38 38 39 40 40 39 40 40 35 26 26 28 29 28 28 28 28 28 29 28 25 26 27 32 32 31 25 22 25 23 23 21 25 22 23 26 26 25 25 26 24
38 39 39 38 38 37 38 39 38 38 39 38 37 37 39 39 40 39 33 39 40 38 30 24 29 29 28 29 30 29 29 28 28 26 27 30 34 30 25 20 26 29 29 30 25 25 23 25 26 25 25 25 26 24
38 39 38 38 39 38 39 39 38 38 38 38 38 39 39 40 40 36 34 38 41 36 30 28 24 30 26 29 29 28 28 26 29 27 27 29 32 31 27 21 25 29 30 29 28 25 24 26 23 25 25 24 23 21
37 38 38 38 39 39 39 39 38 38 38 38 38 39 40 40 38 36 39 40 39 33 33 25 21 27 28 28 28 31 29 29 27 28 30 29 32 30 21 25 27 28 29 28 28 26 25 25 26 23 20 19 18 18
37 37 38 38 38 39 39 38 37 37 37 38 38 40 39 37 34 35 39 39 41 36 29 26 21 24 33 28 30 31 30 25 30 29 29 29 31 21 24 25 27 28 28 28 26 21 20 19 19 19 18 18 19 18
36 37 37 37 37 37 38 38 37 37 38 38 38 34 30 35 41 39 38 33 34 34 34 26 27 25 30 29 28 29 31 27 26 28 30 28 22 26 27 28 28 29 26 26 20 19 19 18 18 17 17 16 15 13
36 36 36 36 37 37 37 37 37 38 37 36 33 32 38 42 38 35 28 28 29 25 28 25 26 26 30 26 25 29 27 27 22 27 26 28 21 22 27 27 22 23 23 21 21 21 19 18 18 17 15 13 11 9
35 35 35 35 35 37 37 38 38 35 36 35 37 39 38 34 31 28 24 26 27 21 27 26 26 27 30 33 28 29 22 26 22 29 26 24 22 20 22 20 20 20 20 20 20 19 19 18 17 16 13 11 10 10
35 35 34 36 36 36 37 38 37 37 40 39 35 31 30 30 25 22 20 21 22 25 30 28 26 29 31 30 27 27 22 21 30 26 24 24 22 20 20 19 19 20 20 19 18 18 17 16 14 12 10 11 11 10
35 35 35 36 36 36 37 37 37 38 35 31 29 24 25 23 23 24 24 24 30 31 28 27 26 28 29 27 25 21 25 27 23 23 24 22 21 20 20 20 21 19 18 17 16 15 13 12 11 11 10 9 8 6
35 35 35 36 36 36 37 37 38 37 32 28 30 24 25 30 31 32 33 32 32 33 28 28 31 30 27 25 27 25 26 19 22 25 25 24 21 21 21 20 18 17 15 14 13 12 11 11 11 12 11 9 9 8
35 34 34 36 36 36 37 37 37 35 32 29 30 29 32 28 28 30 31 30 33 30 31 32 28 27 26 27 26 23 22 21 25 25 25 23 21 21 19 18 17 16 15 14 13 13 13 11 11 12 12 10 10 9
33 34 36 36 36 36 36 33 34 31 29 29 29 30 31 32 30 29 30 28 32 32 29 28 23 20 29 23 20 26 26 26 25 25 25 23 21 19 18 18 18 18 16 15 15 13 12 14 13 13 11 11 11 12
28 35 36 35 35 35 34 34 31 30 26 30 27 28 31 31 31 30 30 31 33 32 29 27 30 26 23 24 25 27 26 26 26 24 23 22 19 18 18 19 19 18 17 16 15 15 15 13 14 14 15 16 14 15
30 34 35 35 34 33 28 29 30 27 28 29 29 30 30 30 32 33 32 33 33 32 31 30 27 23 25 29 28 27 25 23 22 22 21 21 19 19 19 19 19 19 17 15 16 16 15 16 18 18 16 15 13 14
32 34 36 35 36 31 28 29 33 29 24 26 29 27 28 28 29 28 31 30 30 31 28 25 26 29 29 28 28 28 25 23 20 19 19 20 20 20 19 19 20 18 17 17 17 19 20 16 12 13 11 9 12 13
35 35 35 35 32 33 31 30 29 29 27 27 28 27 26 26 26 26 27 30 28 28 27 30 29 26 26 27 29 27 24 21 19 18 17 19 20 20 19 19 19 18 18 17 18 16 15 15 15 14 12 14 13 11
34 36 35 33 31 30 29 32 29 26 25 26 26 26 24 23 24 25 29 28 28 28 30 29 26 23 24 26 26 25 23 22 22 20 19 20 20 19 19 21 18 18 19 18 21 17 15 14 12 12 13 13 11 11
35 34 31 32 28 27 26 32 27 24 22 24 25 24 23 25 28 28 24 25 27 29 27 26 24 24 25 24 24 24 24 24 21 20 20 20 20 20 23 20 20 23 22 19 19 17 13 10 9 10 11 10 11 10
36 31 29 27 26 23 28 26 26 24 24 23 23 21 23 25 26 24 22 23 28 26 23 23 24 23 23 23 22 23 23 23 22 21 21 22 22 23 22 22 23 19 19 15 16 15 14 12 10 9 10 11 10 9
28 26 28 24 26 24 23 23 22 21 20 21 21 21 24 23 21 20 20 25 25 24 22 24 23 22 21 21 21 21 24 22 22 24 25 24 22 21 20 17 15 16 16 14 14 13 13 13 11 9 8 7 6 5
22 24 24 24 23 22 21 20 20 21 21 21 22 24 22 21 19 19 22 26 26 26 24 25 24 23 22 21 21 22 22 24 23 22 22 22 20 18 15 12 11 11 15 16 15 13 14 11 7 6 5 6 5 4
20 21 22 22 25 25 24 23 23 21 20 19 24 22 21 18 19 20 22 22 26 26 26 27 26 24 23 21 23 23 23 22 21 19 19 18 17 18 15 13 14 15 14 12 11 9 8 7 6 6 5 5 6 5
20 22 19 22 23 23 23 23 22 21 21 24 22 20 19 19 18 18 20 22 27 27 28 30 30 26 22 20 19 18 17 17 16 15 15 14 14 12 12 13 13 12 11 9 8 8 7 6 6 6 5 4 4 5
20 22 20 20 20 19 20 21 21 18 17 21 22 20 15 16 18 18 20 23 28 26 22 21 21 21 20 20 19 18 17 16 13 12 11 10 10 11 11 11 9 8 6 8 9 6 6 6 4 2 2 3 4 6
18 23 18 16 16 16 16 18 17 16 17 18 15 13 14 14 16 19 20 22 24 22 22 21 21 19 18 17 18 17 18 18 15 12 10 10 10 13 11 10 10 10 8 7 5 4 7 6 7 6 5 3 1 0
19 22 19 18 14 16 16 16 17 18 18 19 21 14 12 13 14 16 17 18 22 22 21 20 20 20 19 18 15 14 13 15 15 15 14 13 13 12 11 10 9 7 7 6 4 1 1 2 2 1 -0 0 -1 -2
20 19 15 12 11 16 17 17 16 17 15 16 15 14 14 15 12 15 17 17 21 19 19 20 19 19 19 18 16 14 14 14 14 14 13 11 10 9 9 8 7 5 5 4 3 1 0 -0 -1 -1 -0 -1 -4 -5
18 17 14 12 11 12 15 17 16 15 17 16 14 13 16 15 10 13 17 19 19 21 19 17 17 16 15 15 13 13 12 12 12 11 9 9 8 8 7 6 5 5 5 3 2 1 -0 -1 -1 -1 -4 -6 -8 -10

GFSWCAN_sfc_30mbdewp_102.txt.gz
Dewpoint
40 39 40 40 39 39 39 40 39 39 40 40 39 39 40 40 40 38 38 37 31 27 27 30 32 25 24 26 23 24 25 26 26 22 22 23 25 27 25 25 26 22 22 19 19 15 14 24 20 18 24 26 25 23
43 42 40 39 40 40 39 39 39 40 40 40 40 40 40 39 40 40 36 39 37 30 27 34 31 30 29 29 27 28 31 27 28 25 25 26 26 27 26 20 27 20 25 21 21 18 24 25 23 26 27 25 25 22
42 42 42 40 39 40 40 39 39 39 39 40 40 40 40 39 40 40 39 36 34 31 26 29 28 33 36 34 31 27 32 28 28 30 30 28 27 29 24 22 21 23 27 21 20 22 23 25 25 25 26 25 25 24
41 42 41 40 39 39 39 39 40 40 40 40 40 39 39 39 39 39 35 38 36 33 24 25 31 27 30 32 29 29 29 29 30 31 28 27 27 31 28 23 20 23 25 23 21 23 23 24 25 25 25 25 24 25
41 40 40 39 39 39 39 39 39 40 40 39 39 39 39 39 40 39 38 38 39 32 25 25 29 30 27 27 27 28 28 28 27 24 24 27 32 30 28 22 21 26 23 22 19 24 22 22 25 25 24 24 23 22
40 40 40 39 39 39 39 39 40 39 40 39 37 38 39 40 40 36 29 38 40 38 29 22 28 27 28 29 30 30 29 29 28 26 25 29 34 30 24 19 25 27 27 28 23 25 24 24 25 25 24 24 23 22
39 39 39 38 38 38 39 39 39 39 39 38 38 39 40 40 39 36 32 38 41 37 28 25 22 29 31 29 30 29 29 27 29 28 27 29 31 28 23 18 25 29 26 25 24 23 22 23 22 25 23 23 22 22
39 39 38 38 38 38 39 39 39 39 38 39 39 40 40 40 37 35 38 40 40 33 33 23 21 25 32 27 26 31 28 29 27 26 29 30 30 23 19 24 27 28 28 28 27 26 23 24 24 21 19 18 17 17
38 39 39 39 39 39 39 38 38 38 38 39 40 40 36 35 32 33 38 40 40 36 27 25 20 23 32 29 30 30 29 23 28 27 28 29 27 20 22 24 25 27 27 24 23 24 25 24 20 18 19 18 17 16
37 38 38 39 39 39 39 38 38 38 39 39 38 32 29 33 38 38 35 31 32 34 32 25 26 24 33 28 27 28 29 27 26 27 30 25 21 26 28 28 29 29 29 29 21 20 21 19 19 18 17 15 13 12
37 38 38 38 38 39 38 38 38 38 38 35 33 31 38 40 38 34 28 27 26 23 26 25 25 24 29 26 24 29 26 26 23 26 26 25 20 23 27 27 28 27 23 24 22 21 20 18 17 15 14 12 10 7
35 36 36 36 37 37 38 38 38 35 34 35 37 39 37 33 30 25 23 25 27 20 26 24 25 27 28 32 27 28 22 25 21 31 26 24 22 25 26 25 23 21 21 20 20 19 19 18 16 14 12 10 9 7
36 35 34 35 37 37 38 38 36 39 39 38 34 31 30 29 23 21 19 21 22 23 28 27 25 28 30 29 25 26 20 19 31 26 24 23 21 22 21 20 20 20 19 19 18 18 17 16 14 11 7 7 8 7
36 35 35 35 37 37 38 37 39 38 36 31 29 23 24 22 23 21 22 20 24 29 28 26 25 27 27 25 23 19 21 28 23 21 23 21 20 20 20 21 19 18 17 17 15 14 13 10 7 8 8 8 7 7
36 36 35 36 36 37 37 38 37 36 32 28 29 23 23 26 29 31 33 30 32 28 26 28 30 29 27 24 25 23 25 20 21 22 24 23 21 21 20 19 17 16 15 14 13 11 9 8 8 8 7 6 3 3
36 36 34 36 36 36 38 35 35 35 32 29 29 28 29 26 27 29 29 30 31 29 30 30 27 26 24 25 24 22 22 20 23 25 24 22 20 19 19 18 17 15 13 12 11 9 9 9 8 8 8 7 7 5
34 33 35 36 36 37 34 32 32 29 27 27 28 30 30 30 27 28 30 29 31 28 27 28 22 19 28 24 21 25 23 25 25 24 23 22 19 18 17 16 15 14 13 12 11 11 9 9 10 11 8 9 9 10
31 36 35 36 36 32 31 31 30 29 24 26 26 27 30 31 31 29 28 29 30 31 29 26 29 25 21 24 22 26 26 25 25 24 23 21 18 17 17 16 16 14 13 13 12 11 12 13 11 11 12 13 11 11
36 37 38 35 31 27 24 27 30 25 27 27 28 30 30 30 32 31 30 32 32 32 30 29 26 21 23 29 28 27 25 23 22 21 21 20 18 17 17 17 16 15 14 14 13 15 15 13 13 15 16 18 16 15
36 37 36 35 35 29 26 27 31 28 23 25 28 26 28 27 28 28 29 29 29 29 27 23 23 27 29 27 28 27 24 21 20 18 18 19 18 18 18 18 18 17 16 16 16 16 15 15 17 13 13 12 13 13
35 35 35 34 33 32 30 28 27 29 27 26 28 27 25 26 25 26 26 29 27 27 26 27 28 27 26 27 28 25 23 21 19 17 17 17 19 18 19 20 19 17 16 15 15 17 19 18 15 11 11 12 11 11
36 36 32 32 29 29 27 31 30 26 26 27 27 26 24 23 24 25 29 27 26 25 27 28 28 25 25 27 26 24 23 22 20 19 19 19 19 19 19 20 18 16 15 15 16 17 14 16 14 13 13 12 10 10
35 34 31 30 26 25 24 32 27 25 22 25 26 24 23 24 25 29 24 25 24 27 27 27 26 25 25 26 25 24 23 21 19 19 19 19 19 18 19 19 17 15 16 18 20 16 13 12 11 11 10 9 9 8
34 27 27 24 25 22 27 26 28 27 25 24 23 21 22 24 27 24 21 22 24 25 25 24 24 24 24 24 23 23 24 22 20 19 20 20 18 20 21 20 19 20 21 19 18 13 10 9 9 8 8 9 9 7
24 21 27 24 26 23 22 23 24 23 20 21 22 22 24 24 21 19 19 20 25 23 22 23 23 23 21 21 21 23 23 22 20 19 21 21 21 21 20 18 17 17 17 15 13 12 10 9 9 8 6 5 6 4
22 24 23 23 22 21 21 20 21 20 21 20 21 23 21 20 18 18 20 24 25 24 24 23 22 21 21 21 22 23 22 23 22 21 22 23 21 18 16 15 14 14 14 13 12 12 11 9 7 6 5 5 4 4
20 20 23 25 23 24 21 21 21 20 19 19 23 21 20 17 17 18 21 22 23 25 26 26 25 23 22 22 23 22 22 22 21 18 17 17 17 16 15 13 12 13 10 11 11 12 11 7 5 5 5 4 4 4
21 21 20 22 24 23 22 22 21 20 19 22 21 19 18 18 17 16 18 21 23 25 26 27 27 23 22 21 20 19 17 16 15 14 13 12 12 11 12 12 12 10 8 7 6 6 5 5 5 4 4 4 4 3
18 22 22 20 21 21 20 21 21 18 18 20 19 18 15 14 15 16 18 20 24 22 21 20 19 19 19 18 18 18 17 17 16 15 13 10 10 10 8 8 7 7 7 7 8 6 5 4 2 0 2 4 3 -0
19 22 17 17 18 17 15 16 15 14 16 15 14 14 13 13 16 16 18 20 20 19 19 19 19 18 17 16 15 15 16 16 15 15 12 10 8 9 6 4 4 4 4 5 5 6 7 5 5 2 -0 -2 -3 -4
21 22 18 17 14 14 16 17 16 16 17 17 15 11 10 12 13 15 16 17 20 20 19 18 18 19 17 15 15 15 14 14 14 12 11 11 10 9 8 8 6 6 5 4 1 1 0 -1 -1 -1 -2 -4 -6 -8
19 19 15 11 11 15 17 15 15 15 15 14 13 12 11 11 9 12 15 17 19 18 18 18 17 16 16 16 15 15 14 13 13 12 11 11 10 9 7 6 5 4 1 0 -0 -1 -1 -2 -2 -4 -6 -8 -10 -12
18 14 13 11 10 11 13 15 16 14 14 14 12 10 11 10 8 11 15 15 16 19 17 15 15 15 14 13 13 12 12 11 11 11 10 9 8 7 5 4 3 2 1 -0 -1 -1 -2 -3 -5 -7 -10 -12 -13 -13

GFSWCAN_sfc_30mbdewp_105.txt.gz
Dewpoint
39 39 39 39 39 39 40 40 39 40 40 39 39 40 40 41 40 37 36 37 29 25 27 31 30 23 22 25 17 23 24 25 26 21 23 23 24 26 25 25 24 21 21 18 18 16 15 22 20 18 23 25 22 21
38 39 39 39 40 41 40 40 40 41 40 40 41 40 40 41 40 38 34 37 34 26 28 33 31 29 26 26 26 30 25 27 27 25 26 26 25 26 25 17 25 19 23 19 19 17 22 24 23 26 26 23 22 20
39 40 40 40 40 40 40 40 40 40 41 41 41 39 40 41 41 39 35 36 32 25 26 29 28 34 34 31 31 27 31 29 27 30 29 27 26 28 23 21 21 23 26 19 19 21 23 23 24 24 24 23 24 23
41 40 40 40 40 40 39 40 40 40 40 40 40 40 39 40 40 37 36 37 34 29 24 27 29 28 30 34 32 29 29 29 30 31 28 28 26 32 26 22 20 22 23 21 19 21 22 23 24 24 24 24 23 23
42 41 38 39 40 40 40 40 40 40 40 39 39 39 39 39 39 38 37 38 38 27 22 22 28 30 29 30 28 29 29 28 27 24 24 28 31 30 25 21 19 26 23 21 18 20 20 22 25 24 23 22 22 21
41 40 40 39 40 40 40 40 40 40 40 39 38 38 40 40 38 32 30 38 39 36 25 21 27 28 28 28 28 29 29 28 28 26 25 28 34 29 22 19 25 25 27 26 22 25 23 24 25 25 23 22 22 21
40 39 39 39 39 39 39 40 40 40 39 39 38 40 40 39 39 34 31 38 41 36 27 21 22 27 31 29 30 29 29 27 28 28 26 30 31 26 21 18 25 24 24 24 24 22 21 23 21 24 23 24 21 18
40 39 39 39 39 39 39 39 39 39 39 39 40 40 40 38 36 33 37 41 37 33 30 21 20 27 33 26 25 31 27 29 27 25 28 30 30 21 20 23 26 26 24 23 24 26 22 24 23 22 21 18 16 16
39 39 38 38 39 39 39 39 39 39 39 40 41 38 34 33 30 34 39 38 38 33 25 23 19 23 31 29 29 29 28 24 27 26 27 30 26 21 20 24 25 25 24 24 23 23 23 21 20 18 18 17 16 14
39 39 39 38 38 39 39 39 39 39 40 39 34 29 27 32 38 39 32 29 29 33 30 23 26 23 32 27 26 28 28 26 23 27 29 25 22 25 24 25 26 27 23 23 23 22 23 19 18 19 17 16 14 13
39 39 39 38 38 38 39 38 38 39 37 34 31 31 38 41 36 32 27 24 25 21 26 25 24 23 29 26 23 28 26 26 23 26 28 24 20 23 28 28 30 30 28 25 22 23 21 20 18 16 14 12 9 8
36 37 38 39 38 38 38 38 37 34 34 35 37 38 37 33 30 23 22 24 25 20 24 23 24 25 27 32 27 28 22 24 19 31 27 23 22 25 26 26 27 23 23 23 21 20 19 18 16 14 12 9 6 6
36 35 35 38 37 37 39 38 37 39 40 38 34 31 29 29 21 19 17 21 23 23 26 27 25 27 29 27 25 24 19 18 29 26 22 22 23 25 24 23 22 21 21 20 19 18 17 15 14 12 8 5 3 2
36 35 35 37 37 37 37 38 39 38 36 31 27 23 23 21 22 20 21 20 23 26 27 25 26 26 27 23 22 18 21 27 22 19 21 21 23 22 21 21 19 19 18 18 16 15 14 12 8 5 4 5 4 5
36 36 36 37 37 37 39 37 36 36 31 28 28 21 22 24 26 28 31 30 30 27 27 27 28 26 25 22 23 22 23 19 20 20 23 21 22 21 20 19 17 16 15 14 13 11 8 6 4 5 6 6 5 5
36 35 34 36 36 37 36 33 34 35 31 28 27 26 28 25 27 29 30 29 31 29 29 28 26 25 23 23 22 19 21 19 20 24 23 21 21 20 19 18 17 15 14 13 11 9 6 5 4 5 5 4 2 2
34 32 36 37 37 35 34 31 30 28 27 26 27 29 30 29 26 28 30 28 31 27 25 27 22 20 25 23 23 23 21 23 25 24 24 22 20 18 17 16 15 14 13 11 9 8 6 7 7 7 4 6 7 7
34 36 36 38 32 30 31 30 30 28 24 26 25 27 30 31 30 29 29 29 29 30 29 26 28 23 21 23 20 22 25 25 25 24 23 21 19 16 16 15 14 14 12 11 9 8 8 9 9 8 9 10 10 10
36 37 37 33 29 25 22 26 29 23 24 27 28 29 29 30 31 30 30 31 32 31 29 29 26 22 22 24 28 25 24 23 22 21 21 20 18 17 16 15 14 13 12 11 11 10 11 12 11 12 13 15 15 14
37 37 35 35 33 27 25 25 29 26 23 24 27 26 26 27 28 28 27 29 29 29 26 22 22 22 25 27 28 26 23 21 21 19 17 18 17 17 16 15 15 14 13 14 14 15 15 14 14 16 17 17 16 13
36 36 35 33 31 31 29 26 24 26 27 25 26 25 25 26 25 25 25 29 27 27 24 24 24 27 25 26 27 24 22 21 20 19 17 16 18 18 18 18 17 16 15 15 14 15 14 13 14 13 9 10 11 11
35 36 33 31 27 27 26 30 28 27 26 26 26 25 23 22 23 24 27 26 26 24 25 27 27 26 26 27 26 24 22 21 19 18 18 18 17 18 18 18 17 15 15 14 14 13 15 17 16 11 11 11 9 9
33 31 29 28 24 23 22 31 26 25 21 24 26 24 22 23 24 28 23 25 24 24 26 28 27 26 26 26 25 24 22 20 19 19 19 19 18 18 18 18 16 15 15 14 15 15 15 14 13 11 11 9 8 7
31 27 22 22 23 20 24 25 28 25 24 24 23 19 20 25 27 24 21 21 21 23 25 26 25 24 25 24 23 22 22 20 19 19 19 18 18 18 18 18 17 16 15 16 18 15 13 11 11 10 8 8 7 6
20 20 24 21 23 22 21 22 24 22 19 20 21 21 23 26 21 19 19 19 23 23 22 23 23 23 22 21 21 23 22 20 19 18 19 19 18 19 19 18 18 18 19 18 16 14 10 8 7 7 7 7 6 4
16 19 20 22 21 20 19 20 20 20 20 21 20 22 21 19 18 17 18 22 24 23 23 23 22 22 21 21 22 22 22 21 20 19 21 20 20 17 16 17 17 17 15 16 13 11 10 8 7 6 5 4 3 3
21 21 23 26 24 23 20 20 21 21 21 20 21 20 19 17 16 17 19 20 22 24 25 25 24 23 22 22 22 22 22 21 20 19 17 17 17 17 17 16 16 14 11 12 11 11 10 7 6 4 5 3 2 3
22 22 20 22 23 23 21 19 19 19 18 19 20 19 17 17 16 15 17 19 21 24 24 24 24 23 21 21 19 17 15 15 15 15 14 13 11 11 13 12 10 9 8 8 9 9 8 6 4 4 4 4 2 -2
19 20 21 20 21 22 22 21 20 18 18 20 19 18 17 14 13 15 16 18 21 21 22 21 18 18 18 18 17 17 17 18 18 17 15 12 12 10 7 7 6 6 6 7 7 5 4 3 2 2 2 0 -3 -6
19 20 19 18 19 19 17 15 15 15 15 14 14 13 12 12 14 13 16 17 19 20 17 17 18 18 17 16 15 15 16 18 18 16 14 13 11 8 7 6 5 5 6 6 7 8 8 3 1 -2 -3 -4 -6 -8
21 20 17 16 15 13 15 17 16 17 16 14 12 10 9 10 12 13 14 15 17 18 18 17 17 17 16 15 15 15 14 15 17 16 12 10 9 6 4 4 4 5 4 4 3 2 0 -1 -2 -4 -5 -7 -10 -12
19 19 15 13 12 15 17 16 15 15 14 13 12 9 10 9 9 11 14 15 17 17 16 16 16 14 15 16 16 16 14 13 12 11 10 9 8 6 5 5 4 2 1 -0 -1 -2 -3 -3 -5 -6 -9 -11 -13 -14
16 14 13 12 11 11 13 14 14 13 13 13 11 9 10 9 8 10 12 13 15 16 15 14 14 14 13 13 12 11 11 12 12 11 10 8 7 6 5 3 1 -0 -1 -3 -3 -4 -4 -6 -8 -11 -13 -14 -15 -15

GFSWCAN_sfc_30mbdewp_111.txt.gz
Dewpoint
41 40 39 39 39 39 41 41 42 42 42 42 42 41 40 39 38 33 33 34 28 28 29 30 27 25 24 21 16 24 25 25 25 22 23 23 22 25 24 23 23 20 19 18 21 17 16 21 24 22 22 22 19 18
41 41 39 38 40 40 41 41 41 42 42 42 41 41 39 38 36 33 30 34 33 29 29 32 31 29 21 22 28 28 22 26 27 25 24 25 23 23 23 18 23 20 21 18 18 17 21 23 24 25 22 20 19 18
39 39 40 40 40 40 41 41 41 42 42 42 42 41 40 39 37 33 33 33 30 28 27 28 28 32 31 30 31 24 30 29 28 29 27 27 23 28 20 20 22 24 25 18 18 20 20 22 23 23 22 21 21 20
39 40 40 40 40 41 41 41 41 42 42 41 41 41 41 40 39 37 35 36 29 27 24 26 29 29 33 32 30 30 30 30 31 30 28 27 24 29 23 22 21 23 23 19 18 20 20 21 22 22 22 21 20 20
38 40 40 40 40 41 41 41 41 41 41 41 41 40 40 39 39 38 38 38 33 25 24 24 27 30 32 30 29 29 29 28 27 25 26 27 30 26 24 21 21 26 21 18 17 19 19 19 22 22 21 20 20 19
39 40 40 40 40 40 41 41 40 40 40 40 39 39 39 38 33 29 23 34 38 29 25 22 27 28 28 29 30 30 29 29 28 26 27 31 33 28 22 20 23 25 27 25 21 23 22 22 23 22 21 21 20 18
40 40 40 40 40 40 40 40 40 40 41 41 41 41 40 40 39 33 28 35 38 31 25 23 24 26 30 30 30 29 29 29 28 27 27 31 29 25 20 20 24 25 25 24 24 22 21 22 20 22 21 20 18 15
40 40 40 40 40 40 40 40 40 40 40 40 39 39 38 37 36 35 38 38 34 27 24 22 22 27 31 26 26 30 28 28 27 26 28 29 27 23 22 22 23 24 24 24 25 24 21 22 22 21 18 15 13 11
40 40 40 40 40 40 40 40 40 40 40 37 36 34 33 34 33 36 40 34 34 27 21 21 20 19 30 29 29 29 28 24 27 26 27 29 25 22 21 23 23 23 22 23 23 22 22 20 20 18 17 15 13 12
39 39 39 40 39 39 39 40 41 39 36 35 32 28 29 35 38 36 28 24 25 28 27 24 25 24 29 27 27 27 27 26 22 28 29 27 23 25 24 24 23 23 24 23 21 20 20 20 18 17 16 15 14 12
39 39 39 39 39 39 40 40 37 35 34 33 32 31 37 40 32 28 23 22 23 20 24 24 24 27 29 24 24 28 26 26 21 25 26 24 22 23 25 26 26 25 24 22 21 21 20 19 18 17 16 15 13 11
38 38 38 39 40 40 39 35 34 36 34 36 35 37 35 30 25 20 22 23 22 20 24 23 23 25 29 30 28 27 22 23 18 29 26 21 23 25 25 26 26 24 22 23 22 21 20 19 18 17 15 14 13 11
38 38 38 39 39 37 39 40 40 39 38 34 31 30 25 25 18 15 14 20 21 24 26 26 24 27 29 26 24 22 19 18 26 23 19 21 24 26 27 28 27 25 24 23 22 21 20 18 16 14 12 10 7 5
38 38 38 38 39 39 39 37 37 36 32 29 24 21 20 19 20 20 20 20 23 24 25 26 26 26 26 23 21 18 20 25 20 16 18 22 25 26 26 26 25 24 23 21 20 19 17 15 12 10 7 3 1 0
38 37 36 38 39 37 36 35 35 33 30 27 26 20 22 24 26 26 27 29 28 26 26 27 27 25 22 20 22 20 21 18 18 18 21 22 26 25 24 24 23 22 21 19 18 16 13 10 8 3 1 0 -0 0
38 36 37 37 36 35 32 31 31 31 28 27 27 25 26 26 27 30 29 28 29 29 27 27 25 22 22 21 19 17 18 16 18 21 25 21 23 23 23 22 21 19 18 16 14 12 10 8 4 2 3 3 3 3
34 34 37 36 34 32 32 27 27 27 26 25 25 28 29 29 28 30 29 30 31 27 25 25 21 21 25 20 20 21 20 21 22 25 24 21 22 21 21 19 18 16 15 13 11 10 7 5 4 5 4 4 5 5
34 37 36 33 28 26 28 29 28 24 23 25 24 27 29 30 29 28 29 31 29 28 27 26 25 20 21 20 19 19 24 25 23 24 24 22 20 19 19 18 17 16 14 12 10 7 5 5 5 5 6 5 6 7
35 36 32 31 26 22 20 25 27 22 25 27 28 29 29 30 30 30 30 31 31 31 29 28 25 20 21 21 24 25 22 24 23 21 20 21 20 18 17 16 15 14 13 11 8 7 6 6 6 6 6 7 8 10
35 34 35 34 31 24 21 23 27 23 23 25 27 27 26 27 28 27 27 28 28 28 25 23 21 23 23 26 25 27 25 22 22 21 20 18 19 17 16 16 15 14 12 11 10 8 8 9 9 10 12 12 13 15
36 36 33 29 28 27 24 22 23 24 27 24 24 24 25 25 25 25 25 27 25 23 22 23 22 22 22 24 25 23 22 22 22 22 21 18 17 17 16 16 15 14 13 13 11 10 11 12 13 13 14 15 15 14
34 34 28 29 25 24 25 27 27 27 26 26 24 23 21 21 22 24 25 23 23 23 24 24 25 25 26 26 25 24 22 22 19 18 18 17 17 17 16 16 15 14 14 14 12 11 12 13 14 15 15 12 11 11
32 28 26 25 18 18 21 29 25 25 19 23 25 20 21 22 22 26 23 23 23 22 23 24 26 26 26 25 24 23 22 20 19 18 18 18 18 17 16 16 16 14 14 13 13 12 13 13 13 12 10 11 11 9
30 23 17 19 19 18 22 22 26 23 23 21 20 18 20 22 26 23 20 20 21 20 23 24 25 25 24 24 23 22 21 20 18 17 18 18 17 17 17 16 15 15 15 14 14 14 14 15 13 11 11 11 9 9
20 19 19 16 19 18 18 19 21 20 17 20 19 19 21 24 20 19 19 18 20 23 22 22 23 23 25 24 22 21 20 19 19 18 18 18 17 17 17 16 16 16 16 14 13 13 13 12 12 11 10 9 8 7
14 14 16 15 17 17 17 17 18 18 18 18 17 19 21 20 17 15 17 19 21 23 22 23 24 24 24 23 23 22 21 20 18 18 18 18 18 17 16 15 15 16 16 16 14 14 12 11 11 10 8 6 3 3
14 14 20 21 22 21 18 18 19 19 19 18 19 19 19 16 16 16 18 18 19 21 22 24 25 24 24 22 21 20 20 19 18 18 18 17 17 17 17 16 16 17 16 16 15 14 12 11 10 7 4 2 3 4
19 20 19 21 22 22 20 18 19 19 20 20 19 18 17 16 14 16 18 18 18 20 21 20 20 22 22 20 17 16 15 14 15 15 15 14 12 12 13 14 15 16 16 16 15 13 12 10 6 4 4 3 -0 -1
20 20 21 20 20 21 21 21 19 18 18 20 19 19 18 15 13 14 15 16 15 21 20 20 17 17 16 16 16 16 17 18 18 16 15 14 15 12 10 11 11 11 11 11 10 8 7 6 5 3 0 -2 -6 -8
18 18 19 18 19 19 20 19 19 17 16 17 15 14 13 12 12 10 13 15 18 20 19 19 17 18 16 15 15 15 16 18 19 18 15 15 14 10 11 11 11 11 11 10 7 5 3 0 -2 -4 -5 -7 -7 -10
17 17 17 16 17 14 13 13 12 13 13 14 11 15 15 10 9 9 11 11 11 12 16 16 16 16 15 15 15 16 16 16 17 17 14 12 11 10 10 9 9 8 6 4 3 1 -0 -1 -3 -4 -6 -8 -11 -12
18 18 16 16 14 12 13 15 14 14 12 13 12 7 9 10 14 10 10 10 13 14 14 14 15 15 16 17 17 17 16 14 12 12 11 11 9 8 7 7 6 5 3 2 1 -1 -2 -3 -5 -7 -9 -12 -14 -15
14 14 13 13 11 11 13 14 13 12 10 11 11 8 8 10 13 9 7 8 10 13 13 11 12 12 13 13 12 12 12 12 12 11 10 9 8 6 5 5 3 2 1 -0 -2 -4 -5 -7 -8 -10 -13 -14 -16 -16

GFSWCAN_sfc_30mbdewp_114.txt.gz
Dewpoint
39 40 40 41 41 41 41 42 42 42 42 42 43 43 42 40 36 35 35 36 33 30 30 27 27 24 24 19 18 25 24 26 24 23 22 22 23 24 22 22 23 23 22 22 22 20 17 22 24 23 23 23 22 23
38 38 40 41 41 41 41 41 42 42 42 42 42 41 40 39 37 36 33 34 35 29 29 31 31 29 24 23 26 28 25 26 27 24 24 25 23 24 23 19 24 22 24 22 21 20 22 25 25 25 24 23 22 22
37 38 40 41 41 41 41 40 41 41 41 41 41 41 40 38 36 34 34 33 29 28 25 22 27 32 32 32 34 24 28 30 30 31 28 26 23 25 20 20 22 25 27 22 21 20 21 23 24 24 23 23 22 21
39 38 40 40 41 41 41 41 41 41 42 42 41 41 40 39 37 35 33 35 28 23 23 26 31 31 34 32 32 31 31 32 32 31 29 26 24 28 25 23 22 25 25 22 20 21 21 23 24 23 23 23 22 21
40 40 40 41 41 41 41 41 41 42 42 42 41 41 40 39 38 38 39 36 33 23 21 25 29 32 32 30 30 31 30 29 28 27 28 26 28 27 27 23 23 25 24 21 23 21 23 22 24 23 22 21 21 20
39 40 40 40 40 40 41 41 41 41 41 40 40 39 38 35 35 32 30 33 34 26 22 23 29 28 30 31 31 30 29 28 27 27 28 32 31 29 26 23 26 27 28 27 23 24 24 24 23 23 22 21 20 19
39 40 40 40 40 40 40 41 41 41 41 41 41 40 40 40 39 33 30 36 36 32 27 21 23 28 30 30 31 30 31 28 26 27 27 29 29 27 28 24 25 26 27 25 24 23 22 23 22 22 22 21 20 17
40 40 40 40 40 40 40 41 41 41 40 39 38 38 39 38 36 33 36 36 33 27 26 22 23 26 31 25 26 31 27 27 26 24 29 26 29 27 25 25 25 26 25 24 23 24 22 22 22 21 20 18 16 14
40 40 40 40 40 40 40 41 40 38 36 35 35 36 37 36 33 34 39 35 35 29 25 23 20 21 31 28 31 30 28 24 28 24 25 27 24 24 28 25 25 25 24 24 23 21 21 21 20 19 17 16 14 11
40 40 40 40 40 41 41 39 37 36 36 35 35 32 31 35 39 36 31 30 29 29 28 25 26 24 27 28 28 27 28 24 21 26 30 25 24 26 26 25 25 24 24 23 21 20 20 20 19 18 17 16 12 7
40 40 39 39 40 40 38 36 35 34 36 35 33 32 36 39 33 29 27 25 23 23 26 26 25 25 31 25 26 30 26 26 19 25 25 23 23 26 26 25 24 25 24 23 22 21 21 20 19 18 17 15 12 9
38 39 40 40 39 38 38 37 38 38 37 36 35 37 35 30 26 23 22 23 22 21 26 26 27 28 33 33 27 27 23 25 21 29 26 19 26 25 26 25 24 25 23 21 22 21 21 20 19 18 17 15 12 13
39 39 39 40 40 40 39 39 38 38 37 33 30 29 25 24 20 18 18 22 23 26 28 28 28 30 31 28 28 24 23 21 27 24 19 24 26 25 26 26 25 23 23 22 21 21 20 19 19 18 17 17 14 12
39 39 38 39 39 37 38 37 36 35 33 29 25 22 22 21 23 24 24 26 27 29 28 29 29 27 29 26 27 22 25 25 21 18 20 27 26 28 29 29 24 24 25 23 22 21 20 19 18 17 15 13 10 7
38 38 38 37 37 36 35 35 34 34 32 29 26 22 23 27 29 29 30 29 30 31 30 28 28 26 25 24 24 23 22 19 20 20 28 28 27 28 28 29 27 26 25 24 23 20 18 16 14 12 10 9 8 6
36 37 36 35 34 33 31 31 33 32 30 28 28 26 29 29 29 30 31 30 32 32 31 28 26 25 23 23 21 20 19 17 24 29 29 27 26 28 27 27 27 26 25 23 21 19 16 14 11 8 7 7 6 7
36 36 35 34 32 31 33 30 31 28 27 27 27 30 31 30 29 30 33 32 33 31 27 26 23 23 25 22 22 23 24 29 29 28 29 27 27 27 26 25 23 23 22 21 18 17 15 13 9 6 5 7 8 9
34 36 33 29 27 28 31 31 28 25 25 28 27 28 30 31 31 32 33 33 31 29 28 27 26 24 22 21 21 28 29 28 27 27 28 26 26 25 25 24 22 21 19 18 16 14 11 8 7 6 8 7 7 7
34 33 35 33 28 25 24 27 28 23 26 28 30 31 31 30 31 32 32 32 32 32 31 29 26 22 24 28 31 30 28 28 27 26 25 25 25 23 23 21 20 19 18 16 14 12 10 7 6 6 6 5 8 10
35 35 34 32 31 23 22 24 27 23 24 27 28 27 28 29 29 29 29 28 29 28 26 25 25 29 30 32 32 32 31 29 27 25 24 23 22 21 21 20 20 19 16 14 12 10 7 6 6 7 8 8 13 15
35 35 33 31 29 27 23 22 23 26 26 25 25 25 26 27 27 27 27 28 25 24 24 27 31 31 28 29 29 29 28 27 27 27 26 23 22 21 21 20 19 18 17 16 14 11 10 10 10 12 15 17 19 19
33 32 30 28 24 25 25 28 26 27 26 25 25 23 23 23 24 26 27 25 24 27 29 29 29 28 28 28 28 26 26 25 23 22 22 22 22 21 20 20 19 19 19 20 17 16 14 14 14 17 19 20 18 17
31 28 26 23 18 21 23 28 23 23 19 23 22 20 22 24 25 26 24 25 27 27 27 27 28 27 28 27 26 24 24 23 23 22 22 22 22 23 22 21 21 21 20 19 18 17 16 16 18 20 18 17 17 15
29 25 21 20 20 20 23 23 24 22 21 21 20 20 22 23 26 23 22 23 26 24 25 26 27 27 26 26 26 24 23 23 23 23 22 21 21 21 21 21 21 21 20 18 16 16 17 18 17 17 17 17 17 15
20 18 20 16 19 19 20 21 22 20 18 20 20 20 22 23 21 21 21 23 24 26 25 25 26 27 29 28 26 24 22 22 22 21 22 21 21 20 20 19 19 19 19 19 18 18 18 19 19 18 17 17 15 13
13 17 18 17 18 16 18 18 19 20 20 20 20 22 24 21 19 15 18 24 25 25 25 26 27 26 26 25 25 23 22 21 21 22 20 19 20 22 20 19 18 18 18 19 18 17 18 18 17 16 16 13 11 11
13 16 21 21 22 20 20 21 21 21 20 19 21 21 21 17 18 20 22 23 24 25 24 25 25 26 26 24 23 23 22 21 21 21 21 20 20 20 21 20 18 18 19 19 19 19 18 17 16 15 13 11 10 9
20 21 19 22 22 23 21 20 21 20 22 23 22 20 19 19 19 22 22 22 22 23 23 23 22 23 25 22 22 21 20 19 19 19 18 18 18 19 20 21 21 19 20 20 21 21 19 17 15 12 10 8 7 7
21 23 23 20 22 22 22 22 22 22 22 23 23 22 22 20 20 21 20 20 20 22 23 23 22 22 22 21 21 21 21 21 20 18 18 18 19 17 18 19 19 19 18 17 18 18 16 14 12 10 7 5 3 2
20 23 22 20 20 19 23 24 25 21 19 21 20 19 18 19 18 16 17 19 21 23 24 24 23 23 21 21 20 19 21 22 23 21 19 18 19 16 16 16 16 17 16 15 11 9 8 5 3 2 1 0 -1 -3
20 21 21 20 20 20 19 18 18 18 18 19 17 20 21 18 17 15 15 16 16 17 19 21 21 21 20 20 21 20 19 21 21 21 21 18 17 16 16 15 15 14 12 11 10 8 6 5 3 1 0 -2 -4 -5
21 20 19 17 18 17 17 18 19 19 18 17 19 14 16 17 19 16 13 14 16 18 17 19 20 20 20 21 21 21 21 19 18 17 16 16 15 14 13 13 12 11 10 8 6 4 3 2 1 -1 -3 -5 -7 -8
17 17 17 17 16 15 16 16 16 15 15 15 15 13 14 16 16 13 12 12 13 14 17 17 17 18 18 18 17 16 16 16 15 15 13 13 12 12 11 10 8 7 6 5 4 2 1 -1 -2 -4 -6 -9 -9 -10

GFSWCAN_sfc_30mbdewp_117.txt.gz
Dewpoint
40 39 42 45 44 44 43 41 41 42 42 42 43 46 44 42 41 37 38 42 38 35 32 31 28 24 21 20 20 24 25 25 25 22 23 20 21 24 23 23 23 22 24 24 21 23 21 23 24 23 26 26 25 27
40 40 41 42 42 43 43 44 44 44 44 43 42 41 41 40 40 38 37 40 37 31 31 31 31 29 26 21 21 26 23 24 25 21 22 25 23 25 23 19 23 22 25 26 23 22 24 26 28 27 26 26 26 25
41 41 40 41 41 41 41 41 42 41 41 41 41 40 41 41 40 40 38 35 32 31 27 26 28 31 32 32 32 24 25 27 30 32 29 26 24 24 21 20 23 25 26 24 22 22 23 25 25 25 26 25 25 24
41 41 41 41 41 41 41 41 41 41 41 41 41 41 40 40 39 36 32 31 29 26 25 27 31 30 31 30 30 32 31 33 31 30 29 27 25 27 26 26 22 27 25 24 22 22 22 25 25 26 25 24 23 23
40 40 41 41 41 42 42 41 41 41 41 41 41 40 40 39 38 37 35 32 31 22 22 25 29 28 28 29 30 32 32 32 29 28 28 26 28 28 28 26 24 26 27 24 27 23 24 24 25 25 24 23 23 22
40 40 40 41 41 41 40 40 41 40 40 40 40 39 39 38 33 28 34 31 28 26 21 21 26 26 27 27 27 28 30 28 26 25 28 28 29 28 25 25 28 30 30 29 26 25 26 26 25 24 23 23 22 20
40 40 40 40 40 40 41 41 41 41 41 41 41 40 38 37 37 31 30 32 34 27 22 18 21 25 26 26 25 24 27 25 24 24 27 28 28 28 27 24 27 28 28 26 26 25 25 24 24 24 23 22 21 18
40 39 40 41 41 41 40 40 39 39 39 40 40 39 37 36 34 28 34 35 36 24 23 19 22 23 27 22 23 26 23 22 22 22 25 24 28 27 25 28 27 27 26 25 25 24 24 24 23 22 22 21 18 16
40 40 40 41 41 39 38 38 37 36 35 36 37 36 34 33 26 29 36 37 33 27 23 22 19 21 28 23 25 25 23 22 23 22 22 24 23 23 30 27 26 26 24 24 24 23 23 22 22 21 20 19 17 14
40 40 41 40 39 38 36 36 36 36 36 36 33 32 33 33 39 38 31 33 30 28 25 23 24 22 23 23 23 23 22 20 20 22 25 23 23 28 28 27 26 25 25 24 22 22 22 21 21 20 19 18 16 12
40 40 39 37 36 36 35 36 36 36 35 33 32 31 34 37 31 29 30 26 24 22 24 26 26 26 27 22 23 25 22 21 14 22 21 20 22 27 27 26 26 25 24 23 23 23 23 22 20 19 19 16 12 9
38 39 40 40 40 40 39 38 37 36 36 36 33 35 33 29 27 25 22 24 19 21 24 25 23 24 30 29 25 25 21 24 21 28 24 18 27 27 26 25 25 25 24 24 23 22 22 21 21 20 18 16 12 13
40 40 39 39 39 39 39 37 36 36 37 32 30 30 25 26 23 21 20 21 22 26 29 27 28 28 29 27 26 24 24 22 26 24 19 27 26 27 25 25 25 25 24 24 23 23 22 21 21 20 19 19 18 16
39 38 37 37 36 36 36 36 35 34 32 31 27 23 24 22 23 25 27 27 29 30 30 29 28 27 28 27 28 23 25 24 20 19 20 29 28 29 31 28 25 24 24 24 24 23 23 23 22 22 20 18 16 14
37 36 34 34 34 33 32 33 35 34 33 29 26 22 25 29 29 29 31 31 32 33 30 27 27 26 25 26 24 23 22 19 18 20 28 29 29 30 30 30 28 27 26 25 25 23 22 21 20 18 17 15 13 12
36 33 33 34 33 33 33 32 33 32 31 29 28 28 31 28 29 31 32 32 32 31 29 27 26 25 24 23 22 21 17 16 25 29 30 29 30 30 30 30 29 28 27 26 24 22 20 19 17 16 14 13 11 11
34 32 33 31 29 30 34 32 32 30 28 27 28 31 32 31 30 30 34 31 34 30 28 24 24 23 24 22 21 21 24 28 29 29 29 29 27 30 30 30 29 28 27 26 23 21 19 18 15 12 10 10 10 11
31 31 34 33 28 27 33 32 29 26 26 31 28 29 31 33 32 33 33 33 28 28 27 25 25 23 23 21 22 30 30 29 28 28 28 27 29 29 29 27 27 27 26 24 23 20 18 14 11 9 8 8 9 9
33 32 33 33 29 25 27 28 28 24 28 30 31 31 31 32 32 33 34 32 30 30 29 27 26 21 25 30 30 30 30 30 28 27 27 27 27 27 27 26 26 25 23 22 19 17 15 13 10 8 7 7 7 8
34 34 34 32 30 20 22 25 26 24 25 27 29 28 29 28 30 33 32 29 26 26 25 24 27 30 31 33 33 33 32 31 29 27 26 26 26 26 25 25 24 23 21 19 17 15 13 10 9 9 8 8 13 14
32 31 32 28 28 25 24 23 23 25 24 25 26 26 26 28 28 29 28 27 25 24 24 29 32 33 33 32 32 31 31 30 30 29 28 26 25 24 24 23 23 20 19 18 16 15 13 12 10 12 13 17 19 18
31 31 29 24 23 24 23 26 24 25 25 25 23 23 24 25 26 27 27 25 25 28 30 29 30 30 30 30 30 29 29 28 27 26 26 26 25 24 23 23 22 22 21 21 19 18 16 14 14 17 18 21 22 20
31 27 25 21 22 23 22 26 22 20 21 22 22 21 22 23 24 25 24 26 28 30 29 28 29 29 30 28 28 27 26 26 25 26 25 26 26 27 25 24 24 24 23 22 21 20 19 17 18 21 22 20 21 18
28 26 24 23 21 21 24 22 20 19 20 19 19 20 21 23 25 24 23 23 30 27 27 28 28 28 28 28 28 27 26 26 27 27 26 25 25 24 24 23 23 25 25 22 21 21 21 20 21 22 20 20 19 18
21 21 24 19 20 20 20 20 20 18 19 20 20 20 22 23 22 22 22 26 27 28 27 27 27 28 27 28 28 27 25 25 25 25 25 24 24 22 22 22 23 24 25 23 23 22 21 22 21 20 20 21 19 17
16 22 20 19 19 17 18 18 18 19 19 20 21 22 24 22 20 18 17 27 26 26 26 27 27 26 25 26 26 25 24 24 24 25 22 22 23 23 22 20 20 21 23 26 24 23 22 20 20 20 21 19 18 15
14 19 21 22 21 20 21 22 22 21 20 19 20 22 20 18 18 22 26 26 25 26 25 26 26 26 27 26 26 25 24 24 25 23 22 22 22 24 25 23 22 22 23 25 23 23 21 21 20 20 18 16 15 13
21 21 19 22 21 22 21 20 20 20 21 21 22 20 19 19 22 26 26 25 25 25 25 26 25 25 26 26 25 24 23 23 22 22 21 21 21 22 23 24 23 22 23 23 24 24 23 21 19 17 15 13 12 10
21 23 23 21 22 22 21 21 21 22 24 25 23 22 24 25 26 26 25 24 25 25 25 24 24 25 25 24 24 25 24 24 22 20 20 20 19 19 21 21 22 23 24 23 24 24 22 19 17 14 12 10 8 7
21 24 20 21 20 18 24 27 28 26 24 25 25 23 22 25 24 22 23 24 24 24 26 26 26 25 24 23 22 23 25 26 27 25 22 21 20 20 20 20 20 20 19 17 14 13 12 11 9 7 6 5 3 2
22 23 22 21 20 23 24 23 23 23 24 24 24 24 25 25 24 20 20 20 20 21 22 23 23 24 23 23 23 21 21 24 24 25 25 22 21 20 20 19 19 17 15 14 13 12 11 9 7 5 4 3 0 -1
23 22 21 19 21 23 22 22 22 22 22 21 22 22 21 22 22 19 16 17 18 19 21 22 24 23 25 26 25 25 25 23 22 22 21 20 19 18 18 17 18 16 15 14 12 9 7 6 5 3 1 -1 -2 -4
20 20 20 20 19 19 20 20 19 19 19 18 19 19 19 20 20 16 16 16 16 16 19 20 21 22 22 23 22 21 21 21 21 20 19 18 17 17 17 15 14 12 10 9 7 6 5 3 2 0 -2 -4 -5 -5

GFSWCAN_sfc_30mbdewp_123.txt.gz
Dewpoint
40 41 42 42 40 40 41 41 41 41 41 39 40 40 40 40 40 41 37 44 42 36 37 38 38 31 33 28 25 30 28 29 27 26 22 21 20 20 26 29 25 23 22 22 22 21 18 26 24 23 26 29 27 26
43 42 42 42 43 43 41 41 42 41 41 39 40 40 40 41 41 41 36 42 46 39 37 39 39 37 34 30 33 30 28 28 29 25 23 22 24 30 29 25 27 22 24 23 25 23 26 28 29 29 30 29 27 26
42 42 45 46 45 43 42 40 41 42 40 39 40 40 40 41 41 40 37 41 42 36 34 35 35 37 36 35 35 29 30 28 29 30 30 30 27 29 26 25 26 27 27 26 23 26 26 27 28 30 30 28 26 25
42 41 42 43 43 41 40 42 40 40 40 39 40 40 41 41 42 40 37 44 40 36 31 33 37 35 34 35 33 32 30 31 33 33 30 30 28 31 29 29 29 28 26 25 24 24 24 25 29 28 28 27 25 24
42 42 41 41 41 42 42 41 41 41 40 40 41 41 41 42 42 41 38 45 39 35 31 32 34 32 34 36 35 35 32 31 32 30 29 27 29 27 28 27 28 28 26 23 21 24 23 26 28 27 26 25 25 24
41 42 43 41 41 42 42 42 41 41 40 41 41 42 42 42 41 40 37 42 41 34 31 28 35 33 33 32 33 33 33 33 32 31 29 30 30 28 24 24 30 31 31 30 28 27 28 29 27 27 26 25 24 23
41 41 42 43 43 42 42 42 42 41 41 41 42 42 42 44 43 38 35 40 42 34 31 29 30 31 30 32 32 32 33 32 31 30 29 28 28 27 23 22 29 29 29 29 29 28 27 27 26 26 25 25 24 22
38 41 41 42 42 43 43 43 43 42 43 43 42 42 43 42 40 34 38 40 38 30 30 27 28 26 27 26 24 29 26 27 26 28 29 28 29 27 23 29 28 27 28 27 26 26 26 28 27 28 25 23 21 20
38 38 39 41 42 42 42 42 43 42 42 43 43 43 40 36 33 33 35 34 37 31 25 26 25 23 27 26 26 26 25 22 24 23 26 27 27 24 26 28 27 27 27 27 27 25 26 27 28 28 25 20 17 14
39 39 39 39 40 42 42 43 42 42 43 43 41 32 32 34 36 36 36 29 29 27 28 23 27 24 28 25 24 22 25 23 19 23 26 22 26 30 32 30 28 27 27 27 25 24 25 25 27 28 25 19 15 11
38 37 37 38 39 39 39 40 41 41 40 34 32 30 35 36 36 32 27 25 25 25 31 27 27 27 30 23 23 25 22 21 18 23 21 22 24 27 29 28 28 28 26 26 25 26 26 26 27 28 27 21 15 12
36 37 37 37 38 38 38 37 35 35 36 31 32 37 37 33 30 24 24 26 23 23 27 26 27 29 29 29 25 24 22 23 18 27 22 19 28 28 28 27 27 25 25 25 26 26 26 27 29 30 28 20 16 16
34 35 36 36 37 37 37 37 36 36 37 34 32 30 27 27 24 19 19 24 24 27 27 28 27 29 30 29 26 24 21 22 27 21 20 27 27 27 27 26 26 26 26 26 27 29 31 31 31 28 21 18 17 15
33 32 34 36 36 37 36 36 37 36 35 29 25 22 24 22 25 28 28 26 29 30 30 29 28 26 30 26 27 20 25 25 22 20 22 27 26 27 27 26 26 26 26 27 29 30 28 26 24 22 21 19 16 14
34 30 30 35 36 36 37 36 36 36 33 28 28 24 24 28 31 32 34 32 32 32 29 28 28 28 27 25 24 22 21 17 20 23 28 30 29 28 28 28 27 27 27 27 27 25 23 23 21 20 20 18 17 15
30 28 30 36 36 36 36 37 36 35 32 30 30 26 29 29 31 32 32 30 32 30 29 28 26 23 23 23 22 20 19 20 25 27 29 30 31 31 30 27 27 28 27 26 25 24 23 22 20 19 18 18 16 14
29 29 35 36 35 34 37 35 32 30 31 29 29 32 31 30 30 32 34 32 34 30 26 25 21 22 25 20 20 28 24 25 26 28 28 29 31 30 29 27 27 27 26 24 23 22 21 20 19 17 15 15 14 15
30 32 34 35 34 34 33 33 29 29 28 31 28 29 31 33 32 32 33 33 29 27 27 25 25 23 23 22 24 27 27 28 28 27 28 31 31 31 29 28 28 26 25 24 22 21 19 18 17 15 14 14 14 15
35 33 32 33 33 30 27 27 29 27 29 31 32 32 31 31 32 33 33 30 31 31 30 27 26 27 27 28 26 27 27 27 26 26 28 30 31 30 30 29 28 27 25 23 22 20 19 18 17 14 13 13 12 13
30 30 32 30 30 26 25 25 28 27 27 30 31 28 29 29 31 33 30 28 28 28 29 29 28 30 31 32 31 29 28 28 26 25 25 27 29 28 28 27 26 26 25 24 24 21 19 18 16 13 12 13 14 13
30 30 32 30 27 29 28 26 25 26 26 27 27 27 28 30 28 28 27 28 28 29 28 31 31 31 31 31 31 30 30 30 29 27 25 25 27 27 27 28 26 24 23 23 21 22 21 18 15 14 13 16 15 14
29 31 29 27 25 26 27 28 25 26 26 25 25 27 27 26 27 26 27 28 29 30 31 31 32 30 30 29 30 30 29 28 29 29 27 26 27 26 27 26 25 24 23 23 21 21 20 18 16 15 13 21 21 22
29 29 27 26 22 22 22 27 22 23 23 22 24 23 23 23 25 26 25 28 30 29 30 30 30 30 29 28 27 27 29 29 28 28 27 27 27 27 27 25 25 25 23 23 22 20 20 18 18 18 23 23 22 21
30 28 24 23 22 20 23 20 20 21 22 21 20 19 20 22 24 24 26 29 29 29 28 29 30 29 29 28 27 27 28 28 27 27 28 26 26 27 27 26 27 27 26 24 23 21 21 20 20 24 22 21 20 19
15 19 22 18 21 19 18 18 19 19 18 19 20 21 21 23 22 22 24 27 28 26 26 27 27 27 26 27 27 25 25 28 27 26 27 27 26 26 26 28 28 29 29 26 24 23 22 22 24 23 21 20 19 19
16 20 20 19 18 17 17 16 17 18 19 19 22 22 23 22 20 21 24 25 26 26 26 27 27 25 27 28 26 25 25 27 26 25 27 28 27 25 24 24 24 25 29 27 26 24 24 24 23 21 20 20 20 16
17 19 21 22 21 21 20 21 21 19 17 17 20 19 19 16 18 24 26 26 24 25 26 26 28 28 27 26 26 25 25 25 25 25 25 26 26 27 26 24 24 24 28 29 27 25 24 23 22 22 20 19 17 16
20 23 19 21 20 22 19 18 18 18 20 22 20 16 17 21 22 25 24 25 25 25 25 25 27 28 27 26 25 24 24 23 22 22 21 22 24 25 25 26 26 27 28 29 27 26 25 24 20 19 18 16 16 16
21 23 20 19 19 19 21 23 24 26 26 25 23 24 25 25 26 25 25 24 25 25 26 25 25 25 25 25 26 25 24 24 21 20 17 17 18 22 26 26 26 27 27 26 25 22 21 20 17 16 15 13 12 10
23 23 21 19 18 20 23 25 25 25 25 25 26 26 25 24 24 24 24 24 24 26 27 28 26 26 25 24 23 25 28 28 26 26 20 17 18 22 21 19 18 18 18 17 16 16 16 14 13 11 9 8 7 6
21 20 19 20 20 25 24 24 24 23 23 23 24 24 25 22 21 20 19 21 22 23 24 24 25 27 26 26 24 23 22 25 24 23 22 22 22 21 19 17 17 17 16 14 13 12 11 10 8 7 6 4 2 1
21 20 23 20 23 24 23 21 21 21 24 24 23 24 24 22 20 16 17 18 20 20 22 21 22 25 26 25 25 26 25 24 24 23 22 22 20 19 18 17 17 16 15 14 12 11 9 8 6 4 2 1 0 -1
20 20 20 20 18 19 23 20 21 21 24 20 22 21 22 20 15 16 19 18 17 18 18 20 21 21 20 20 20 21 23 23 23 22 21 20 19 19 19 19 17 16 14 12 10 8 6 4 3 2 -0 -2 -3 -4

GFSWCAN_sfc_30mbdewp_129.txt.gz
Dewpoint
38 37 36 35 35 34 34 34 36 37 37 38 38 38 39 40 39 39 35 37 35 32 35 37 32 30 31 30 26 30 31 32 28 23 24 22 20 21 20 22 24 20 19 20 21 19 15 26 26 22 22 29 27 25
40 39 39 38 37 36 36 35 35 36 37 37 37 38 38 39 40 39 34 38 37 33 34 38 40 40 34 31 29 31 29 31 30 28 28 25 24 23 21 18 29 24 23 22 22 20 24 27 27 28 29 28 26 25
42 41 41 40 39 39 38 37 36 36 37 37 37 37 38 39 39 39 34 37 37 34 31 32 35 39 42 41 37 29 30 30 30 30 28 27 21 28 21 20 28 30 29 25 24 25 26 26 29 30 29 28 27 26
41 42 42 42 41 40 40 39 37 37 37 37 37 38 38 39 39 39 34 37 35 35 29 33 37 38 41 41 40 34 31 33 33 33 32 30 29 31 26 29 29 29 30 29 27 25 25 27 27 29 27 27 27 25
41 42 43 45 43 41 40 40 40 38 37 37 37 38 39 39 40 39 37 39 38 32 28 32 36 36 40 38 36 34 31 32 32 32 32 31 32 32 30 30 30 31 29 26 24 25 25 23 25 28 26 25 25 24
41 42 44 45 43 42 40 40 40 40 38 38 38 39 39 40 40 38 33 37 39 38 32 29 37 37 37 37 35 34 34 35 33 30 29 30 31 27 23 22 25 29 28 27 26 27 26 26 27 27 25 24 24 23
41 42 42 43 42 41 40 41 41 40 38 38 39 39 40 40 40 32 30 37 42 40 33 29 30 37 37 38 37 37 38 37 34 31 29 28 28 26 23 20 23 30 30 29 28 27 26 27 26 26 25 24 24 21
40 41 41 42 42 42 42 41 41 40 39 39 39 39 40 40 36 32 40 42 41 37 35 28 28 32 38 34 34 36 35 36 34 33 30 26 28 26 22 22 27 29 29 28 28 26 27 27 27 26 25 23 21 21
40 41 41 41 41 41 41 41 41 39 39 38 39 40 39 35 31 36 41 40 39 37 30 29 26 26 37 34 31 31 30 27 28 28 27 26 25 22 22 23 27 28 27 27 27 27 27 26 26 25 24 22 21 21
40 40 40 40 40 40 40 40 40 40 39 40 39 35 31 33 41 41 39 33 33 35 34 26 28 29 32 30 26 25 27 22 22 26 29 25 24 27 29 29 27 28 28 27 26 25 26 25 26 26 26 25 24 24
41 41 41 40 40 40 40 40 40 38 37 34 35 33 38 41 36 34 30 29 31 29 28 27 27 27 30 26 28 27 23 23 15 21 25 22 21 26 30 29 29 28 28 27 26 26 26 26 26 28 27 27 26 24
41 41 41 41 41 40 40 39 38 36 36 36 37 39 39 34 32 28 26 27 24 24 29 25 26 28 29 30 23 25 22 22 17 25 21 18 21 28 29 28 28 28 28 27 26 26 27 27 27 28 27 25 24 24
42 41 41 40 39 38 38 38 38 39 38 35 32 28 28 26 20 19 20 23 23 27 28 28 26 30 30 28 25 23 18 18 23 20 20 19 26 29 28 27 27 28 28 27 26 26 27 28 29 28 25 24 22 21
38 40 41 41 42 41 40 41 40 37 31 26 22 20 20 20 24 25 25 24 27 28 29 28 28 30 27 26 23 19 24 24 20 18 16 24 27 28 27 27 26 26 27 27 26 27 28 28 27 27 23 23 21 19
35 36 36 39 40 40 40 36 35 35 32 27 24 20 24 28 29 31 31 30 29 30 28 26 25 26 25 23 22 21 22 19 19 18 24 28 28 27 27 26 26 26 26 27 28 27 26 25 24 23 23 23 22 19
32 30 34 39 36 33 32 33 33 33 31 29 29 27 29 28 30 29 29 28 30 26 26 24 22 20 22 21 20 16 18 14 18 26 29 28 28 27 27 27 26 26 26 26 25 24 23 22 22 21 21 20 20 19
30 30 36 36 34 33 33 30 31 31 29 28 27 31 30 30 29 31 30 29 31 25 23 23 18 17 24 21 21 22 20 23 26 27 28 30 29 28 27 26 26 25 25 24 23 22 21 20 20 19 18 18 19 18
30 33 37 33 32 30 30 30 30 29 27 29 27 29 30 30 28 28 29 30 27 26 25 22 25 22 19 20 22 24 26 26 26 26 27 30 30 29 28 27 26 24 23 21 21 20 20 19 19 19 18 18 17 17
32 34 35 33 30 27 24 26 30 26 28 30 30 29 28 29 30 30 29 30 31 30 29 28 25 23 24 26 25 26 26 25 25 26 28 30 30 28 27 26 24 23 21 21 21 20 20 21 20 19 18 18 17 17
30 30 32 32 29 25 23 25 30 27 26 28 29 27 27 28 28 26 28 29 29 29 27 26 26 28 27 28 27 27 26 26 25 25 25 27 29 28 27 26 24 23 22 22 22 21 21 20 18 19 19 18 17 16
25 29 31 30 29 28 27 26 26 27 27 25 26 26 25 27 25 24 26 28 28 29 27 29 29 29 29 29 29 28 26 25 24 24 24 25 27 28 27 27 25 23 22 21 20 20 20 19 18 17 16 16 16 16
27 31 25 26 25 25 24 26 26 26 24 24 23 25 23 22 22 23 26 26 27 28 30 30 29 29 29 29 29 30 29 28 28 26 25 27 26 26 25 25 24 22 22 21 21 19 20 21 19 17 17 16 16 16
29 26 24 21 19 19 21 24 23 24 19 21 24 21 21 21 22 26 26 28 28 29 29 29 29 28 28 28 29 29 28 27 26 25 26 25 26 26 26 25 24 23 22 21 22 21 21 21 20 18 18 17 17 17
26 22 20 20 19 18 19 19 22 23 24 23 19 19 19 20 23 27 24 26 27 28 28 28 27 27 27 26 26 26 28 27 27 27 27 27 25 25 26 25 25 24 24 23 22 21 20 19 18 18 18 17 18 18
16 18 15 15 17 16 16 16 16 18 18 21 20 19 20 23 21 23 23 24 25 26 26 26 27 27 25 24 25 25 26 27 25 26 27 27 27 27 26 26 26 26 26 23 21 19 18 18 19 19 18 18 17 16
16 18 19 17 18 18 17 18 18 18 18 19 19 20 20 19 18 19 22 24 25 25 25 26 26 25 25 27 25 24 25 26 26 25 25 27 27 26 25 25 25 25 27 25 21 19 19 20 19 19 19 18 16 13
16 18 19 23 23 20 17 17 18 17 17 17 17 17 15 16 16 21 24 25 24 26 27 27 27 27 25 25 24 24 24 25 25 24 24 24 24 24 25 25 24 25 25 25 23 21 20 20 19 19 18 16 15 13
22 19 16 18 18 18 17 16 17 19 21 23 16 15 18 17 18 22 23 25 26 26 26 26 26 26 25 24 24 23 22 22 21 20 19 20 21 21 22 22 23 25 25 25 25 24 23 21 20 19 16 14 12 12
21 21 17 15 17 20 21 20 21 22 24 22 21 20 20 21 21 22 24 26 27 26 24 24 25 25 25 24 24 23 23 21 19 17 16 15 16 19 18 22 23 24 24 24 24 24 22 21 19 17 14 11 10 9
19 19 18 16 18 18 21 22 22 22 23 24 25 24 22 20 18 19 19 20 21 21 22 24 25 24 23 23 23 23 24 21 20 20 18 17 15 16 16 17 18 18 18 16 15 14 15 13 12 10 9 7 6 5
19 16 16 17 18 21 22 23 22 22 22 21 22 22 18 15 16 16 16 16 17 20 20 20 22 25 24 24 22 21 21 22 21 21 20 16 15 15 15 15 15 15 15 14 13 12 11 9 8 7 6 4 3 2
18 20 19 18 19 22 21 18 18 18 21 21 21 22 19 18 14 12 15 15 15 15 15 15 17 16 17 20 22 24 23 21 20 18 17 16 15 15 15 14 14 13 12 11 10 9 8 7 6 5 3 2 0 -1
18 18 17 16 16 17 18 16 17 19 19 19 17 16 15 16 15 12 14 13 14 15 15 15 15 15 15 15 17 19 19 19 19 18 17 16 15 15 14 13 12 11 10 9 8 7 6 5 3 1 -1 -3 -4 -5

GFSWCAN_sfc_30mbdewp_132.txt.gz
Dewpoint
36 35 34 35 35 34 36 36 37 37 38 40 39 40 40 40 40 38 35 37 33 32 33 36 36 30 30 29 26 29 29 30 27 27 27 26 21 20 19 21 21 19 18 18 18 19 15 26 27 21 21 28 27 26
39 38 36 35 36 35 35 36 36 37 38 39 39 40 39 38 38 38 34 37 37 31 32 37 36 36 37 33 29 31 28 30 29 27 27 24 21 23 21 17 27 19 19 20 20 20 23 28 25 28 28 28 27 26
41 39 39 37 36 37 35 35 35 37 38 39 39 39 38 39 39 38 36 38 34 31 29 27 27 38 40 41 39 29 31 31 30 30 28 27 25 25 20 20 26 28 28 23 23 24 25 26 28 29 29 28 28 26
41 42 41 39 39 37 36 35 35 36 37 38 39 38 38 39 39 38 37 37 33 31 24 25 36 34 34 37 42 38 32 33 33 32 29 28 25 29 24 26 24 26 29 27 26 27 26 27 28 28 29 28 27 25
41 41 41 41 39 39 37 36 35 35 36 37 37 37 38 38 39 38 38 37 36 28 25 23 34 36 37 41 41 40 35 33 32 31 31 29 32 32 31 31 29 30 29 28 24 28 27 24 24 28 27 27 26 24
41 42 43 42 41 40 38 36 35 35 36 37 38 38 38 38 38 38 32 38 37 36 30 27 36 36 38 40 39 37 35 35 35 34 33 34 36 32 28 26 27 32 30 29 27 27 26 26 27 27 27 26 26 24
44 45 44 42 41 40 39 37 37 36 37 38 38 38 38 38 38 34 30 35 38 37 31 26 27 37 39 39 38 37 39 37 36 34 31 29 29 31 23 20 23 28 29 29 29 27 26 27 26 27 26 25 26 23
42 44 43 42 41 40 40 38 37 37 37 38 38 39 39 39 40 35 39 39 38 35 35 26 27 31 39 35 34 37 36 37 35 34 30 27 28 26 23 24 25 29 30 29 28 26 27 27 26 26 24 23 21 21
41 42 42 41 41 40 40 39 38 38 38 38 38 38 38 37 32 34 41 40 41 36 29 28 25 23 37 33 35 34 35 30 33 31 30 27 25 23 24 23 24 28 28 27 27 26 27 26 26 25 23 22 21 20
41 41 41 41 41 40 40 40 40 38 38 39 37 34 30 35 41 42 38 34 32 34 33 28 30 29 34 31 31 31 31 29 26 29 29 25 23 26 26 26 26 28 28 27 26 25 26 25 25 25 23 22 22 22
41 41 41 41 41 41 40 39 39 39 38 36 32 32 37 40 37 32 29 28 30 28 31 29 30 30 34 28 29 29 26 23 18 22 26 24 22 24 30 29 28 28 28 27 26 26 26 26 26 26 25 25 25 24
40 40 40 39 39 39 39 39 38 35 35 36 35 37 36 34 31 28 27 28 28 26 27 28 29 30 30 31 31 28 22 22 16 25 24 19 20 28 28 28 28 28 28 27 26 26 26 27 27 28 27 26 25 23
40 40 40 40 39 39 39 37 36 40 37 34 34 32 31 28 23 21 20 24 22 27 27 28 28 29 29 28 24 23 18 19 23 22 20 20 24 29 27 27 28 28 28 27 26 26 27 27 29 28 25 24 23 21
39 38 38 37 37 37 40 41 39 35 30 24 22 22 20 20 19 19 22 23 25 27 28 29 28 28 28 25 23 19 22 23 20 19 18 20 27 27 26 27 27 26 27 27 26 26 27 27 27 25 23 22 21 19
40 40 40 40 41 41 41 40 40 35 30 25 23 20 23 26 26 29 30 29 29 30 27 25 25 26 25 21 22 23 22 19 19 16 20 27 27 28 27 26 26 26 26 25 25 26 27 26 25 23 23 22 21 19
36 35 36 41 41 40 40 38 34 33 30 29 28 27 29 28 29 28 28 28 29 27 25 24 22 20 21 20 17 16 17 14 15 23 26 27 28 28 27 27 27 27 27 26 26 25 25 24 22 21 22 21 20 19
31 30 36 37 35 34 35 31 31 29 28 27 27 30 30 30 29 28 29 28 30 25 22 21 14 15 23 20 20 20 16 21 24 27 29 30 28 27 27 26 26 25 24 24 23 23 20 20 20 20 19 19 19 19
31 34 37 32 30 29 30 30 29 28 27 29 26 28 29 28 29 30 29 29 27 26 24 23 25 21 19 19 21 24 25 26 27 27 28 30 29 28 27 26 26 24 22 21 20 19 19 19 19 19 18 19 18 18
33 35 35 33 29 26 24 27 29 26 27 29 30 30 28 29 30 30 29 30 31 30 28 26 24 22 22 24 24 25 25 25 25 26 28 30 29 28 27 26 23 22 21 20 20 20 20 20 19 19 18 18 17 17
29 31 33 33 28 25 24 26 29 27 25 28 29 28 28 29 28 27 29 29 29 28 26 25 25 27 27 27 26 26 26 26 25 25 26 27 28 27 26 25 24 22 21 22 21 21 21 20 20 19 19 19 17 17
26 29 30 30 28 27 26 26 25 27 26 26 26 26 26 26 25 24 26 28 27 27 26 28 28 29 29 29 28 27 26 25 24 24 24 26 27 27 27 25 24 22 21 20 20 20 19 19 19 19 18 18 18 18
28 30 23 25 25 25 24 26 25 25 23 23 23 24 22 22 22 24 26 25 26 27 29 29 29 28 27 28 29 28 27 28 28 26 26 27 26 26 25 25 24 23 22 20 20 19 20 20 19 18 17 16 17 17
28 25 23 21 19 19 20 24 23 23 18 21 23 20 20 20 22 26 25 26 27 29 29 29 28 29 28 29 28 28 27 26 25 25 26 26 26 26 25 25 24 23 22 21 21 20 20 20 18 17 17 16 15 16
24 19 19 19 18 18 19 19 23 24 23 20 19 18 19 21 24 24 22 24 26 28 29 28 28 27 26 26 26 27 27 27 26 27 27 25 24 25 25 25 25 24 24 23 22 21 20 19 18 17 16 15 15 15
15 17 15 16 17 15 15 16 17 18 20 21 18 18 19 23 21 22 22 23 25 26 26 27 28 26 23 24 25 25 26 27 26 26 27 28 27 26 26 26 26 26 25 22 20 19 18 17 17 16 16 15 15 16
16 19 18 18 18 18 17 17 17 18 18 18 19 19 19 19 18 19 21 23 24 24 25 26 26 25 25 26 24 24 25 26 26 24 24 25 26 26 25 24 25 25 26 24 20 19 18 18 17 17 16 16 15 14
15 17 19 23 23 19 16 16 17 17 17 16 17 17 16 16 15 20 23 24 24 25 26 27 27 26 25 24 24 23 24 24 24 23 23 23 22 22 24 25 24 25 24 24 22 20 19 18 18 17 17 16 14 13
21 20 17 17 18 17 17 16 17 18 19 20 15 16 17 15 17 21 22 25 26 26 26 26 26 25 24 24 23 23 22 22 21 21 19 17 18 20 21 21 22 23 24 24 23 22 21 20 19 18 16 14 12 12
19 19 15 16 17 18 20 19 19 21 23 22 18 18 19 19 18 20 22 24 27 26 24 24 24 25 24 24 24 23 23 22 20 17 16 15 14 18 18 20 22 23 23 24 24 23 22 21 19 16 13 11 10 9
17 17 17 16 16 17 19 21 21 22 23 23 24 23 20 17 16 18 19 20 21 21 21 23 24 24 23 23 22 22 22 20 19 19 19 18 17 15 17 17 19 18 17 16 15 14 14 13 12 10 9 7 6 5
17 16 16 17 17 20 22 23 22 22 21 21 21 21 17 15 14 14 14 15 16 19 20 20 21 21 22 23 22 21 20 21 21 20 19 16 14 15 15 15 15 15 14 13 12 11 11 9 8 7 6 5 4 3
19 18 18 17 17 21 19 18 18 18 19 20 19 18 16 15 15 12 13 13 14 14 14 14 16 16 14 15 17 20 22 20 19 17 16 15 14 14 14 13 13 13 12 11 10 9 9 7 6 5 4 3 2 1
18 17 16 16 16 17 16 15 15 17 17 17 16 13 14 15 16 11 11 9 13 14 14 13 13 12 13 14 16 17 17 17 17 17 16 15 14 13 13 12 11 10 10 8 8 7 6 5 3 2 1 -1 -2 -4

GFSWCAN_sfc_30mbdewp_135.txt.gz
Dewpoint
36 35 35 34 33 33 34 35 35 37 37 39 40 40 40 40 41 38 36 38 33 31 33 36 36 29 29 28 25 28 28 29 27 25 24 24 24 23 20 21 21 20 20 19 18 20 16 26 27 20 22 28 28 28
39 37 35 35 35 34 35 35 36 37 37 38 39 40 39 39 41 38 34 37 35 30 34 37 37 37 35 37 28 31 27 29 28 27 27 26 23 23 21 18 25 19 20 19 19 19 24 28 25 28 28 28 28 28
40 39 38 37 35 35 35 36 37 37 37 38 39 39 40 39 39 40 36 36 33 30 27 28 27 32 40 41 40 29 31 32 30 31 28 27 23 24 21 21 24 26 26 23 22 23 24 26 28 29 29 29 29 28
41 41 40 39 37 35 35 35 36 37 37 38 39 40 40 39 41 39 35 36 32 29 22 23 34 30 36 37 35 38 36 33 33 32 29 28 26 28 25 24 25 26 29 26 25 26 27 28 28 29 30 29 28 27
41 41 41 39 38 36 36 36 36 36 38 38 40 39 39 40 41 39 37 36 34 25 21 23 34 36 36 40 39 41 40 34 34 31 30 28 30 30 30 30 28 30 27 26 24 27 27 28 25 29 29 29 28 26
42 41 42 40 39 36 36 36 36 37 38 38 38 41 40 39 39 36 32 37 38 35 27 22 34 35 35 37 38 39 40 37 36 34 31 32 33 31 28 27 28 30 31 31 29 28 27 26 27 28 29 28 28 26
42 42 41 40 39 38 37 36 36 36 38 39 38 39 38 37 36 32 30 36 38 34 29 21 24 36 38 38 38 36 39 39 36 34 32 33 32 34 30 24 22 27 31 29 29 27 27 27 26 27 27 26 28 25
42 42 42 40 39 37 37 36 36 36 37 38 38 38 38 37 35 33 38 39 36 34 34 24 24 30 39 34 32 39 36 36 36 34 32 31 31 31 26 25 25 28 30 29 29 27 27 27 27 26 25 25 24 23
42 42 40 40 38 38 37 36 36 37 37 38 38 38 36 35 32 32 40 38 39 33 27 27 24 22 36 34 34 34 35 30 34 32 31 30 29 26 27 26 24 29 29 29 27 26 27 26 26 26 24 24 23 22
41 41 40 39 38 37 36 37 37 38 38 38 36 33 29 34 39 40 36 32 31 32 33 28 29 28 33 31 30 30 32 29 26 30 31 28 26 27 27 25 25 28 29 28 26 26 26 26 26 25 24 23 23 21
40 40 39 38 38 37 37 38 38 38 37 35 32 31 36 40 38 32 28 27 28 26 29 30 30 30 35 29 28 31 28 28 23 27 28 26 25 25 29 29 29 29 28 28 27 27 27 26 26 26 25 24 24 22
40 40 39 39 38 38 38 38 37 35 34 34 36 37 36 32 30 26 25 28 26 23 30 28 29 32 33 35 31 28 25 24 19 26 26 23 22 28 28 28 28 28 28 27 27 27 27 26 27 27 26 25 25 24
40 40 40 40 38 38 38 37 34 37 38 36 33 31 29 28 22 21 20 24 25 27 28 31 29 32 32 32 29 28 22 19 24 23 22 22 25 28 28 28 28 28 28 27 27 27 27 27 29 29 27 25 23 21
38 37 38 38 38 37 35 37 39 34 32 27 24 22 24 20 20 20 22 23 25 27 28 30 29 30 29 24 24 19 22 23 21 20 19 21 28 26 27 28 27 27 27 27 27 27 26 27 27 26 24 22 21 20
38 38 37 35 35 39 40 39 38 34 29 24 22 19 21 23 25 27 29 29 29 29 29 26 26 27 24 21 22 23 22 19 20 17 20 27 28 27 27 27 27 27 26 26 25 26 27 27 25 24 23 22 21 20
37 37 39 41 41 40 40 36 34 33 30 28 28 25 29 27 26 27 28 28 29 27 25 25 23 22 21 21 18 18 17 13 16 22 26 28 28 28 27 27 27 27 27 26 27 27 26 25 24 23 22 21 20 19
32 32 37 39 40 40 39 33 30 29 28 27 27 30 29 28 28 29 28 28 29 25 23 21 16 15 23 20 18 20 17 20 25 27 29 29 28 27 27 27 27 27 26 25 25 25 24 23 21 21 20 19 20 20
31 34 37 36 36 33 31 30 29 28 26 28 26 28 29 28 29 28 28 29 27 25 25 23 25 21 19 18 20 24 25 26 28 28 29 29 28 27 27 26 26 25 24 24 23 21 19 20 20 20 19 19 19 19
35 36 36 34 31 26 25 28 29 25 27 28 29 29 29 29 31 29 30 31 30 29 28 26 23 22 22 25 24 26 26 26 26 27 28 29 28 27 27 26 24 23 22 21 21 20 20 20 20 19 19 19 18 18
30 32 33 32 28 25 24 25 29 27 25 28 29 28 29 28 29 30 30 30 31 28 26 25 24 26 27 27 27 27 26 26 26 26 26 27 27 27 26 25 23 22 21 22 21 21 21 20 20 20 19 19 19 18
26 29 30 29 27 27 26 26 25 27 27 25 28 27 27 28 26 27 27 28 27 27 25 27 27 28 29 28 28 26 26 25 25 25 26 25 27 27 26 25 23 22 21 21 20 20 20 20 20 20 20 20 20 19
28 28 23 25 25 24 24 25 25 25 23 24 23 23 22 24 23 24 26 25 26 26 28 28 28 28 28 28 28 27 27 27 27 26 27 27 26 25 25 25 24 23 22 21 21 20 20 20 20 19 19 19 19 18
27 24 22 21 19 19 21 24 23 23 18 21 22 19 20 21 22 26 24 26 26 28 29 29 29 29 28 28 28 27 27 26 25 26 27 27 27 26 26 25 25 24 22 22 22 21 20 19 18 18 17 17 17 17
22 19 18 18 18 18 18 19 23 23 22 19 19 18 19 22 24 23 21 23 26 28 28 28 28 28 28 27 26 27 27 27 26 27 26 25 25 25 26 25 25 25 24 23 22 21 20 19 18 17 17 16 16 16
15 17 16 16 17 15 16 16 17 18 19 19 18 18 20 23 21 21 20 22 25 26 28 29 27 25 25 25 26 26 27 27 26 25 26 28 26 26 26 26 26 26 24 22 20 20 19 18 17 17 16 15 15 15
15 18 18 18 19 17 17 17 17 18 18 17 18 19 20 19 18 18 20 22 24 24 25 26 26 25 25 25 25 24 25 26 26 24 24 25 25 26 25 25 25 25 26 24 21 19 18 18 17 16 16 15 15 15
15 17 20 22 22 18 16 16 17 16 17 15 17 17 16 15 15 18 22 23 23 25 26 27 27 26 24 23 23 23 24 24 25 23 23 22 22 22 23 25 25 25 24 24 22 20 19 18 17 17 16 16 15 14
20 19 17 17 18 16 17 16 17 17 17 18 14 16 16 13 16 19 22 24 25 26 26 26 26 25 24 23 23 23 22 22 21 20 18 17 18 19 21 22 23 23 24 24 23 21 20 19 18 17 16 15 14 14
18 17 14 17 16 17 18 17 18 21 22 22 17 16 17 18 17 19 21 23 26 25 24 24 24 24 24 24 24 23 23 22 21 18 16 17 16 18 18 20 23 23 24 24 22 22 22 20 19 17 15 13 13 12
17 16 17 15 15 15 19 20 20 22 23 23 23 22 19 17 16 17 19 21 23 22 22 23 24 24 23 23 23 22 21 20 19 19 18 18 19 16 19 19 19 19 19 18 17 16 16 14 13 11 10 9 8 8
15 15 16 16 16 20 22 23 22 22 22 22 23 20 17 15 15 14 14 14 16 19 21 21 20 20 22 22 22 21 21 21 20 20 20 18 15 16 15 15 16 16 15 14 14 13 12 11 10 9 8 6 5 5
18 16 17 16 16 20 18 18 18 17 17 18 17 15 15 15 16 12 12 12 14 15 13 14 17 16 13 14 15 17 19 20 19 17 16 15 15 14 14 14 14 14 13 12 11 10 10 9 8 7 5 4 3 2
17 16 16 16 16 16 15 14 14 15 14 15 14 12 14 15 16 12 9 7 12 13 13 13 12 12 12 13 15 16 16 16 16 16 15 14 14 13 13 13 12 11 11 10 9 8 7 6 5 4 3 1 0 -1

GFSWCAN_sfc_30mbdewp_138.txt.gz
Dewpoint
37 36 35 35 33 34 35 35 35 35 36 38 39 39 38 39 40 40 37 40 38 30 32 32 29 27 27 25 21 26 28 28 28 22 18 15 17 20 17 17 21 21 21 22 21 23 17 21 25 20 22 28 29 30
40 38 36 35 34 34 34 35 35 35 36 38 39 40 39 39 41 39 36 40 41 35 34 37 38 38 33 26 23 27 21 22 23 20 16 16 18 20 18 15 21 18 20 20 20 19 26 26 23 27 29 27 30 30
41 39 38 36 35 35 34 35 35 36 36 39 40 40 39 40 40 38 38 39 38 35 32 31 31 34 40 40 39 27 27 28 29 26 26 23 20 20 18 18 18 22 24 23 22 22 23 26 26 28 30 29 31 31
41 41 39 37 35 35 35 36 36 37 38 39 39 40 41 40 40 39 37 38 34 31 28 27 31 30 38 39 38 35 36 35 35 33 26 25 23 24 21 19 19 24 26 24 22 26 26 28 28 28 30 31 31 31
41 41 39 38 36 35 35 36 36 37 37 38 38 40 41 40 39 39 39 38 34 26 23 23 33 33 34 32 34 34 36 35 33 30 28 25 25 28 31 30 25 29 28 25 24 25 26 28 32 30 32 32 31 30
41 42 40 39 37 36 36 36 37 37 37 37 38 40 41 40 40 38 31 37 38 34 29 25 32 31 35 33 34 36 38 38 35 33 28 29 32 28 29 25 24 27 31 33 27 31 32 31 29 30 30 31 31 30
41 41 40 39 38 36 36 37 37 37 38 38 38 40 40 39 38 35 31 34 37 31 24 19 22 32 32 33 33 34 35 35 37 35 34 32 31 32 31 24 28 33 36 34 32 30 30 29 30 29 29 29 30 29
41 42 40 39 38 36 37 37 37 38 38 37 37 41 39 39 39 35 39 38 34 30 31 23 22 31 35 29 29 35 33 36 35 33 33 32 32 34 29 32 31 29 30 32 32 30 30 29 28 28 28 28 27 27
42 39 39 38 36 37 37 37 38 38 37 40 40 39 35 33 31 35 40 37 36 31 25 25 20 24 37 33 34 34 35 30 34 32 32 34 32 27 31 30 30 29 29 29 30 28 28 28 28 28 27 27 26 26
40 39 37 36 37 37 37 37 38 38 41 39 34 32 29 33 39 37 36 33 30 31 33 24 26 26 34 31 31 31 33 31 27 31 34 29 25 27 28 29 28 28 29 30 28 28 28 28 27 27 27 27 27 26
39 38 37 37 37 37 37 38 38 40 36 32 32 31 36 39 36 34 28 24 24 24 27 28 27 27 33 29 29 33 30 30 24 28 28 26 25 27 29 28 27 28 30 29 28 28 28 27 27 28 28 27 27 25
38 38 37 37 37 37 37 38 37 32 31 34 34 35 36 33 30 25 24 25 23 18 25 24 28 30 34 35 31 31 29 26 21 30 29 23 26 28 29 29 30 30 29 28 28 27 27 27 27 28 28 27 27 26
38 38 38 38 38 38 37 36 33 37 36 34 30 30 26 29 23 20 20 21 23 29 29 30 29 32 33 34 31 30 24 24 27 26 21 23 27 29 29 29 29 30 29 28 28 28 28 28 29 29 29 29 27 25
38 38 38 38 38 37 35 39 38 36 33 29 27 22 23 23 23 24 24 26 29 31 31 31 31 31 32 30 30 26 26 25 22 20 19 25 29 28 29 29 29 29 29 29 29 29 29 28 29 29 28 26 25 23
39 39 38 37 36 36 38 38 38 36 33 27 24 18 23 26 27 30 31 31 31 32 33 31 31 32 28 27 24 25 23 20 20 17 26 29 29 29 30 30 30 29 28 28 29 28 28 28 28 27 25 25 24 23
37 36 36 38 40 39 36 36 36 34 32 29 28 27 29 28 27 27 29 30 32 33 31 28 27 26 25 23 21 21 17 14 21 27 28 30 30 31 30 30 30 30 29 28 29 28 29 28 27 27 25 25 23 23
35 34 38 40 40 41 39 35 34 31 29 28 28 30 30 29 29 28 30 32 33 30 28 23 23 21 24 20 18 20 22 25 27 29 30 32 31 30 30 29 29 29 29 28 27 28 27 26 26 25 24 23 23 22
33 35 38 40 39 35 34 33 31 29 27 29 28 29 30 30 30 31 32 32 30 28 26 24 25 23 22 19 21 26 27 28 29 30 31 31 31 30 30 29 29 29 28 28 27 25 25 24 24 24 24 23 22 21
35 36 36 38 36 31 29 30 31 26 28 30 31 31 31 31 32 32 33 32 32 31 29 27 24 22 24 26 27 29 29 28 28 29 30 30 30 29 29 28 27 27 26 26 24 24 24 24 24 23 22 21 21 21
33 33 33 34 33 28 25 27 31 27 27 29 31 30 30 30 30 32 33 32 30 29 26 25 25 27 27 29 28 29 29 29 28 27 28 29 29 28 28 27 26 25 25 24 24 23 23 22 22 22 22 22 22 21
27 29 30 31 29 29 27 26 26 27 28 28 30 30 29 30 29 30 30 32 29 27 25 27 28 29 30 29 29 28 27 26 26 26 26 27 29 28 27 26 25 25 25 24 24 24 23 24 23 22 23 23 23 23
28 28 28 27 26 25 25 26 26 26 25 25 27 26 27 28 27 28 29 28 27 28 29 28 28 28 28 27 27 27 27 28 27 28 28 28 27 27 27 26 25 25 26 26 25 25 24 23 23 23 23 22 22 22
27 26 25 23 21 22 23 26 24 22 21 23 23 23 24 26 26 27 25 26 27 30 29 29 29 29 29 29 28 27 27 26 26 27 28 28 28 29 27 27 27 27 25 25 25 25 24 22 22 23 22 22 21 20
23 21 20 20 21 20 21 22 24 23 23 21 20 20 22 25 26 24 22 24 27 30 29 29 29 28 28 27 26 26 27 26 26 27 27 26 25 26 27 26 26 27 26 25 25 24 24 23 22 21 21 21 20 19
17 18 20 17 20 18 19 19 20 20 20 20 19 20 23 25 23 22 21 24 26 28 29 29 28 27 27 27 27 27 28 27 26 25 28 27 27 26 26 26 26 26 27 26 25 24 23 23 22 21 20 20 19 19
15 20 19 20 21 19 18 19 19 20 20 19 19 21 23 22 21 19 20 24 26 28 29 29 27 26 26 26 26 26 26 27 27 26 25 26 27 28 27 26 25 26 28 27 27 25 23 22 21 20 19 19 19 18
15 18 21 22 22 19 19 19 19 19 18 17 19 20 20 18 18 20 23 25 26 27 29 30 28 27 25 25 25 25 25 26 27 25 25 24 24 24 26 27 27 28 29 27 27 26 24 22 21 20 19 19 19 18
20 20 17 19 20 19 18 18 18 18 18 18 18 18 18 17 17 21 23 26 27 28 28 28 27 27 26 25 25 25 25 24 24 23 22 22 23 24 24 26 26 24 26 27 27 26 25 23 21 20 20 19 18 18
20 20 18 17 18 19 18 18 18 20 22 22 18 17 18 19 21 22 24 25 27 27 26 26 26 27 26 26 26 26 25 24 23 21 20 21 21 22 23 24 24 25 25 25 24 25 25 24 23 21 20 19 18 18
19 19 18 16 15 16 19 21 21 24 24 24 23 21 19 20 20 20 22 24 25 25 26 26 26 26 25 25 24 24 25 25 24 23 21 21 22 22 22 22 22 22 23 24 22 21 20 19 18 17 16 15 15 14
18 20 19 18 17 20 22 23 24 24 24 24 25 23 20 20 19 19 19 20 21 23 24 24 24 26 25 25 24 24 23 25 24 24 24 24 22 21 21 20 21 21 20 20 19 19 18 18 17 15 14 13 11 11
21 18 18 17 18 22 22 20 19 19 20 20 19 21 19 20 19 20 18 18 19 20 19 20 22 22 19 20 20 22 20 23 24 22 21 21 20 20 19 18 18 19 18 17 17 16 16 15 14 12 11 10 9 8
20 19 19 18 18 18 19 18 17 17 18 18 19 18 19 19 18 19 13 14 18 19 19 18 18 18 16 17 19 20 20 20 19 19 18 18 18 18 18 18 17 16 16 15 14 14 13 12 10 9 8 7 5 4

GFSWCAN_sfc_30mbdewp_141.txt.gz
Dewpoint
40 40 38 37 36 35 35 35 35 36 36 37 38 40 38 43 42 41 39 40 37 33 33 31 26 26 23 22 27 31 33 32 31 28 24 19 12 11 11 11 18 19 18 18 18 13 11 17 24 23 21 28 25 25
41 41 38 37 36 35 35 35 36 36 36 37 37 40 38 43 41 40 38 40 42 36 36 35 36 36 36 31 26 24 29 24 28 22 17 12 12 16 15 16 14 16 17 14 16 15 21 22 23 27 27 25 27 26
41 42 39 37 36 36 35 36 36 36 35 36 36 39 38 40 41 36 38 40 38 36 34 33 32 36 37 36 38 29 29 24 22 23 22 18 15 16 18 18 17 17 17 18 18 21 22 26 26 25 25 27 27 29
42 41 39 37 36 35 35 36 36 36 36 37 37 38 37 38 40 37 35 36 37 31 31 30 33 34 39 39 37 37 35 32 33 27 22 22 20 16 18 18 18 20 22 20 20 23 22 23 25 27 26 28 31 31
40 41 39 38 36 35 36 36 36 36 37 37 38 36 37 40 39 39 38 36 37 29 25 28 30 30 36 34 36 35 35 34 30 29 26 20 18 19 25 24 21 19 23 24 23 24 26 26 32 33 31 32 32 32
41 41 39 37 36 36 36 36 37 37 38 38 38 37 40 40 39 37 32 38 39 35 29 25 25 28 31 31 31 32 34 33 33 30 27 24 22 25 24 22 22 22 26 30 28 27 23 33 33 31 29 31 32 32
42 40 39 37 36 36 36 37 37 37 38 39 39 41 41 39 38 32 29 34 39 35 26 23 24 27 29 30 29 32 37 36 34 31 29 26 26 30 27 25 23 25 27 28 28 31 31 32 30 31 30 30 31 30
40 40 37 36 36 36 37 37 37 37 37 38 40 41 41 39 39 35 36 38 39 29 25 19 24 29 31 30 31 37 34 33 35 34 34 27 27 30 27 29 26 25 25 28 30 32 31 31 31 30 29 29 29 28
40 38 37 37 37 37 37 37 37 38 38 40 41 39 38 35 34 36 37 37 40 33 22 20 18 20 32 29 30 33 35 29 34 31 31 32 27 25 29 28 28 28 28 29 30 30 30 30 29 29 28 29 28 27
39 37 37 37 37 37 37 38 38 37 38 39 36 32 30 37 39 36 35 34 31 29 29 21 17 25 31 32 29 31 32 30 28 31 35 29 26 27 26 27 27 28 29 27 28 28 28 29 29 28 28 28 27 27
37 37 37 37 37 39 37 37 40 38 37 36 34 32 37 38 35 32 28 24 24 23 22 22 19 26 32 29 28 32 29 32 25 30 27 23 23 25 26 26 27 27 28 28 26 27 28 28 27 28 29 29 29 28
38 37 37 37 39 39 38 38 39 36 32 32 33 36 36 32 29 25 21 21 18 14 19 20 20 23 31 33 29 31 29 30 25 31 27 21 23 28 29 29 30 29 29 28 28 28 29 28 28 29 29 29 28 28
37 37 38 38 39 39 40 38 37 35 33 31 24 27 26 28 22 19 18 17 17 20 24 22 26 31 34 35 30 31 28 25 28 28 23 21 29 29 30 30 31 31 30 29 29 29 29 29 31 30 30 30 29 27
38 38 38 39 39 38 38 38 36 37 33 23 22 22 23 22 21 19 22 21 26 27 25 25 30 29 32 29 31 27 29 25 24 22 19 26 28 30 31 31 31 31 32 31 31 31 31 30 29 30 29 28 27 25
38 38 38 37 37 38 38 37 39 37 32 24 24 21 23 27 29 31 32 31 31 32 29 27 29 30 29 29 28 28 24 21 20 18 30 30 29 30 31 31 33 31 31 31 31 30 29 29 29 28 27 27 26 25
38 36 34 38 38 39 37 37 36 33 31 30 29 27 29 28 29 29 30 31 33 33 32 29 29 29 27 27 24 23 18 15 23 30 30 31 32 33 33 32 32 31 31 30 30 30 30 29 29 28 26 26 25 24
34 30 37 40 41 40 38 35 34 32 30 28 29 31 30 30 29 31 31 31 33 34 31 30 27 25 26 22 19 20 22 28 28 28 30 34 32 32 32 32 31 30 30 30 29 29 29 29 28 27 25 24 24 23
32 35 38 40 40 38 38 35 32 30 27 29 28 30 32 32 30 32 32 33 34 31 28 23 25 21 22 19 18 28 27 30 31 31 32 32 33 33 33 31 31 31 29 28 28 28 28 27 27 26 26 24 23 23
36 37 38 39 38 37 30 30 31 26 28 31 31 32 32 31 33 33 33 34 33 32 29 26 25 21 24 27 29 30 30 29 29 29 31 32 32 31 32 31 30 30 28 27 26 26 25 25 25 25 24 23 23 22
35 35 36 37 39 33 26 27 31 28 27 30 31 31 31 31 32 33 35 33 31 30 26 25 26 28 29 29 30 31 30 31 30 29 29 30 30 30 30 30 30 28 27 26 26 25 24 24 24 24 24 23 24 23
29 31 32 34 31 29 28 26 26 27 28 29 31 32 31 32 32 31 32 34 32 28 26 28 28 29 30 30 30 30 30 29 27 27 27 28 29 30 29 29 28 27 26 26 26 25 25 25 24 24 25 25 27 26
29 28 30 33 30 26 26 27 27 26 26 27 30 31 30 29 29 30 31 30 28 28 29 29 28 28 28 27 27 27 27 28 28 29 29 29 28 28 27 28 27 27 27 27 26 26 26 24 24 24 25 25 25 25
27 26 26 24 24 24 25 27 25 23 24 25 26 27 28 28 29 31 28 28 28 30 29 28 28 29 29 29 29 28 28 27 26 27 28 29 29 30 28 28 29 28 27 27 26 27 26 24 24 25 25 24 25 24
24 24 25 25 23 24 25 25 24 22 24 22 22 23 24 27 27 25 23 24 29 30 28 28 28 28 28 27 25 26 26 26 26 29 28 27 25 26 27 27 27 27 28 27 25 25 26 25 24 24 24 24 24 22
19 20 25 21 23 22 22 22 22 21 21 22 21 22 24 26 25 22 21 24 27 29 29 29 28 27 27 27 26 27 28 25 24 25 27 25 26 25 24 24 24 25 26 26 26 25 25 24 24 24 23 23 23 22
17 22 22 21 21 20 20 19 20 21 20 21 21 22 24 24 22 21 20 26 27 30 30 31 30 27 27 27 27 26 26 28 26 26 26 26 26 28 28 26 25 26 27 27 27 25 24 23 23 22 22 23 23 23
16 18 20 22 21 20 21 21 21 21 20 19 19 20 21 19 19 22 24 27 29 31 32 32 29 27 26 26 26 27 27 28 27 28 26 25 26 26 27 28 28 28 30 28 27 27 25 24 22 22 23 23 22 23
19 20 17 20 20 21 20 20 20 19 19 19 19 19 18 19 21 24 25 28 30 30 30 31 30 28 28 27 28 27 27 27 27 26 25 25 25 26 26 27 27 25 27 29 29 28 28 26 24 23 23 21 21 23
19 22 21 19 20 20 19 19 18 19 21 20 20 18 19 21 23 23 25 28 29 29 28 27 28 28 27 27 27 27 27 27 25 22 21 22 24 24 24 25 26 26 27 27 25 27 28 28 26 25 24 22 22 22
20 22 20 19 17 16 20 20 22 25 23 23 24 20 19 22 23 24 24 25 26 26 27 28 27 28 26 26 25 25 26 26 27 26 24 23 25 25 24 23 24 24 25 27 25 25 25 25 24 23 21 21 20 19
21 22 19 19 18 22 24 25 24 24 24 24 26 22 24 23 24 24 24 25 26 27 26 26 26 28 27 24 25 24 23 26 25 25 25 25 24 23 23 22 22 22 23 23 22 22 21 21 21 19 18 18 17 16
21 19 18 16 18 24 23 20 21 21 21 21 20 23 22 21 19 24 23 24 24 24 24 27 26 25 26 26 26 27 24 26 25 25 24 24 23 22 22 21 22 22 21 21 21 21 21 20 19 18 16 15 14 13
21 20 19 18 18 18 21 20 18 18 19 18 19 21 20 20 18 24 20 22 24 24 24 24 24 23 22 22 23 23 24 24 23 23 22 23 21 21 21 21 21 20 20 19 19 19 18 16 15 14 13 11 10 9

GFSWCAN_sfc_30mbdewp_147.txt.gz
Dewpoint
41 42 42 42 42 40 42 41 40 39 38 37 38 38 38 39 39 39 36 40 36 31 29 35 38 35 35 33 27 29 33 35 34 30 29 29 28 26 25 25 27 28 28 27 28 25 21 23 17 17 22 28 24 25
41 41 41 42 42 41 43 41 39 38 37 37 37 37 38 39 39 39 35 39 41 36 33 38 42 41 40 39 37 33 31 33 34 31 31 28 26 25 22 18 22 24 24 24 24 21 24 27 28 30 31 28 27 27
42 41 41 42 42 42 41 39 38 37 37 37 37 37 38 39 39 38 36 38 39 35 35 36 36 37 41 40 40 33 35 36 35 36 31 31 25 25 21 23 20 24 24 23 21 21 23 26 30 33 33 29 28 33
41 42 41 41 42 40 39 38 37 37 37 37 37 37 38 38 37 39 37 39 39 37 31 33 37 35 37 37 38 38 35 35 37 35 32 32 30 28 24 23 22 24 25 25 25 26 25 26 32 33 34 32 31 34
41 41 41 41 40 39 38 37 37 37 37 36 37 38 38 37 38 39 39 40 40 36 31 32 35 37 36 35 32 31 32 34 34 32 32 29 29 26 25 23 22 24 22 22 21 26 24 28 32 33 31 30 30 31
41 41 42 40 39 38 38 37 37 37 37 37 37 36 37 37 38 38 34 40 42 42 33 29 32 35 34 33 31 31 31 32 34 32 29 28 27 25 23 22 22 23 25 28 24 27 31 31 31 33 32 30 29 29
41 39 39 38 38 38 37 37 37 37 38 37 37 38 36 38 40 35 33 37 42 43 32 27 28 33 32 30 29 31 34 35 32 30 29 28 27 28 26 23 26 28 30 30 29 30 30 30 32 33 32 30 31 31
39 38 38 38 38 37 38 37 37 38 37 37 38 38 38 40 40 36 40 42 42 38 28 25 28 30 31 28 28 34 32 33 33 30 31 27 27 28 25 30 31 29 28 29 29 28 28 30 33 33 32 30 30 30
38 38 38 37 37 37 37 38 38 38 39 38 40 38 36 36 35 36 39 40 40 35 26 26 25 24 30 28 33 31 33 28 33 29 29 28 24 23 26 28 30 29 29 29 28 28 28 29 31 32 31 30 29 30
38 38 37 37 37 38 38 38 38 38 39 39 37 33 28 35 39 37 32 28 28 32 32 26 30 26 28 28 29 29 32 28 25 27 31 27 25 24 25 29 27 27 28 29 28 27 26 28 30 29 30 29 29 30
38 37 37 37 38 39 38 39 40 39 38 35 32 32 37 39 35 31 27 25 28 24 27 26 28 26 31 26 28 29 27 28 23 26 24 24 26 25 25 25 27 30 29 32 32 32 32 31 30 30 30 30 29 29
39 39 39 38 39 39 40 39 38 35 34 34 36 36 36 33 30 24 24 25 25 20 24 23 27 30 31 31 28 30 26 28 21 32 28 25 26 33 32 29 27 28 33 36 32 31 32 32 32 31 30 29 28 26
38 38 39 39 39 38 37 36 36 39 36 35 30 30 30 28 22 19 18 19 19 21 22 22 24 31 32 32 29 29 25 22 30 27 24 26 32 33 33 34 34 33 32 32 31 31 30 30 30 30 28 26 25 25
39 38 37 37 38 37 36 37 38 39 35 29 24 19 23 22 22 19 19 19 24 26 24 25 26 29 30 28 28 25 26 30 22 22 22 30 31 32 32 32 31 30 30 30 29 29 29 28 28 28 27 26 25 26
39 39 39 37 37 38 40 40 39 39 33 27 25 19 22 26 30 31 31 30 31 31 28 26 28 28 28 26 27 25 24 22 23 21 30 31 30 32 31 31 31 30 29 29 28 28 28 27 27 27 27 27 26 26
38 37 37 40 40 40 39 40 40 36 32 30 30 26 28 28 28 28 29 29 32 32 30 27 25 23 21 22 23 22 22 19 25 29 32 30 30 32 31 31 31 30 30 29 28 27 27 26 25 26 26 26 25 25
37 33 36 40 40 39 40 37 35 31 31 28 27 31 30 29 28 29 30 31 34 30 25 24 21 20 24 21 22 24 22 28 30 29 31 31 32 31 30 30 29 29 29 29 28 28 29 28 26 25 24 25 25 24
38 38 40 40 38 38 38 37 33 31 30 31 29 30 31 32 31 31 32 32 34 32 29 26 33 24 21 21 22 28 28 30 29 32 32 31 31 31 30 29 29 28 28 28 29 29 28 27 26 25 25 25 25 25
36 39 37 39 39 38 35 30 31 28 29 31 32 33 32 32 33 33 32 33 34 36 34 32 29 27 26 29 29 30 29 27 28 31 32 32 31 30 30 31 30 29 28 28 28 28 28 28 28 27 26 25 23 24
34 37 40 40 38 36 32 28 31 29 28 30 31 31 32 32 33 31 33 33 33 33 31 30 29 29 30 29 29 31 30 31 30 29 29 30 31 30 30 30 30 29 28 27 27 27 27 28 29 26 26 25 24 24
33 35 36 36 36 35 33 30 27 28 28 27 32 29 30 32 30 31 31 35 33 31 31 31 30 30 30 29 31 32 33 31 29 29 28 28 31 31 31 31 30 29 27 27 26 26 26 26 27 27 26 28 27 26
31 32 35 36 33 32 32 31 28 28 27 29 29 29 28 29 29 31 32 30 30 31 31 30 30 28 29 28 29 31 31 30 30 31 31 31 30 30 30 30 30 29 28 28 27 27 29 27 27 27 27 28 28 28
28 30 30 33 30 26 25 29 26 26 23 25 27 25 27 28 31 31 28 31 32 31 31 30 29 30 29 29 28 28 29 29 30 30 30 30 30 30 30 30 31 29 29 29 30 29 28 28 27 26 27 28 27 26
27 27 25 25 25 24 27 25 27 25 24 23 23 22 24 28 30 28 26 28 30 31 30 30 30 29 28 27 27 27 28 30 30 31 31 31 30 30 29 30 31 30 31 30 29 29 27 27 27 27 26 25 26 24
22 20 23 20 26 23 20 19 22 21 21 23 22 21 25 27 25 25 24 28 30 29 30 30 29 28 27 28 27 27 29 29 28 28 28 29 29 29 29 29 28 30 31 29 28 28 27 27 26 26 26 25 25 23
17 23 19 21 21 20 20 18 21 20 22 21 21 25 25 25 23 21 25 29 30 31 29 29 29 28 29 28 27 26 26 28 28 26 27 28 27 27 26 25 25 26 27 26 27 27 26 26 25 25 25 25 26 24
16 20 21 22 21 20 19 19 21 21 20 18 21 22 20 19 19 24 28 28 29 32 32 32 31 31 30 29 28 28 28 29 29 27 27 27 27 28 29 28 27 28 28 27 27 27 26 25 25 25 25 25 25 25
20 18 17 21 19 20 18 19 19 19 20 24 20 19 17 21 21 25 25 27 30 31 33 33 33 33 31 29 28 27 27 27 26 26 25 25 25 25 26 27 27 29 30 28 28 29 28 26 25 25 24 24 24 26
18 22 19 17 19 20 20 19 20 24 23 21 20 20 24 24 24 24 25 27 30 29 30 29 29 30 29 28 28 27 27 27 25 23 23 23 23 24 25 26 25 27 28 27 27 28 28 28 26 25 25 24 24 23
22 21 18 19 17 16 20 23 22 26 25 23 25 23 22 22 27 26 25 25 25 27 29 29 29 28 26 26 26 26 28 27 28 27 23 23 25 25 24 25 25 26 27 27 24 24 28 28 27 25 23 23 22 21
22 22 20 18 17 20 25 27 27 26 25 22 22 21 21 24 27 26 25 25 26 28 29 28 27 28 27 27 25 24 23 25 27 27 26 26 26 24 24 24 25 23 24 27 24 24 25 24 22 21 21 20 20 18
24 21 20 18 18 26 25 23 22 22 22 22 23 25 25 25 21 22 26 26 25 26 27 28 28 27 29 30 29 28 26 24 24 24 24 24 25 24 23 22 23 24 25 24 25 24 24 22 21 20 18 17 16 15
23 22 21 21 20 20 23 21 19 20 20 21 19 20 21 23 20 24 26 28 26 24 24 26 29 29 28 27 27 27 27 26 26 25 26 25 24 23 23 24 25 24 24 24 23 23 22 20 18 16 14 13 12 10

GFSWCAN_sfc_30mbdewp_153.txt.gz
Dewpoint
42 42 42 41 41 41 41 42 42 41 42 42 42 42 42 41 39 38 35 37 33 27 24 27 28 24 26 29 24 31 33 34 34 28 26 27 27 29 28 26 27 28 27 26 26 24 20 27 26 21 21 24 23 26
43 42 43 41 41 41 40 41 42 42 41 41 42 42 42 41 39 37 32 37 37 30 25 31 29 31 32 32 31 31 31 32 32 29 29 29 27 28 27 24 33 26 26 25 26 24 27 28 25 26 26 23 26 28
42 43 43 42 41 41 40 41 42 42 42 41 41 42 41 40 38 36 33 36 36 31 29 30 27 32 37 37 36 29 30 35 35 34 32 32 27 29 24 26 28 31 33 29 27 26 26 27 31 32 30 26 29 31
43 42 42 41 40 41 42 42 42 42 42 42 43 41 40 39 37 37 34 37 33 32 24 23 32 31 38 38 37 37 36 39 37 35 32 30 26 30 26 25 26 24 31 27 25 25 27 26 28 32 30 29 31 31
43 42 41 41 42 42 42 41 41 42 43 42 41 40 38 37 36 38 37 37 36 30 26 27 34 37 39 38 40 39 40 38 35 31 29 27 31 30 29 29 25 26 26 24 23 24 24 25 29 33 30 30 32 31
41 42 42 41 41 41 41 42 42 41 41 40 39 38 37 37 38 36 31 35 38 38 30 25 35 36 39 39 39 39 39 34 35 31 29 30 30 26 25 25 26 25 27 28 24 27 28 27 30 34 33 32 33 33
41 41 41 41 42 41 40 40 40 39 39 38 37 37 37 38 38 32 28 33 37 38 31 27 30 36 37 33 33 34 35 34 31 29 27 27 27 26 23 21 22 24 26 28 29 28 27 31 27 33 33 32 33 33
40 39 39 39 39 39 39 38 38 38 37 37 37 37 38 39 37 34 35 37 38 32 33 27 29 31 35 28 28 33 29 30 30 27 29 25 25 24 20 22 23 24 27 28 29 30 28 28 32 32 33 31 31 31
39 39 39 39 38 38 38 38 38 38 37 37 38 37 35 33 31 32 33 34 38 33 28 29 24 24 31 31 30 30 30 20 31 27 26 25 23 19 19 18 18 20 24 23 24 25 28 28 29 32 32 31 30 31
39 39 39 38 38 39 39 39 38 38 38 38 34 29 26 32 36 37 35 31 33 33 31 28 28 27 27 27 27 26 27 25 23 25 29 26 23 24 24 24 25 23 25 28 27 26 27 28 28 32 33 31 31 31
39 39 39 38 38 37 37 38 38 38 38 34 31 31 36 40 35 32 28 27 28 26 29 30 27 26 30 23 25 26 25 25 20 23 25 23 22 25 32 34 35 32 28 28 29 29 30 28 28 30 33 33 32 32
38 39 39 37 37 38 39 40 40 38 36 35 34 36 37 33 29 24 24 26 24 16 25 25 27 28 29 29 27 28 24 24 18 27 25 21 25 32 32 32 32 33 29 29 31 31 33 34 33 32 32 31 32 30
39 39 38 38 38 39 39 40 41 40 38 34 30 27 23 23 17 16 17 21 19 23 25 29 27 29 30 29 27 25 21 20 27 22 19 22 29 31 31 30 31 31 32 32 31 32 32 31 31 31 29 27 26 24
37 36 36 37 38 38 39 40 41 39 33 28 22 16 20 17 21 21 20 19 23 23 25 27 26 25 28 26 26 20 23 25 20 19 19 24 31 30 29 29 29 28 28 28 28 27 26 26 25 24 23 22 22 22
37 38 39 38 38 39 39 40 41 38 32 28 24 21 24 27 27 28 28 27 30 26 27 25 24 24 24 22 25 23 22 18 20 18 22 30 31 29 28 29 28 27 27 27 26 26 25 24 24 24 23 22 22 21
40 39 37 39 39 39 39 40 38 36 31 30 26 23 23 24 24 25 26 24 28 28 26 24 22 19 17 21 22 20 18 16 18 24 30 30 30 29 29 29 29 29 28 27 27 27 26 26 26 25 26 25 25 24
38 33 35 40 39 39 39 36 33 30 28 26 25 28 27 24 23 24 28 28 30 28 21 23 19 17 21 19 20 22 20 21 23 29 30 31 30 29 29 29 29 28 27 27 26 26 26 26 25 25 24 24 25 24
33 37 38 38 39 37 35 36 32 31 28 30 27 29 30 30 30 28 28 30 31 30 27 22 24 20 19 18 19 20 26 29 28 30 30 30 30 30 30 29 28 27 26 26 25 25 25 25 24 24 24 25 24 24
32 34 34 36 39 36 32 31 31 27 28 29 30 30 31 31 32 32 32 32 32 34 32 28 24 23 22 25 26 28 28 27 28 30 30 30 29 28 28 28 27 27 27 28 27 26 25 25 25 25 25 24 23 23
33 32 31 34 38 33 31 30 32 28 25 28 30 29 29 29 30 31 31 32 31 31 28 27 25 26 28 28 30 30 28 27 29 28 28 29 29 28 28 27 26 27 27 28 28 28 27 27 26 25 25 24 23 23
31 33 38 37 36 34 31 30 29 28 28 28 29 29 26 30 30 29 30 32 29 28 27 29 29 31 32 30 30 30 29 28 28 28 27 28 30 29 28 28 28 28 27 27 26 27 27 27 27 26 25 24 21 22
29 35 34 35 32 31 30 30 29 30 28 27 29 28 26 23 26 29 32 29 29 28 28 29 30 31 30 28 29 31 30 29 28 29 29 29 29 29 29 29 28 27 27 26 27 27 27 28 28 27 26 25 24 24
30 30 29 32 28 25 23 27 25 26 25 24 28 25 25 26 28 32 27 28 26 29 30 31 30 30 29 29 29 30 31 30 30 30 29 30 30 30 30 29 29 27 26 27 28 27 26 27 27 27 27 27 26 25
28 27 24 24 23 21 23 21 25 26 25 24 22 21 23 26 29 26 23 26 29 29 30 30 29 28 28 28 28 28 29 30 31 30 31 30 29 29 30 29 29 28 28 28 28 28 28 27 27 27 27 26 25 23
20 17 18 15 21 21 17 16 18 19 19 21 21 19 21 27 22 23 23 27 28 29 29 30 31 30 28 27 27 28 30 30 29 29 30 31 30 29 29 30 30 30 30 29 27 27 27 27 26 25 24 24 23 22
18 18 15 18 20 19 19 17 18 19 20 20 19 21 21 21 20 19 22 24 27 28 29 29 29 28 28 29 28 27 28 30 30 29 30 31 30 28 28 27 27 28 30 29 28 27 26 26 25 25 24 23 23 22
16 19 21 24 22 19 16 17 20 19 17 17 17 20 17 13 14 21 26 26 25 28 29 30 30 30 30 30 30 28 28 29 28 28 29 30 29 29 28 27 26 26 28 28 28 27 26 25 25 24 24 23 22 22
19 19 17 18 19 19 17 16 16 18 16 20 21 19 15 14 17 23 23 24 25 26 27 30 31 32 32 31 30 27 26 26 25 25 25 25 26 27 28 28 28 26 27 27 27 27 26 25 25 24 24 23 23 21
20 20 19 15 16 16 18 18 15 17 23 22 19 17 18 23 23 22 22 23 25 25 23 25 28 29 28 27 27 27 26 26 25 24 23 22 23 23 24 26 27 27 27 27 27 27 26 25 24 23 23 21 21 21
21 22 18 16 17 14 14 19 19 20 24 25 24 23 22 22 21 20 20 22 23 23 22 24 26 28 26 25 25 25 26 26 25 24 22 22 22 21 24 24 26 27 27 27 26 26 27 24 22 21 21 21 20 19
22 22 19 18 16 16 17 17 20 22 23 22 20 21 20 20 19 18 20 21 22 22 24 24 26 26 25 25 25 24 23 26 27 26 25 24 22 24 25 25 26 27 26 25 24 23 23 22 22 20 19 18 17 17
20 19 18 17 16 18 19 20 19 20 19 20 19 17 20 21 20 20 23 23 23 23 23 24 25 25 25 26 27 27 24 25 25 25 25 24 25 25 24 24 23 23 24 24 24 23 22 21 20 19 18 16 15 14
15 18 17 17 15 14 17 20 18 17 16 18 18 16 18 19 18 19 23 25 26 25 25 26 28 29 27 26 26 25 24 25 26 26 26 25 24 23 23 23 23 24 23 21 22 21 20 19 17 16 15 13 11 10

GFSWCAN_sfc_30mbdewp_159.txt.gz
Dewpoint
42 42 42 41 41 41 41 41 41 41 43 41 40 40 39 39 39 38 34 34 27 26 24 24 23 24 27 25 19 23 19 28 28 26 21 21 25 25 22 20 21 23 24 24 26 22 17 27 26 22 23 25 22 26
42 42 42 41 41 41 41 41 41 41 41 42 41 41 41 40 40 40 35 35 32 29 27 28 27 25 23 23 23 25 19 23 27 23 26 27 27 28 26 20 31 22 23 21 22 21 29 31 28 29 27 25 25 25
43 42 42 41 42 41 41 41 41 41 41 42 43 42 42 41 40 41 37 37 33 30 29 29 26 30 30 28 29 24 28 29 31 31 26 27 22 28 23 24 24 31 34 30 29 25 27 30 30 30 30 28 26 27
43 43 42 42 42 41 42 41 41 41 41 41 41 42 42 41 42 42 36 37 34 31 24 24 28 27 27 31 31 30 28 27 28 31 27 25 23 28 26 24 24 27 31 29 30 30 32 32 30 30 31 31 30 31
42 42 42 42 42 41 41 42 41 42 42 42 41 41 41 42 42 42 36 38 37 28 23 23 27 30 31 30 29 29 31 30 29 27 26 24 26 29 30 28 27 31 29 27 23 28 31 32 33 30 30 28 29 30
41 42 42 41 41 41 42 43 42 41 42 42 42 42 41 41 37 34 30 34 37 34 27 19 24 27 26 30 31 30 30 31 30 29 28 30 30 32 27 25 26 29 30 31 25 29 32 31 29 31 31 30 30 30
41 41 41 41 41 40 40 40 41 41 41 41 42 42 42 38 37 32 28 32 37 35 27 22 22 32 30 33 32 32 33 32 31 31 29 28 30 32 26 23 21 26 28 29 30 29 27 28 27 31 33 33 34 33
39 40 41 41 41 41 41 40 40 40 41 41 40 38 39 38 37 33 38 38 36 30 31 22 21 24 33 31 29 34 32 31 30 30 30 29 29 28 23 24 24 24 24 24 25 29 29 29 29 30 33 33 33 32
39 39 39 39 39 39 39 39 39 39 39 40 40 38 36 34 30 34 39 38 37 31 24 24 19 13 32 31 31 31 31 25 31 28 28 28 26 24 22 20 19 20 17 18 22 23 24 27 28 26 29 30 31 32
38 38 39 39 39 39 38 38 39 39 39 37 30 27 26 30 37 35 31 29 30 30 30 24 30 22 28 28 27 28 28 25 22 24 29 26 22 22 23 23 24 25 29 30 29 28 26 23 23 23 24 26 28 31
39 40 38 37 39 38 37 36 36 35 34 31 27 28 32 36 31 28 23 22 23 23 27 26 23 20 29 26 26 27 24 25 20 23 22 22 18 22 27 32 32 31 31 31 32 32 31 26 24 26 28 29 31 33
38 39 39 40 38 38 37 37 36 36 34 33 34 36 35 30 26 22 22 23 23 20 26 27 28 27 30 31 28 26 23 23 17 26 22 16 21 26 31 31 31 31 30 31 31 31 31 29 31 31 30 31 31 33
39 39 40 40 41 40 40 38 37 38 37 36 33 29 27 27 20 18 15 21 22 24 26 29 28 30 29 28 26 23 20 20 26 21 18 19 22 31 30 30 30 30 28 29 29 30 30 28 28 30 30 29 31 30
40 40 39 39 39 40 41 41 40 40 35 29 24 22 21 19 20 20 20 21 24 25 26 29 26 26 27 25 24 18 23 22 17 15 15 20 26 29 29 29 29 28 26 26 25 24 24 24 24 25 25 26 26 25
37 39 37 37 36 39 40 41 41 37 30 26 23 20 22 25 27 27 28 27 28 28 27 25 24 25 24 22 23 21 19 15 16 15 19 26 29 30 29 28 28 26 24 25 24 24 23 24 25 24 24 25 25 24
36 35 36 35 35 37 39 39 37 33 29 26 24 22 23 23 23 23 24 26 28 27 25 24 20 17 18 20 19 16 15 12 12 20 23 29 30 29 29 28 27 27 26 26 26 25 25 25 25 24 24 22 21 21
33 32 35 34 35 37 37 34 31 29 26 25 24 26 24 23 22 23 25 27 31 26 23 21 16 14 21 18 17 20 16 15 18 22 29 30 29 29 29 29 27 27 27 26 26 26 25 25 26 24 24 24 24 23
28 32 34 34 33 36 32 32 31 28 26 26 25 26 27 26 25 26 27 29 29 28 25 21 22 18 16 15 17 20 22 23 27 27 28 29 30 29 29 28 28 27 26 26 25 25 24 24 24 24 24 24 23 23
32 34 34 34 33 34 31 30 31 26 26 27 28 28 28 28 29 30 29 30 32 33 29 27 23 21 19 21 19 20 24 27 27 27 28 30 30 30 29 28 27 26 25 25 25 25 25 25 24 24 24 23 23 22
33 32 37 34 35 30 27 28 31 28 25 27 29 28 27 28 29 29 31 31 31 30 27 24 24 24 23 25 26 26 28 28 29 28 28 29 29 29 28 28 27 27 27 27 26 26 26 25 25 25 25 24 23 22
30 32 35 36 34 32 29 28 28 29 29 28 28 28 27 28 27 27 28 31 28 27 26 27 27 27 28 31 30 30 29 30 30 29 27 28 29 29 28 27 27 27 27 27 26 26 26 25 25 26 25 25 24 23
27 32 32 32 29 28 27 30 28 29 28 28 28 28 26 24 24 28 30 27 26 28 28 27 28 28 29 30 31 31 30 29 29 27 27 28 28 28 28 28 27 27 28 28 27 27 27 27 27 26 25 23 22 22
30 30 29 29 22 22 23 26 25 27 24 25 27 25 24 24 27 31 26 28 28 29 30 30 31 31 30 30 29 31 30 29 28 28 28 28 29 29 28 29 29 28 28 28 28 28 28 28 27 26 25 23 23 22
26 25 22 22 24 19 22 22 23 24 23 23 22 20 21 24 28 26 24 26 27 29 28 29 30 29 30 30 29 29 30 29 28 29 29 30 29 29 30 29 29 30 29 28 28 28 28 28 27 26 25 24 24 23
18 17 14 17 21 20 15 16 16 16 15 17 19 19 21 23 21 20 21 22 25 23 23 26 27 29 28 28 29 30 31 31 29 29 30 30 30 29 29 29 29 30 30 28 27 27 27 27 27 26 25 25 24 23
16 19 18 18 19 19 19 17 17 18 19 18 18 19 18 18 17 16 21 23 24 23 22 23 25 26 27 30 29 29 30 31 31 29 30 31 30 29 28 27 26 27 30 29 28 27 26 26 26 25 24 24 23 22
15 16 20 22 21 20 15 15 18 17 17 16 16 18 17 12 12 18 25 27 25 23 25 26 26 26 27 28 30 30 30 31 30 29 30 30 31 31 29 27 27 27 29 29 28 27 26 25 25 24 24 23 22 22
21 20 16 18 16 18 17 15 13 14 17 21 19 16 15 14 16 23 24 24 23 24 25 25 24 26 27 28 29 27 26 26 26 26 27 27 26 27 28 29 29 28 29 28 28 28 28 26 25 24 23 23 22 21
16 14 20 15 17 18 18 17 17 19 22 22 19 16 16 18 20 20 20 20 21 22 21 21 23 24 26 27 27 27 26 27 27 25 25 24 25 26 25 27 26 28 28 28 27 27 27 26 25 24 23 23 22 21
11 13 13 15 15 15 19 22 20 19 19 22 24 24 23 21 18 20 22 22 21 21 21 21 22 25 24 25 24 24 27 28 29 27 25 24 24 26 26 27 27 27 28 27 25 24 23 23 22 22 22 21 21 20
12 10 12 8 10 17 14 17 17 17 19 20 19 19 20 17 19 21 21 22 23 24 24 23 23 24 25 24 23 23 23 26 27 27 26 25 25 25 26 26 27 27 27 26 25 24 23 23 22 20 19 18 17 17
8 6 6 6 5 7 11 10 12 16 15 16 17 15 18 19 17 18 21 20 19 19 20 21 22 23 25 24 26 26 27 25 25 24 23 23 24 25 26 26 26 26 26 25 25 23 23 21 20 19 17 16 14 14
4 5 6 9 9 3 1 7 15 14 13 15 17 15 15 16 14 15 18 19 18 17 17 19 20 20 22 24 25 23 23 23 23 23 23 23 24 24 25 25 25 25 24 23 21 21 20 19 17 15 14 13 11 11

GFSWCAN_sfc_30mbdewp_162.txt.gz
Dewpoint
43 42 42 41 40 41 41 41 41 41 42 41 41 39 39 39 38 38 33 33 27 25 21 23 19 18 17 17 15 17 18 19 22 19 14 13 16 16 23 20 18 21 22 22 22 18 16 15 17 21 18 21 25 24
42 43 42 41 41 42 41 41 41 42 41 42 41 40 40 40 38 38 33 34 31 27 24 28 25 23 20 20 20 20 18 21 23 22 24 21 20 22 23 20 19 18 20 17 20 18 24 30 27 28 31 29 27 26
42 43 42 42 42 42 42 41 41 41 41 42 42 40 40 40 39 38 35 36 33 31 28 28 26 28 28 26 24 21 19 20 19 24 25 22 19 21 18 19 23 26 28 24 23 22 21 21 23 26 27 28 29 28
43 44 42 42 42 42 42 41 41 41 41 42 43 41 41 40 40 39 36 37 33 29 24 22 28 27 27 29 27 26 24 22 26 26 23 22 19 22 20 25 21 29 28 27 27 27 27 27 28 31 32 31 32 31
43 43 42 42 42 42 41 41 42 41 42 42 43 42 41 41 41 40 39 38 36 28 24 22 25 26 27 27 27 27 26 25 24 23 24 23 23 23 23 25 24 28 25 26 21 23 25 26 33 34 33 31 31 30
42 41 41 42 42 42 42 42 41 41 42 42 42 43 42 41 42 35 29 34 38 35 31 23 26 23 26 26 25 25 27 27 27 24 23 22 23 27 23 20 25 24 28 27 24 26 29 31 31 31 35 36 32 32
41 41 41 42 42 41 42 41 41 41 42 42 42 42 42 42 40 32 31 34 38 37 30 25 24 25 24 25 27 28 28 30 29 27 25 22 28 29 26 22 24 26 29 30 30 30 28 29 28 30 32 33 34 32
40 40 41 41 40 40 40 40 41 42 42 42 42 42 41 39 37 34 38 38 38 33 31 22 18 25 30 27 28 30 28 31 30 27 30 26 26 30 25 24 25 25 25 25 24 27 28 29 29 28 31 32 32 32
40 40 39 40 40 41 41 42 41 41 41 40 39 38 37 35 32 34 38 37 36 30 22 19 15 14 32 29 31 31 32 25 28 26 26 30 26 24 24 26 26 22 19 19 21 27 25 22 22 27 26 27 26 29
39 39 39 39 39 39 40 40 39 39 38 38 35 31 28 34 39 37 35 30 29 29 29 22 21 18 27 28 29 29 30 27 24 25 31 27 24 27 27 25 22 24 26 31 31 28 29 28 24 21 22 25 25 23
39 39 38 38 39 39 39 39 38 36 34 32 29 29 35 37 32 29 24 22 24 22 23 23 23 21 30 19 23 30 27 25 20 25 23 20 22 28 30 32 32 32 32 31 32 32 32 32 30 24 26 29 31 31
40 41 38 37 36 36 36 36 36 35 35 33 32 34 34 29 26 21 19 21 20 15 22 25 25 25 27 30 27 28 26 24 20 27 24 17 24 28 31 31 31 31 31 31 31 32 32 33 32 30 31 34 34 35
39 40 39 40 39 37 36 36 36 37 36 36 31 28 27 25 19 16 15 18 18 24 26 30 28 29 31 32 27 26 22 20 27 23 17 18 23 31 31 31 31 31 30 30 30 31 31 30 30 32 32 31 33 32
37 39 38 36 38 41 39 37 37 36 36 31 27 22 22 21 21 19 16 18 26 26 28 30 30 30 29 26 24 21 23 23 18 16 12 22 29 31 31 31 30 30 28 28 28 27 26 27 27 28 28 29 29 29
36 37 36 35 36 39 41 41 38 38 35 28 25 20 22 25 28 28 29 28 29 30 29 31 28 27 26 24 23 21 20 16 15 13 21 29 31 31 30 29 29 28 27 28 28 27 27 29 28 27 27 28 28 27
35 35 35 35 35 38 41 42 40 36 33 29 26 24 26 25 27 27 28 28 29 29 30 28 23 23 22 22 20 17 12 10 16 24 30 31 31 30 30 29 29 29 29 28 28 28 28 28 27 27 26 25 25 26
33 32 35 34 35 36 38 37 34 30 27 26 25 28 27 26 27 28 28 29 31 30 27 23 19 15 23 19 16 18 17 23 30 30 32 31 31 30 30 30 29 29 29 29 29 28 27 28 28 27 26 26 25 23
30 31 32 34 34 34 35 35 32 30 27 27 26 27 27 28 27 28 28 29 31 30 26 23 23 18 19 14 15 23 27 31 31 31 31 31 31 30 30 30 30 29 28 28 28 27 27 27 26 25 25 25 24 24
31 31 32 33 34 32 30 31 32 26 28 29 29 29 29 29 30 30 29 29 31 32 30 27 25 20 19 22 27 31 31 31 31 31 31 32 33 32 31 31 30 29 28 27 26 26 25 25 25 24 24 24 23 23
32 32 35 36 36 31 27 29 32 29 26 29 30 28 28 28 30 30 30 31 29 27 26 26 24 27 28 29 31 30 32 32 31 29 29 31 32 31 30 28 27 27 27 27 26 26 25 25 24 24 24 24 23 23
30 31 35 36 35 32 28 27 29 30 29 28 30 29 28 29 28 27 27 31 29 26 24 26 29 32 31 31 33 33 33 32 32 32 31 30 31 30 29 29 28 28 27 27 26 26 26 26 25 25 26 25 25 24
27 31 34 33 29 28 26 30 28 29 28 29 29 30 28 27 27 28 29 27 26 27 30 30 30 31 30 30 31 32 32 32 32 30 29 30 29 29 28 28 28 27 27 28 28 28 28 27 26 26 26 26 25 24
30 30 30 26 22 22 24 27 26 26 24 25 28 26 26 26 28 31 27 29 29 29 30 31 31 31 31 32 31 32 33 33 33 29 29 29 29 31 29 29 29 30 28 28 28 28 28 28 27 27 26 25 25 23
25 25 24 24 23 21 24 23 23 24 24 23 21 21 23 25 28 27 25 23 26 24 22 24 26 27 29 31 30 31 31 32 33 32 31 30 30 30 30 30 30 30 30 29 29 28 28 29 28 27 26 25 24 23
19 19 18 19 22 19 18 18 19 17 17 18 19 20 22 24 21 20 21 23 23 24 24 24 24 24 27 29 30 31 32 32 31 31 32 32 31 31 30 30 30 31 32 31 29 29 28 28 28 27 26 26 25 24
17 21 20 19 20 20 18 17 18 18 19 19 20 21 22 21 17 17 21 23 23 24 26 26 24 23 22 26 28 29 31 32 33 31 32 32 32 32 30 29 28 29 31 32 31 29 28 28 28 27 27 26 26 25
13 15 20 22 20 21 18 18 18 19 17 17 18 19 19 13 14 21 27 26 24 27 26 27 27 24 23 24 28 30 31 32 31 30 31 31 32 33 33 31 29 30 32 32 32 31 29 28 28 27 27 27 26 26
17 10 11 18 19 20 18 17 16 16 19 18 16 15 16 17 19 24 23 24 24 24 25 26 25 26 26 26 28 29 29 29 29 29 29 29 29 30 31 32 32 31 32 32 31 31 30 29 28 27 26 26 25 26
3 9 13 15 18 19 18 18 18 19 20 18 18 16 18 22 21 21 22 24 25 24 23 24 25 27 27 28 29 29 30 30 29 27 26 27 28 28 29 30 31 31 31 30 30 31 30 29 29 28 26 25 25 25
6 9 8 11 4 15 18 13 11 15 19 20 22 23 23 21 21 23 21 22 22 23 24 25 26 26 25 26 26 27 29 30 30 30 27 27 28 29 30 30 29 30 31 30 28 26 26 26 26 26 25 24 24 23
8 7 7 3 1 6 11 14 17 19 20 21 21 21 20 20 21 20 19 20 21 21 20 20 23 26 25 25 25 25 26 29 29 29 29 30 29 29 29 29 29 30 30 28 28 27 26 26 25 24 23 22 22 21
7 7 5 5 5 9 14 8 10 17 19 20 20 19 20 21 15 15 19 18 17 17 17 19 19 20 22 26 28 28 28 27 27 27 27 28 28 28 28 28 28 29 29 28 28 27 26 25 24 22 21 20 20 19
7 8 9 8 6 6 7 8 12 16 17 18 19 18 17 16 10 15 18 19 17 17 16 17 20 22 23 25 27 26 26 25 25 25 25 26 26 27 27 27 28 28 27 27 26 26 24 24 22 21 19 18 17 16

GFSWCAN_sfc_30mbdewp_168.txt.gz
Dewpoint
43 43 43 42 43 42 41 42 42 41 41 41 41 41 41 40 42 41 36 37 35 28 23 20 21 17 13 12 12 16 20 24 22 20 15 14 14 14 13 14 12 11 15 20 26 23 19 21 25 19 23 28 26 24
42 43 43 43 43 43 42 42 42 41 41 42 42 41 41 40 41 41 34 37 35 33 28 29 26 22 19 18 19 24 25 22 29 24 23 25 22 21 21 16 15 12 20 27 27 27 29 31 25 31 36 30 32 34
43 43 44 44 43 43 42 42 43 41 41 41 42 41 41 40 40 40 34 36 35 32 30 27 23 24 26 25 24 21 20 19 21 21 22 21 16 15 16 18 22 24 22 24 22 24 25 29 31 35 34 29 29 29
43 43 44 43 43 42 42 42 42 41 41 42 43 41 40 40 41 41 35 37 34 29 24 22 24 24 25 27 26 25 24 24 25 25 25 21 18 17 17 16 16 19 20 19 20 24 29 28 28 32 30 29 28 32
43 43 43 43 43 42 42 42 41 41 42 42 43 42 40 40 40 40 37 37 36 27 25 26 27 22 25 26 26 27 27 26 27 27 25 23 20 19 19 18 16 13 15 19 21 27 32 35 36 35 31 25 29 36
42 42 42 42 42 42 42 41 41 42 42 42 41 42 40 41 40 38 32 37 38 35 32 22 26 25 25 26 26 26 27 28 29 31 28 24 23 21 18 15 14 17 18 23 24 28 28 32 36 27 25 27 31 34
42 42 42 42 42 42 42 42 42 42 42 42 42 42 41 41 39 33 33 37 39 37 31 25 21 22 24 24 27 27 28 29 30 30 28 27 23 21 19 17 16 18 18 18 22 27 33 34 27 29 29 28 34 38
41 42 41 41 41 42 42 42 42 42 42 42 41 43 42 41 40 36 38 38 39 35 33 25 22 27 26 24 24 27 27 29 32 30 26 21 22 22 18 17 18 19 21 23 23 23 30 20 24 26 27 27 29 35
41 42 41 42 40 41 41 41 41 40 41 42 41 40 37 33 31 34 39 40 40 33 26 27 18 17 28 27 29 30 30 26 25 26 24 22 21 18 18 17 18 18 26 32 32 29 16 17 21 21 18 19 24 26
39 41 41 42 42 41 41 40 40 41 40 39 38 32 30 33 40 37 33 31 31 32 33 27 22 20 28 26 25 26 30 27 23 23 23 24 21 19 18 22 24 30 31 33 23 20 28 29 28 28 26 26 22 27
39 40 40 39 40 41 41 40 39 38 38 36 32 30 36 39 36 32 27 27 28 25 24 23 23 22 27 23 22 28 25 27 21 21 21 23 19 20 21 20 21 32 31 30 30 30 31 31 32 32 33 32 38 38
38 38 38 38 37 37 38 38 38 37 37 35 35 37 36 32 28 25 24 27 20 15 15 18 20 20 21 28 24 25 24 26 21 28 25 19 29 28 25 26 30 32 32 32 31 32 33 34 34 37 35 33 33 32
38 38 38 37 37 36 37 37 37 37 33 31 26 27 28 26 22 20 17 18 15 14 16 17 25 24 27 28 28 28 25 22 29 25 20 26 30 30 30 31 32 32 32 32 32 33 32 31 31 31 30 30 32 31
37 37 38 39 39 37 33 35 36 35 34 26 21 20 19 18 16 13 13 16 18 19 21 20 25 26 30 29 29 24 23 23 22 19 17 27 31 32 32 32 32 31 31 31 30 30 30 29 30 30 30 30 30 30
34 36 37 34 36 39 38 36 36 33 34 28 24 19 18 19 25 29 29 24 28 28 26 28 28 29 29 28 24 22 20 17 15 23 29 32 32 32 31 31 31 30 30 30 31 30 30 30 29 29 30 30 30 30
33 34 35 35 37 40 40 38 35 35 34 30 27 24 25 26 27 30 29 28 29 29 30 29 25 27 24 22 19 18 14 9 22 31 33 32 31 30 30 29 30 30 30 30 30 30 29 29 29 28 29 29 29 29
33 30 34 34 35 39 41 38 36 32 31 26 27 29 29 28 29 30 30 29 31 30 24 25 26 19 23 17 14 15 19 30 33 34 34 33 31 30 31 30 30 31 30 29 29 29 28 29 30 28 27 28 28 28
28 33 33 33 32 39 38 37 34 31 28 27 27 30 30 31 30 31 32 32 31 29 27 29 23 15 17 10 13 28 32 34 35 34 34 32 32 32 31 31 30 31 29 28 28 27 28 28 26 27 27 28 28 28
31 31 32 32 33 33 30 30 32 27 28 31 30 29 29 29 31 31 31 31 32 32 32 29 22 17 15 24 31 32 33 33 33 33 33 32 32 31 30 30 30 30 28 28 27 26 26 26 26 25 25 26 26 26
31 31 32 34 36 27 22 25 30 29 26 29 30 29 28 29 30 30 31 30 28 28 26 25 22 29 30 31 32 32 33 33 32 30 31 34 32 32 31 30 29 29 29 29 28 26 26 25 25 26 26 26 26 26
29 31 33 33 25 25 26 26 26 30 29 26 29 28 27 29 27 27 27 28 27 27 23 31 31 32 32 32 32 33 31 31 30 31 32 32 34 33 32 30 29 29 27 28 28 28 27 28 26 28 28 28 28 27
27 31 33 30 25 22 22 26 27 29 27 27 28 28 27 27 28 27 29 25 28 28 28 28 27 28 29 29 30 31 33 33 33 32 33 33 32 32 31 33 31 29 28 30 30 30 29 29 28 29 28 27 26 25
30 30 30 23 23 22 22 23 23 25 22 22 25 23 26 28 30 30 26 27 27 26 25 25 25 28 30 30 30 31 32 34 33 33 33 33 35 34 34 32 31 30 30 30 31 31 31 29 29 28 28 27 26 25
26 25 25 23 22 19 24 23 20 20 21 19 19 22 25 26 27 25 23 25 27 23 23 24 25 24 26 28 30 32 31 32 32 34 35 34 33 34 34 32 31 30 30 30 30 31 31 30 28 27 27 26 25 24
24 22 25 21 23 21 19 19 21 18 19 20 22 23 22 23 21 22 22 26 27 26 26 26 26 25 24 24 26 30 32 31 30 31 33 33 33 34 33 32 31 31 31 32 31 31 30 29 29 28 27 26 25 25
15 18 16 17 18 20 19 18 18 20 18 19 18 19 20 19 16 20 22 23 24 23 24 25 24 23 23 25 26 26 29 32 31 31 32 32 32 31 32 32 31 31 33 34 32 30 30 29 28 28 28 28 27 26
10 11 15 20 18 20 22 17 18 19 15 17 17 18 16 12 16 20 23 22 22 24 26 26 26 25 24 24 26 27 29 31 31 31 30 30 31 32 32 31 31 33 34 34 32 32 30 29 29 29 29 29 28 27
15 13 11 16 16 22 19 19 18 17 16 14 16 17 17 16 14 21 21 24 26 26 25 26 29 27 26 26 28 29 29 32 32 31 31 32 32 32 32 32 32 34 34 34 33 32 32 31 30 30 30 28 28 29
7 10 14 12 12 17 15 14 15 17 18 18 17 16 15 17 19 19 20 21 21 20 20 22 23 26 26 28 30 31 30 30 29 28 28 29 29 29 32 32 32 32 32 32 32 32 32 32 31 31 31 30 29 29
8 9 11 5 6 12 13 14 14 18 18 22 20 16 15 16 17 17 18 18 18 18 19 20 22 23 23 24 25 28 30 30 30 29 28 28 28 30 30 31 31 31 32 31 30 30 31 30 30 29 28 28 28 27
6 9 4 3 5 8 12 17 17 17 19 23 21 15 13 16 18 15 15 16 16 15 15 16 18 21 21 23 25 24 25 28 29 29 30 30 30 30 30 30 30 31 31 30 30 30 29 29 28 27 26 26 26 26
4 5 6 7 9 8 12 12 11 15 21 16 15 22 21 17 12 14 14 14 14 12 13 14 14 17 22 26 28 27 26 25 25 26 27 28 28 28 28 29 30 30 31 30 30 29 29 28 27 27 26 25 26 26
3 3 4 2 2 3 8 10 8 13 15 13 11 13 13 9 7 14 16 14 15 14 13 14 16 20 22 24 23 26 27 26 25 23 23 24 24 25 27 29 30 30 30 30 30 29 28 27 26 26 25 24 24 23

GFSWCAN_sfc_30mbdewp_171.txt.gz
Dewpoint
42 43 43 43 43 43 43 42 42 40 42 41 41 41 40 41 41 40 36 39 36 32 29 27 26 26 23 23 16 22 20 25 23 19 17 15 13 14 14 15 15 14 16 20 22 20 18 30 31 28 32 34 35 35
43 43 43 43 43 43 43 42 42 41 42 41 41 41 40 41 41 41 34 38 38 34 31 32 31 30 27 23 22 25 23 27 25 23 25 25 20 21 18 15 18 17 23 24 22 24 28 32 30 31 37 35 37 36
43 43 43 44 43 43 43 42 42 42 41 41 41 42 41 41 41 40 34 37 35 31 29 28 25 28 27 27 28 22 25 26 27 28 26 23 18 18 14 15 16 20 21 27 27 26 21 26 31 31 35 37 38 36
43 43 44 44 43 43 43 42 42 42 41 42 41 41 41 41 41 40 34 37 33 31 25 24 28 28 28 28 27 28 26 26 27 27 24 24 21 20 17 18 18 18 18 17 16 19 22 25 31 31 33 37 38 36
42 43 43 43 43 43 43 42 42 41 43 42 42 41 42 41 41 40 36 37 36 30 27 27 30 29 27 27 27 28 27 27 27 26 24 23 23 21 22 21 19 19 17 15 13 18 25 25 31 30 35 36 36 36
42 42 43 43 43 43 42 43 43 42 42 42 42 41 42 41 40 37 33 36 38 36 31 23 29 27 28 27 27 27 29 29 29 27 26 27 26 23 23 18 16 18 18 19 18 18 19 22 28 34 36 34 36 35
42 42 42 42 42 42 42 41 41 42 42 42 41 42 41 41 39 33 30 36 37 38 31 25 25 25 27 28 28 29 29 29 29 31 29 26 24 24 24 20 20 22 21 20 21 22 22 24 29 31 37 34 38 37
42 41 41 41 42 42 42 42 42 42 42 42 41 42 41 41 38 35 38 39 39 35 33 24 23 26 28 25 24 29 27 28 31 29 29 25 26 26 22 21 20 20 19 20 21 30 33 31 31 31 29 26 33 36
42 42 41 41 41 41 42 42 42 42 42 42 41 41 35 35 32 36 39 40 39 32 25 26 21 18 30 27 31 32 33 27 30 27 25 26 25 21 21 19 19 19 19 20 30 34 35 34 34 29 26 25 26 33
39 40 41 41 41 41 40 40 41 41 40 38 36 32 29 32 40 38 35 32 32 32 32 27 25 20 28 28 27 25 28 24 22 25 27 25 22 21 20 20 21 20 24 33 33 32 34 32 33 34 36 37 38 37
39 39 38 41 41 41 41 41 40 39 38 36 32 30 36 39 35 32 27 27 28 25 28 28 26 24 30 25 25 26 24 25 21 22 24 23 21 25 24 22 21 30 31 36 37 35 34 34 36 36 34 33 33 32
38 38 38 39 39 40 40 39 38 38 37 35 34 36 35 32 29 24 24 27 23 19 23 23 24 25 28 30 27 26 23 23 19 28 24 21 30 33 27 23 22 26 32 33 33 33 32 31 32 32 30 30 30 31
38 38 38 38 39 39 39 38 39 38 35 35 32 28 28 28 21 20 17 22 19 18 20 22 22 24 28 28 25 26 24 22 29 25 22 27 32 33 32 33 32 32 32 31 31 31 30 30 30 29 29 30 30 31
35 36 36 37 38 37 36 37 36 36 35 29 23 19 23 19 20 20 18 18 21 20 20 25 26 26 30 25 25 24 25 25 21 21 23 29 31 32 32 32 31 30 31 30 30 31 30 30 29 29 30 30 30 30
34 35 37 35 37 38 38 37 34 34 31 28 24 18 18 21 24 27 28 23 26 28 28 27 28 27 27 25 28 24 21 18 18 24 29 30 31 31 30 30 29 30 30 30 30 30 30 29 29 28 29 30 30 30
33 34 34 35 39 40 38 35 35 35 32 29 28 24 25 23 24 28 28 26 29 30 31 26 25 25 24 26 23 20 17 15 26 30 30 30 29 30 30 30 29 30 30 30 29 29 28 28 28 27 28 28 29 29
33 33 35 34 35 41 38 37 35 31 30 29 27 30 28 27 26 28 30 28 31 28 25 23 18 21 26 24 18 20 20 27 31 33 32 30 29 30 30 29 29 30 29 28 28 28 27 29 28 27 27 28 28 29
33 34 33 33 33 40 39 37 32 31 27 28 27 29 30 30 30 30 32 32 29 28 27 22 31 26 19 14 18 26 31 33 34 32 31 30 30 30 29 29 28 29 28 27 26 27 27 27 26 27 28 28 29 28
33 33 32 32 33 33 33 33 34 28 30 30 28 27 29 29 31 32 32 32 32 34 33 30 27 21 23 29 29 30 31 32 31 31 31 31 30 30 30 30 30 29 27 27 28 28 26 26 25 25 27 28 27 27
33 33 34 33 35 31 23 25 32 28 26 30 30 28 29 30 31 30 30 31 31 31 30 28 28 30 31 32 31 31 31 32 31 32 31 32 31 31 30 30 29 29 28 29 28 26 26 25 26 27 27 27 27 26
30 31 32 34 31 29 27 28 28 28 30 28 29 29 29 29 28 28 28 29 27 28 28 29 29 30 30 30 30 31 32 33 32 31 30 31 33 32 32 31 30 30 28 27 28 28 28 27 27 28 28 27 27 27
30 31 33 33 30 24 22 27 27 29 26 28 27 26 28 26 27 28 28 27 27 28 29 29 26 27 27 28 29 32 33 33 32 33 33 34 33 32 32 31 31 30 28 27 30 30 30 28 29 28 27 26 26 26
31 32 33 28 21 22 22 26 24 25 23 23 27 25 27 28 31 31 27 27 28 27 27 27 27 29 30 31 31 31 32 31 31 32 34 33 34 34 34 33 32 30 28 30 31 31 29 29 28 27 27 26 26 25
28 26 25 24 23 20 24 23 23 21 21 21 20 20 25 25 29 26 22 25 27 27 27 26 27 26 27 29 30 29 30 31 30 32 32 33 32 33 34 33 33 31 31 31 31 31 29 28 28 27 26 25 25 24
23 20 22 15 23 20 20 20 20 19 19 21 21 23 24 26 24 22 21 23 21 22 24 24 24 25 26 26 26 28 29 29 28 29 32 32 31 32 33 33 32 30 31 30 30 30 29 28 28 27 26 25 24 25
12 16 14 14 14 16 20 19 19 19 19 20 21 22 22 23 20 17 17 20 21 23 25 25 24 24 24 23 23 24 25 28 30 30 30 30 30 29 30 31 30 31 32 33 32 30 29 29 28 27 26 26 26 25
10 11 15 19 19 18 17 23 24 22 18 17 19 19 17 17 14 17 21 22 22 25 27 27 26 26 26 26 26 26 28 30 30 30 31 30 30 31 30 29 30 32 33 33 33 31 29 28 28 27 27 27 26 26
13 10 11 15 15 20 15 16 15 15 15 17 18 18 14 13 12 18 19 21 21 21 21 22 23 24 25 27 29 30 28 28 30 32 32 30 30 30 31 30 31 33 34 33 33 32 31 30 29 29 28 27 28 28
8 10 14 7 9 16 14 13 13 17 20 19 16 13 13 15 16 18 18 18 18 17 17 18 19 22 21 22 25 30 29 29 27 26 27 28 28 28 30 30 31 31 32 31 32 32 32 32 31 30 30 29 29 30
10 11 12 5 5 10 13 14 15 18 17 21 16 13 12 13 15 17 16 15 14 14 15 16 17 18 20 22 24 26 26 26 27 27 26 25 26 29 30 30 30 30 30 30 30 30 31 31 30 30 29 28 28 28
8 8 5 4 5 9 10 15 13 15 19 21 17 13 11 13 14 13 13 14 13 12 12 12 13 15 17 19 22 21 20 23 24 25 27 28 28 28 28 28 29 31 30 29 30 29 29 28 27 26 26 26 27 26
5 7 9 9 4 6 11 11 13 17 16 13 13 18 17 15 11 13 14 13 12 10 11 12 11 13 18 21 20 24 25 24 23 23 23 23 23 25 28 29 30 29 31 30 29 29 28 27 26 26 25 25 26 25
5 5 3 4 5 5 7 11 11 14 14 12 10 11 12 9 6 12 16 15 14 12 11 12 13 16 19 20 19 21 24 24 24 23 22 22 22 22 23 24 26 29 29 30 29 28 27 26 26 25 25 25 23 22